<?xml version="1.0" encoding="UTF-8" standalone="no" ?>
<gpx xmlns="http://www.topografix.com/GPX/1/1" xmlns:xsi="http://www.w3.org/2001/XMLSchema-instance" xsi:schemaLocation="http://www.topografix.com/GPX/1/1 http://www.topografix.com/GPX/1/1/gpx.xsd" version="1.1" creator="VisuGPX - https://www.visugpx.com">
  <metadata>
    <name>Boucle du Lac Nègre en rando-trail</name>
    <desc><![CDATA[Itinéraire de la Boucle du lac Nègre. Circuit Rouge de trail du Guide Randoxygène des Alpes Maritimes ([url]http://randoxygene.departement06.fr/parcours-detailles-des-trails/boucle-du-lac-negre-11238.html[/url])

Départ depuis le parking de Salèse au dessus du Boréon. Montée jusqu'au Col de la Frémamorte. Passage près des lacs de la Frémamorte sur le versant Italien. Remontée par le Pas de Prefoun (véritable cirque minéral). Redescente sur le lac Nègre.]]></desc>
  </metadata>
  <trk>
    <name><![CDATA[Boucle du Lac Nègre en rando-trail]]></name>
    <trkseg>
      <trkpt lat="44.12595" lon="7.26073">
        <ele>1687.3</ele>
        <time>2019-08-10T05:24:44Z</time>
      </trkpt>
      <trkpt lat="44.12593" lon="7.26066">
        <ele>1688</ele>
        <time>2019-08-10T05:24:54Z</time>
      </trkpt>
      <trkpt lat="44.12577" lon="7.26053">
        <ele>1689.4</ele>
        <time>2019-08-10T05:25:12Z</time>
      </trkpt>
      <trkpt lat="44.12575" lon="7.26047">
        <ele>1693.7</ele>
        <time>2019-08-10T05:25:16Z</time>
      </trkpt>
      <trkpt lat="44.12572" lon="7.26026">
        <ele>1697.1</ele>
        <time>2019-08-10T05:25:32Z</time>
      </trkpt>
      <trkpt lat="44.12583" lon="7.26004">
        <ele>1702.2</ele>
        <time>2019-08-10T05:25:45Z</time>
      </trkpt>
      <trkpt lat="44.12596" lon="7.25987">
        <ele>1707.6</ele>
        <time>2019-08-10T05:25:55Z</time>
      </trkpt>
      <trkpt lat="44.12608" lon="7.25966">
        <ele>1714.6</ele>
        <time>2019-08-10T05:26:02Z</time>
      </trkpt>
      <trkpt lat="44.12607" lon="7.25941">
        <ele>1721.7</ele>
        <time>2019-08-10T05:26:12Z</time>
      </trkpt>
      <trkpt lat="44.12598" lon="7.2592">
        <ele>1726.5</ele>
        <time>2019-08-10T05:26:27Z</time>
      </trkpt>
      <trkpt lat="44.12597" lon="7.25917">
        <ele>1727</ele>
        <time>2019-08-10T05:26:30Z</time>
      </trkpt>
      <trkpt lat="44.12596" lon="7.25915">
        <ele>1727.3</ele>
        <time>2019-08-10T05:26:32Z</time>
      </trkpt>
      <trkpt lat="44.12595" lon="7.25912">
        <ele>1727.8</ele>
        <time>2019-08-10T05:26:35Z</time>
      </trkpt>
      <trkpt lat="44.12582" lon="7.25894">
        <ele>1731.4</ele>
        <time>2019-08-10T05:26:49Z</time>
      </trkpt>
      <trkpt lat="44.12582" lon="7.25888">
        <ele>1732.5</ele>
        <time>2019-08-10T05:26:52Z</time>
      </trkpt>
      <trkpt lat="44.1258" lon="7.25861">
        <ele>1735.1</ele>
        <time>2019-08-10T05:27:05Z</time>
      </trkpt>
      <trkpt lat="44.12574" lon="7.25836">
        <ele>1736.7</ele>
        <time>2019-08-10T05:27:14Z</time>
      </trkpt>
      <trkpt lat="44.12573" lon="7.25832">
        <ele>1736.9</ele>
        <time>2019-08-10T05:27:16Z</time>
      </trkpt>
      <trkpt lat="44.12583" lon="7.2581">
        <ele>1738</ele>
        <time>2019-08-10T05:27:26Z</time>
      </trkpt>
      <trkpt lat="44.12593" lon="7.25794">
        <ele>1739.4</ele>
        <time>2019-08-10T05:27:41Z</time>
      </trkpt>
      <trkpt lat="44.12595" lon="7.2579">
        <ele>1739.6</ele>
        <time>2019-08-10T05:27:45Z</time>
      </trkpt>
      <trkpt lat="44.12594" lon="7.25788">
        <ele>1739.7</ele>
        <time>2019-08-10T05:27:47Z</time>
      </trkpt>
      <trkpt lat="44.12595" lon="7.25783">
        <ele>1740</ele>
        <time>2019-08-10T05:27:50Z</time>
      </trkpt>
      <trkpt lat="44.12597" lon="7.25779">
        <ele>1740</ele>
        <time>2019-08-10T05:27:53Z</time>
      </trkpt>
      <trkpt lat="44.12599" lon="7.25776">
        <ele>1740</ele>
        <time>2019-08-10T05:27:55Z</time>
      </trkpt>
      <trkpt lat="44.12614" lon="7.25761">
        <ele>1740.3</ele>
        <time>2019-08-10T05:28:05Z</time>
      </trkpt>
      <trkpt lat="44.12619" lon="7.25755">
        <ele>1739.9</ele>
        <time>2019-08-10T05:28:10Z</time>
      </trkpt>
      <trkpt lat="44.12625" lon="7.25744">
        <ele>1738.7</ele>
        <time>2019-08-10T05:28:18Z</time>
      </trkpt>
      <trkpt lat="44.12622" lon="7.25735">
        <ele>1737.5</ele>
        <time>2019-08-10T05:28:26Z</time>
      </trkpt>
      <trkpt lat="44.12623" lon="7.2573">
        <ele>1736.7</ele>
        <time>2019-08-10T05:28:30Z</time>
      </trkpt>
      <trkpt lat="44.12626" lon="7.25722">
        <ele>1735.2</ele>
        <time>2019-08-10T05:28:36Z</time>
      </trkpt>
      <trkpt lat="44.12626" lon="7.2572">
        <ele>1735</ele>
        <time>2019-08-10T05:28:38Z</time>
      </trkpt>
      <trkpt lat="44.12624" lon="7.2572">
        <ele>1734.9</ele>
        <time>2019-08-10T05:28:41Z</time>
      </trkpt>
      <trkpt lat="44.12621" lon="7.25721">
        <ele>1734.7</ele>
        <time>2019-08-10T05:28:44Z</time>
      </trkpt>
      <trkpt lat="44.12613" lon="7.25714">
        <ele>1733.9</ele>
        <time>2019-08-10T05:28:54Z</time>
      </trkpt>
      <trkpt lat="44.12614" lon="7.25713">
        <ele>1733.9</ele>
        <time>2019-08-10T05:28:56Z</time>
      </trkpt>
      <trkpt lat="44.12616" lon="7.25711">
        <ele>1733.7</ele>
        <time>2019-08-10T05:28:59Z</time>
      </trkpt>
      <trkpt lat="44.12615" lon="7.2571">
        <ele>1733.6</ele>
        <time>2019-08-10T05:29:01Z</time>
      </trkpt>
      <trkpt lat="44.12613" lon="7.25708">
        <ele>1733.6</ele>
        <time>2019-08-10T05:29:04Z</time>
      </trkpt>
      <trkpt lat="44.12611" lon="7.25708">
        <ele>1733.6</ele>
        <time>2019-08-10T05:29:06Z</time>
      </trkpt>
      <trkpt lat="44.12611" lon="7.25706">
        <ele>1733.6</ele>
        <time>2019-08-10T05:29:10Z</time>
      </trkpt>
      <trkpt lat="44.12612" lon="7.25701">
        <ele>1733.6</ele>
        <time>2019-08-10T05:29:13Z</time>
      </trkpt>
      <trkpt lat="44.12625" lon="7.2568">
        <ele>1733.2</ele>
        <time>2019-08-10T05:29:26Z</time>
      </trkpt>
      <trkpt lat="44.12627" lon="7.25679">
        <ele>1732.9</ele>
        <time>2019-08-10T05:29:27Z</time>
      </trkpt>
      <trkpt lat="44.1263" lon="7.25676">
        <ele>1732.4</ele>
        <time>2019-08-10T05:29:30Z</time>
      </trkpt>
      <trkpt lat="44.12636" lon="7.25661">
        <ele>1731.7</ele>
        <time>2019-08-10T05:29:40Z</time>
      </trkpt>
      <trkpt lat="44.12637" lon="7.25652">
        <ele>1731.4</ele>
        <time>2019-08-10T05:29:47Z</time>
      </trkpt>
      <trkpt lat="44.12637" lon="7.2565">
        <ele>1731.4</ele>
        <time>2019-08-10T05:29:49Z</time>
      </trkpt>
      <trkpt lat="44.12639" lon="7.25634">
        <ele>1731.8</ele>
        <time>2019-08-10T05:30:00Z</time>
      </trkpt>
      <trkpt lat="44.12642" lon="7.25625">
        <ele>1732.3</ele>
        <time>2019-08-10T05:30:07Z</time>
      </trkpt>
      <trkpt lat="44.12641" lon="7.25625">
        <ele>1732.4</ele>
        <time>2019-08-10T05:30:10Z</time>
      </trkpt>
      <trkpt lat="44.12641" lon="7.25622">
        <ele>1732.6</ele>
        <time>2019-08-10T05:30:14Z</time>
      </trkpt>
      <trkpt lat="44.12642" lon="7.25616">
        <ele>1732.9</ele>
        <time>2019-08-10T05:30:20Z</time>
      </trkpt>
      <trkpt lat="44.12643" lon="7.25614">
        <ele>1733.1</ele>
        <time>2019-08-10T05:30:22Z</time>
      </trkpt>
      <trkpt lat="44.12643" lon="7.25612">
        <ele>1733.2</ele>
        <time>2019-08-10T05:30:25Z</time>
      </trkpt>
      <trkpt lat="44.1264" lon="7.25609">
        <ele>1733.7</ele>
        <time>2019-08-10T05:30:30Z</time>
      </trkpt>
      <trkpt lat="44.12633" lon="7.25605">
        <ele>1734.9</ele>
        <time>2019-08-10T05:30:36Z</time>
      </trkpt>
      <trkpt lat="44.12632" lon="7.25597">
        <ele>1736.5</ele>
        <time>2019-08-10T05:30:41Z</time>
      </trkpt>
      <trkpt lat="44.12632" lon="7.25593">
        <ele>1737.2</ele>
        <time>2019-08-10T05:30:43Z</time>
      </trkpt>
      <trkpt lat="44.12634" lon="7.25585">
        <ele>1738.6</ele>
        <time>2019-08-10T05:30:47Z</time>
      </trkpt>
      <trkpt lat="44.12643" lon="7.25566">
        <ele>1744.2</ele>
        <time>2019-08-10T05:30:56Z</time>
      </trkpt>
      <trkpt lat="44.12646" lon="7.2556">
        <ele>1746</ele>
        <time>2019-08-10T05:30:58Z</time>
      </trkpt>
      <trkpt lat="44.12644" lon="7.25534">
        <ele>1752.3</ele>
        <time>2019-08-10T05:31:09Z</time>
      </trkpt>
      <trkpt lat="44.12637" lon="7.2551">
        <ele>1759.7</ele>
        <time>2019-08-10T05:31:23Z</time>
      </trkpt>
      <trkpt lat="44.12639" lon="7.25508">
        <ele>1760.7</ele>
        <time>2019-08-10T05:31:24Z</time>
      </trkpt>
      <trkpt lat="44.12641" lon="7.25503">
        <ele>1762.8</ele>
        <time>2019-08-10T05:31:27Z</time>
      </trkpt>
      <trkpt lat="44.12645" lon="7.2548">
        <ele>1768.4</ele>
        <time>2019-08-10T05:31:40Z</time>
      </trkpt>
      <trkpt lat="44.12649" lon="7.25461">
        <ele>1771.4</ele>
        <time>2019-08-10T05:31:50Z</time>
      </trkpt>
      <trkpt lat="44.12653" lon="7.2545">
        <ele>1772.2</ele>
        <time>2019-08-10T05:31:56Z</time>
      </trkpt>
      <trkpt lat="44.12665" lon="7.25431">
        <ele>1772.4</ele>
        <time>2019-08-10T05:32:02Z</time>
      </trkpt>
      <trkpt lat="44.12674" lon="7.25406">
        <ele>1771.9</ele>
        <time>2019-08-10T05:32:14Z</time>
      </trkpt>
      <trkpt lat="44.12677" lon="7.25399">
        <ele>1771.7</ele>
        <time>2019-08-10T05:32:17Z</time>
      </trkpt>
      <trkpt lat="44.12677" lon="7.25397">
        <ele>1771.5</ele>
        <time>2019-08-10T05:32:19Z</time>
      </trkpt>
      <trkpt lat="44.12679" lon="7.25394">
        <ele>1771.4</ele>
        <time>2019-08-10T05:32:22Z</time>
      </trkpt>
      <trkpt lat="44.1268" lon="7.25388">
        <ele>1771.4</ele>
        <time>2019-08-10T05:32:27Z</time>
      </trkpt>
      <trkpt lat="44.12682" lon="7.25379">
        <ele>1771.8</ele>
        <time>2019-08-10T05:32:33Z</time>
      </trkpt>
      <trkpt lat="44.12684" lon="7.2537">
        <ele>1772</ele>
        <time>2019-08-10T05:32:38Z</time>
      </trkpt>
      <trkpt lat="44.12683" lon="7.25366">
        <ele>1772.1</ele>
        <time>2019-08-10T05:32:42Z</time>
      </trkpt>
      <trkpt lat="44.12682" lon="7.25364">
        <ele>1772.2</ele>
        <time>2019-08-10T05:32:44Z</time>
      </trkpt>
      <trkpt lat="44.12686" lon="7.25338">
        <ele>1772.6</ele>
        <time>2019-08-10T05:32:57Z</time>
      </trkpt>
      <trkpt lat="44.12694" lon="7.2532">
        <ele>1772.5</ele>
        <time>2019-08-10T05:33:06Z</time>
      </trkpt>
      <trkpt lat="44.12695" lon="7.25317">
        <ele>1772.4</ele>
        <time>2019-08-10T05:33:08Z</time>
      </trkpt>
      <trkpt lat="44.12694" lon="7.25313">
        <ele>1772.5</ele>
        <time>2019-08-10T05:33:10Z</time>
      </trkpt>
      <trkpt lat="44.12689" lon="7.25299">
        <ele>1773.2</ele>
        <time>2019-08-10T05:33:18Z</time>
      </trkpt>
      <trkpt lat="44.1269" lon="7.25297">
        <ele>1773.4</ele>
        <time>2019-08-10T05:33:21Z</time>
      </trkpt>
      <trkpt lat="44.12692" lon="7.25296">
        <ele>1773.6</ele>
        <time>2019-08-10T05:33:23Z</time>
      </trkpt>
      <trkpt lat="44.12696" lon="7.25293">
        <ele>1774.3</ele>
        <time>2019-08-10T05:33:31Z</time>
      </trkpt>
      <trkpt lat="44.12692" lon="7.25291">
        <ele>1775</ele>
        <time>2019-08-10T05:33:39Z</time>
      </trkpt>
      <trkpt lat="44.12682" lon="7.25289">
        <ele>1777.3</ele>
        <time>2019-08-10T05:33:46Z</time>
      </trkpt>
      <trkpt lat="44.12677" lon="7.25287">
        <ele>1778.9</ele>
        <time>2019-08-10T05:33:50Z</time>
      </trkpt>
      <trkpt lat="44.12659" lon="7.25281">
        <ele>1785</ele>
        <time>2019-08-10T05:34:02Z</time>
      </trkpt>
      <trkpt lat="44.12659" lon="7.25282">
        <ele>1785.1</ele>
        <time>2019-08-10T05:34:03Z</time>
      </trkpt>
      <trkpt lat="44.12657" lon="7.25281">
        <ele>1785.7</ele>
        <time>2019-08-10T05:34:06Z</time>
      </trkpt>
      <trkpt lat="44.12657" lon="7.25281">
        <ele>1785.8</ele>
        <time>2019-08-10T05:34:10Z</time>
      </trkpt>
      <trkpt lat="44.12658" lon="7.2528">
        <ele>1786.3</ele>
        <time>2019-08-10T05:34:14Z</time>
      </trkpt>
      <trkpt lat="44.12661" lon="7.25276">
        <ele>1787.6</ele>
        <time>2019-08-10T05:34:18Z</time>
      </trkpt>
      <trkpt lat="44.1266" lon="7.25276">
        <ele>1787.8</ele>
        <time>2019-08-10T05:34:20Z</time>
      </trkpt>
      <trkpt lat="44.12661" lon="7.25274">
        <ele>1788.2</ele>
        <time>2019-08-10T05:34:23Z</time>
      </trkpt>
      <trkpt lat="44.12658" lon="7.25273">
        <ele>1789.2</ele>
        <time>2019-08-10T05:34:25Z</time>
      </trkpt>
      <trkpt lat="44.12658" lon="7.25271">
        <ele>1789.7</ele>
        <time>2019-08-10T05:34:28Z</time>
      </trkpt>
      <trkpt lat="44.12657" lon="7.2527">
        <ele>1790</ele>
        <time>2019-08-10T05:34:31Z</time>
      </trkpt>
      <trkpt lat="44.12656" lon="7.2527">
        <ele>1790.7</ele>
        <time>2019-08-10T05:34:33Z</time>
      </trkpt>
      <trkpt lat="44.12656" lon="7.25272">
        <ele>1791.1</ele>
        <time>2019-08-10T05:34:35Z</time>
      </trkpt>
      <trkpt lat="44.12655" lon="7.25274">
        <ele>1791.7</ele>
        <time>2019-08-10T05:34:37Z</time>
      </trkpt>
      <trkpt lat="44.12655" lon="7.25276">
        <ele>1792.3</ele>
        <time>2019-08-10T05:34:41Z</time>
      </trkpt>
      <trkpt lat="44.12658" lon="7.25276">
        <ele>1793.6</ele>
        <time>2019-08-10T05:34:48Z</time>
      </trkpt>
      <trkpt lat="44.12669" lon="7.2528">
        <ele>1788.8</ele>
        <time>2019-08-10T05:34:59Z</time>
      </trkpt>
      <trkpt lat="44.12673" lon="7.25282">
        <ele>1788.5</ele>
        <time>2019-08-10T05:35:03Z</time>
      </trkpt>
      <trkpt lat="44.12692" lon="7.25287">
        <ele>1782.4</ele>
        <time>2019-08-10T05:35:11Z</time>
      </trkpt>
      <trkpt lat="44.12704" lon="7.25286">
        <ele>1781.3</ele>
        <time>2019-08-10T05:35:19Z</time>
      </trkpt>
      <trkpt lat="44.12704" lon="7.25286">
        <ele>1782.1</ele>
        <time>2019-08-10T05:35:23Z</time>
      </trkpt>
      <trkpt lat="44.12712" lon="7.25282">
        <ele>1781.5</ele>
        <time>2019-08-10T05:35:48Z</time>
      </trkpt>
      <trkpt lat="44.12725" lon="7.25285">
        <ele>1780.8</ele>
        <time>2019-08-10T05:36:09Z</time>
      </trkpt>
      <trkpt lat="44.1273" lon="7.25283">
        <ele>1781.4</ele>
        <time>2019-08-10T05:36:15Z</time>
      </trkpt>
      <trkpt lat="44.12736" lon="7.2528">
        <ele>1782.8</ele>
        <time>2019-08-10T05:36:19Z</time>
      </trkpt>
      <trkpt lat="44.12753" lon="7.25271">
        <ele>1786</ele>
        <time>2019-08-10T05:36:28Z</time>
      </trkpt>
      <trkpt lat="44.12768" lon="7.25259">
        <ele>1791.7</ele>
        <time>2019-08-10T05:36:43Z</time>
      </trkpt>
      <trkpt lat="44.12769" lon="7.25259">
        <ele>1792.5</ele>
        <time>2019-08-10T05:36:46Z</time>
      </trkpt>
      <trkpt lat="44.12772" lon="7.25259">
        <ele>1793.6</ele>
        <time>2019-08-10T05:36:49Z</time>
      </trkpt>
      <trkpt lat="44.1279" lon="7.25257">
        <ele>1796.5</ele>
        <time>2019-08-10T05:36:59Z</time>
      </trkpt>
      <trkpt lat="44.12807" lon="7.25248">
        <ele>1800.5</ele>
        <time>2019-08-10T05:37:08Z</time>
      </trkpt>
      <trkpt lat="44.12811" lon="7.25245">
        <ele>1801.4</ele>
        <time>2019-08-10T05:37:12Z</time>
      </trkpt>
      <trkpt lat="44.12813" lon="7.25241">
        <ele>1802</ele>
        <time>2019-08-10T05:37:18Z</time>
      </trkpt>
      <trkpt lat="44.12812" lon="7.25237">
        <ele>1802.3</ele>
        <time>2019-08-10T05:37:22Z</time>
      </trkpt>
      <trkpt lat="44.12815" lon="7.25228">
        <ele>1803</ele>
        <time>2019-08-10T05:37:29Z</time>
      </trkpt>
      <trkpt lat="44.12819" lon="7.25221">
        <ele>1803.7</ele>
        <time>2019-08-10T05:37:34Z</time>
      </trkpt>
      <trkpt lat="44.12826" lon="7.25209">
        <ele>1805.1</ele>
        <time>2019-08-10T05:37:42Z</time>
      </trkpt>
      <trkpt lat="44.12828" lon="7.25201">
        <ele>1805.9</ele>
        <time>2019-08-10T05:37:49Z</time>
      </trkpt>
      <trkpt lat="44.1283" lon="7.25201">
        <ele>1806.1</ele>
        <time>2019-08-10T05:37:51Z</time>
      </trkpt>
      <trkpt lat="44.12831" lon="7.25199">
        <ele>1806.2</ele>
        <time>2019-08-10T05:37:53Z</time>
      </trkpt>
      <trkpt lat="44.12833" lon="7.25196">
        <ele>1806.6</ele>
        <time>2019-08-10T05:37:58Z</time>
      </trkpt>
      <trkpt lat="44.12834" lon="7.25194">
        <ele>1806.8</ele>
        <time>2019-08-10T05:38:00Z</time>
      </trkpt>
      <trkpt lat="44.12837" lon="7.25183">
        <ele>1808</ele>
        <time>2019-08-10T05:38:09Z</time>
      </trkpt>
      <trkpt lat="44.12844" lon="7.2516">
        <ele>1810.2</ele>
        <time>2019-08-10T05:38:24Z</time>
      </trkpt>
      <trkpt lat="44.1285" lon="7.25141">
        <ele>1812.6</ele>
        <time>2019-08-10T05:38:35Z</time>
      </trkpt>
      <trkpt lat="44.12847" lon="7.25129">
        <ele>1813.8</ele>
        <time>2019-08-10T05:38:46Z</time>
      </trkpt>
      <trkpt lat="44.12847" lon="7.25122">
        <ele>1814.7</ele>
        <time>2019-08-10T05:38:51Z</time>
      </trkpt>
      <trkpt lat="44.12862" lon="7.25106">
        <ele>1816.7</ele>
        <time>2019-08-10T05:39:04Z</time>
      </trkpt>
      <trkpt lat="44.12877" lon="7.2509">
        <ele>1818.7</ele>
        <time>2019-08-10T05:39:17Z</time>
      </trkpt>
      <trkpt lat="44.12883" lon="7.25074">
        <ele>1820.3</ele>
        <time>2019-08-10T05:39:30Z</time>
      </trkpt>
      <trkpt lat="44.12884" lon="7.25066">
        <ele>1821.1</ele>
        <time>2019-08-10T05:39:36Z</time>
      </trkpt>
      <trkpt lat="44.12885" lon="7.25062">
        <ele>1821.6</ele>
        <time>2019-08-10T05:39:38Z</time>
      </trkpt>
      <trkpt lat="44.12894" lon="7.2505">
        <ele>1824.2</ele>
        <time>2019-08-10T05:39:49Z</time>
      </trkpt>
      <trkpt lat="44.12894" lon="7.25046">
        <ele>1824.9</ele>
        <time>2019-08-10T05:39:54Z</time>
      </trkpt>
      <trkpt lat="44.12895" lon="7.25039">
        <ele>1826.1</ele>
        <time>2019-08-10T05:39:59Z</time>
      </trkpt>
      <trkpt lat="44.129" lon="7.25032">
        <ele>1826.8</ele>
        <time>2019-08-10T05:40:04Z</time>
      </trkpt>
      <trkpt lat="44.12906" lon="7.25024">
        <ele>1827.9</ele>
        <time>2019-08-10T05:40:12Z</time>
      </trkpt>
      <trkpt lat="44.1291" lon="7.25021">
        <ele>1828.3</ele>
        <time>2019-08-10T05:40:17Z</time>
      </trkpt>
      <trkpt lat="44.12914" lon="7.25023">
        <ele>1829</ele>
        <time>2019-08-10T05:40:26Z</time>
      </trkpt>
      <trkpt lat="44.12915" lon="7.25024">
        <ele>1829.2</ele>
        <time>2019-08-10T05:40:28Z</time>
      </trkpt>
      <trkpt lat="44.12916" lon="7.25023">
        <ele>1829.3</ele>
        <time>2019-08-10T05:40:31Z</time>
      </trkpt>
      <trkpt lat="44.12914" lon="7.25022">
        <ele>1829.8</ele>
        <time>2019-08-10T05:40:37Z</time>
      </trkpt>
      <trkpt lat="44.12914" lon="7.25021">
        <ele>1829.9</ele>
        <time>2019-08-10T05:40:38Z</time>
      </trkpt>
      <trkpt lat="44.12914" lon="7.25022">
        <ele>1829.9</ele>
        <time>2019-08-10T05:40:40Z</time>
      </trkpt>
      <trkpt lat="44.12913" lon="7.25026">
        <ele>1830.5</ele>
        <time>2019-08-10T05:42:01Z</time>
      </trkpt>
      <trkpt lat="44.12915" lon="7.25021">
        <ele>1831</ele>
        <time>2019-08-10T05:42:06Z</time>
      </trkpt>
      <trkpt lat="44.12915" lon="7.25018">
        <ele>1831.3</ele>
        <time>2019-08-10T05:42:08Z</time>
      </trkpt>
      <trkpt lat="44.12915" lon="7.25016">
        <ele>1831.6</ele>
        <time>2019-08-10T05:42:10Z</time>
      </trkpt>
      <trkpt lat="44.12917" lon="7.25009">
        <ele>1832.2</ele>
        <time>2019-08-10T05:42:15Z</time>
      </trkpt>
      <trkpt lat="44.12918" lon="7.25005">
        <ele>1832.6</ele>
        <time>2019-08-10T05:42:18Z</time>
      </trkpt>
      <trkpt lat="44.12928" lon="7.24982">
        <ele>1835.2</ele>
        <time>2019-08-10T05:42:33Z</time>
      </trkpt>
      <trkpt lat="44.12939" lon="7.24962">
        <ele>1838.3</ele>
        <time>2019-08-10T05:42:49Z</time>
      </trkpt>
      <trkpt lat="44.12941" lon="7.24958">
        <ele>1838.9</ele>
        <time>2019-08-10T05:42:53Z</time>
      </trkpt>
      <trkpt lat="44.12949" lon="7.24943">
        <ele>1840.5</ele>
        <time>2019-08-10T05:43:07Z</time>
      </trkpt>
      <trkpt lat="44.12951" lon="7.2494">
        <ele>1840.9</ele>
        <time>2019-08-10T05:43:09Z</time>
      </trkpt>
      <trkpt lat="44.12966" lon="7.24923">
        <ele>1844.1</ele>
        <time>2019-08-10T05:43:27Z</time>
      </trkpt>
      <trkpt lat="44.12972" lon="7.24919">
        <ele>1845.3</ele>
        <time>2019-08-10T05:43:34Z</time>
      </trkpt>
      <trkpt lat="44.12974" lon="7.24917">
        <ele>1845.8</ele>
        <time>2019-08-10T05:43:37Z</time>
      </trkpt>
      <trkpt lat="44.1298" lon="7.24912">
        <ele>1846.7</ele>
        <time>2019-08-10T05:43:42Z</time>
      </trkpt>
      <trkpt lat="44.12999" lon="7.24907">
        <ele>1848.7</ele>
        <time>2019-08-10T05:43:56Z</time>
      </trkpt>
      <trkpt lat="44.13013" lon="7.24899">
        <ele>1851.4</ele>
        <time>2019-08-10T05:44:10Z</time>
      </trkpt>
      <trkpt lat="44.13021" lon="7.24877">
        <ele>1854.2</ele>
        <time>2019-08-10T05:44:30Z</time>
      </trkpt>
      <trkpt lat="44.13034" lon="7.24859">
        <ele>1856.7</ele>
        <time>2019-08-10T05:44:49Z</time>
      </trkpt>
      <trkpt lat="44.13047" lon="7.24843">
        <ele>1859.7</ele>
        <time>2019-08-10T05:45:01Z</time>
      </trkpt>
      <trkpt lat="44.13054" lon="7.24824">
        <ele>1862.4</ele>
        <time>2019-08-10T05:45:11Z</time>
      </trkpt>
      <trkpt lat="44.13071" lon="7.24813">
        <ele>1864.7</ele>
        <time>2019-08-10T05:45:21Z</time>
      </trkpt>
      <trkpt lat="44.13074" lon="7.24805">
        <ele>1865.3</ele>
        <time>2019-08-10T05:45:25Z</time>
      </trkpt>
      <trkpt lat="44.1308" lon="7.24782">
        <ele>1867.8</ele>
        <time>2019-08-10T05:45:39Z</time>
      </trkpt>
      <trkpt lat="44.13085" lon="7.24759">
        <ele>1870.2</ele>
        <time>2019-08-10T05:45:53Z</time>
      </trkpt>
      <trkpt lat="44.13091" lon="7.2474">
        <ele>1872.2</ele>
        <time>2019-08-10T05:46:04Z</time>
      </trkpt>
      <trkpt lat="44.13102" lon="7.24722">
        <ele>1874.1</ele>
        <time>2019-08-10T05:46:15Z</time>
      </trkpt>
      <trkpt lat="44.1312" lon="7.24713">
        <ele>1875.7</ele>
        <time>2019-08-10T05:46:26Z</time>
      </trkpt>
      <trkpt lat="44.13134" lon="7.24699">
        <ele>1877.6</ele>
        <time>2019-08-10T05:46:37Z</time>
      </trkpt>
      <trkpt lat="44.13151" lon="7.24684">
        <ele>1879.7</ele>
        <time>2019-08-10T05:46:47Z</time>
      </trkpt>
      <trkpt lat="44.13167" lon="7.24672">
        <ele>1881.9</ele>
        <time>2019-08-10T05:46:57Z</time>
      </trkpt>
      <trkpt lat="44.13182" lon="7.24657">
        <ele>1884.1</ele>
        <time>2019-08-10T05:47:07Z</time>
      </trkpt>
      <trkpt lat="44.13195" lon="7.2464">
        <ele>1885.8</ele>
        <time>2019-08-10T05:47:15Z</time>
      </trkpt>
      <trkpt lat="44.13212" lon="7.24628">
        <ele>1887.6</ele>
        <time>2019-08-10T05:47:26Z</time>
      </trkpt>
      <trkpt lat="44.13222" lon="7.24607">
        <ele>1889.1</ele>
        <time>2019-08-10T05:47:42Z</time>
      </trkpt>
      <trkpt lat="44.13228" lon="7.24582">
        <ele>1891</ele>
        <time>2019-08-10T05:47:58Z</time>
      </trkpt>
      <trkpt lat="44.1324" lon="7.24562">
        <ele>1893.2</ele>
        <time>2019-08-10T05:48:12Z</time>
      </trkpt>
      <trkpt lat="44.13255" lon="7.24546">
        <ele>1895.5</ele>
        <time>2019-08-10T05:48:24Z</time>
      </trkpt>
      <trkpt lat="44.13258" lon="7.2454">
        <ele>1895.9</ele>
        <time>2019-08-10T05:48:28Z</time>
      </trkpt>
      <trkpt lat="44.13267" lon="7.24519">
        <ele>1897.3</ele>
        <time>2019-08-10T05:48:41Z</time>
      </trkpt>
      <trkpt lat="44.13273" lon="7.24504">
        <ele>1898.6</ele>
        <time>2019-08-10T05:48:47Z</time>
      </trkpt>
      <trkpt lat="44.13264" lon="7.24482">
        <ele>1900.1</ele>
        <time>2019-08-10T05:48:57Z</time>
      </trkpt>
      <trkpt lat="44.13263" lon="7.24476">
        <ele>1900.5</ele>
        <time>2019-08-10T05:49:01Z</time>
      </trkpt>
      <trkpt lat="44.13271" lon="7.24454">
        <ele>1901.7</ele>
        <time>2019-08-10T05:49:17Z</time>
      </trkpt>
      <trkpt lat="44.13276" lon="7.24451">
        <ele>1902</ele>
        <time>2019-08-10T05:49:20Z</time>
      </trkpt>
      <trkpt lat="44.13291" lon="7.24436">
        <ele>1903</ele>
        <time>2019-08-10T05:49:30Z</time>
      </trkpt>
      <trkpt lat="44.13294" lon="7.24431">
        <ele>1903.3</ele>
        <time>2019-08-10T05:49:34Z</time>
      </trkpt>
      <trkpt lat="44.133" lon="7.24427">
        <ele>1903.7</ele>
        <time>2019-08-10T05:49:43Z</time>
      </trkpt>
      <trkpt lat="44.13301" lon="7.24424">
        <ele>1903.8</ele>
        <time>2019-08-10T05:49:45Z</time>
      </trkpt>
      <trkpt lat="44.13305" lon="7.24417">
        <ele>1904.6</ele>
        <time>2019-08-10T05:49:54Z</time>
      </trkpt>
      <trkpt lat="44.13311" lon="7.24399">
        <ele>1906.6</ele>
        <time>2019-08-10T05:50:06Z</time>
      </trkpt>
      <trkpt lat="44.13322" lon="7.24376">
        <ele>1909.5</ele>
        <time>2019-08-10T05:50:20Z</time>
      </trkpt>
      <trkpt lat="44.13332" lon="7.24353">
        <ele>1911.5</ele>
        <time>2019-08-10T05:50:35Z</time>
      </trkpt>
      <trkpt lat="44.13336" lon="7.24332">
        <ele>1913.2</ele>
        <time>2019-08-10T05:50:50Z</time>
      </trkpt>
      <trkpt lat="44.13347" lon="7.24316">
        <ele>1915</ele>
        <time>2019-08-10T05:51:02Z</time>
      </trkpt>
      <trkpt lat="44.13357" lon="7.24294">
        <ele>1918</ele>
        <time>2019-08-10T05:51:17Z</time>
      </trkpt>
      <trkpt lat="44.13371" lon="7.24276">
        <ele>1920.2</ele>
        <time>2019-08-10T05:51:31Z</time>
      </trkpt>
      <trkpt lat="44.13383" lon="7.24258">
        <ele>1922.9</ele>
        <time>2019-08-10T05:51:45Z</time>
      </trkpt>
      <trkpt lat="44.13398" lon="7.24242">
        <ele>1925.4</ele>
        <time>2019-08-10T05:52:01Z</time>
      </trkpt>
      <trkpt lat="44.13402" lon="7.24236">
        <ele>1926</ele>
        <time>2019-08-10T05:52:07Z</time>
      </trkpt>
      <trkpt lat="44.13415" lon="7.24219">
        <ele>1928</ele>
        <time>2019-08-10T05:52:19Z</time>
      </trkpt>
      <trkpt lat="44.13429" lon="7.24203">
        <ele>1930</ele>
        <time>2019-08-10T05:52:31Z</time>
      </trkpt>
      <trkpt lat="44.13444" lon="7.24188">
        <ele>1932.4</ele>
        <time>2019-08-10T05:52:44Z</time>
      </trkpt>
      <trkpt lat="44.13457" lon="7.2417">
        <ele>1934.2</ele>
        <time>2019-08-10T05:52:59Z</time>
      </trkpt>
      <trkpt lat="44.13467" lon="7.24147">
        <ele>1935.9</ele>
        <time>2019-08-10T05:53:14Z</time>
      </trkpt>
      <trkpt lat="44.13478" lon="7.24124">
        <ele>1937.2</ele>
        <time>2019-08-10T05:53:24Z</time>
      </trkpt>
      <trkpt lat="44.13474" lon="7.24098">
        <ele>1938.4</ele>
        <time>2019-08-10T05:53:34Z</time>
      </trkpt>
      <trkpt lat="44.13469" lon="7.24074">
        <ele>1940.2</ele>
        <time>2019-08-10T05:53:46Z</time>
      </trkpt>
      <trkpt lat="44.13468" lon="7.24065">
        <ele>1941.1</ele>
        <time>2019-08-10T05:53:50Z</time>
      </trkpt>
      <trkpt lat="44.1347" lon="7.24056">
        <ele>1941.9</ele>
        <time>2019-08-10T05:53:56Z</time>
      </trkpt>
      <trkpt lat="44.13475" lon="7.24032">
        <ele>1944</ele>
        <time>2019-08-10T05:54:07Z</time>
      </trkpt>
      <trkpt lat="44.1347" lon="7.24009">
        <ele>1945.9</ele>
        <time>2019-08-10T05:54:15Z</time>
      </trkpt>
      <trkpt lat="44.13462" lon="7.23984">
        <ele>1948.3</ele>
        <time>2019-08-10T05:54:23Z</time>
      </trkpt>
      <trkpt lat="44.13461" lon="7.23974">
        <ele>1949.1</ele>
        <time>2019-08-10T05:54:27Z</time>
      </trkpt>
      <trkpt lat="44.13472" lon="7.23954">
        <ele>1951.9</ele>
        <time>2019-08-10T05:54:41Z</time>
      </trkpt>
      <trkpt lat="44.13477" lon="7.23947">
        <ele>1952.8</ele>
        <time>2019-08-10T05:54:46Z</time>
      </trkpt>
      <trkpt lat="44.13485" lon="7.23935">
        <ele>1954.2</ele>
        <time>2019-08-10T05:54:58Z</time>
      </trkpt>
      <trkpt lat="44.13484" lon="7.23935">
        <ele>1954.3</ele>
        <time>2019-08-10T05:55:06Z</time>
      </trkpt>
      <trkpt lat="44.13488" lon="7.23926">
        <ele>1955</ele>
        <time>2019-08-10T05:55:14Z</time>
      </trkpt>
      <trkpt lat="44.13499" lon="7.23906">
        <ele>1956.9</ele>
        <time>2019-08-10T05:55:26Z</time>
      </trkpt>
      <trkpt lat="44.13513" lon="7.23889">
        <ele>1958.5</ele>
        <time>2019-08-10T05:55:38Z</time>
      </trkpt>
      <trkpt lat="44.13519" lon="7.23864">
        <ele>1959.9</ele>
        <time>2019-08-10T05:55:49Z</time>
      </trkpt>
      <trkpt lat="44.13527" lon="7.23842">
        <ele>1962.2</ele>
        <time>2019-08-10T05:55:58Z</time>
      </trkpt>
      <trkpt lat="44.13539" lon="7.23823">
        <ele>1963.8</ele>
        <time>2019-08-10T05:56:12Z</time>
      </trkpt>
      <trkpt lat="44.13546" lon="7.23811">
        <ele>1964.9</ele>
        <time>2019-08-10T05:56:20Z</time>
      </trkpt>
      <trkpt lat="44.13557" lon="7.23796">
        <ele>1966.4</ele>
        <time>2019-08-10T05:56:32Z</time>
      </trkpt>
      <trkpt lat="44.1356" lon="7.23772">
        <ele>1968.3</ele>
        <time>2019-08-10T05:56:43Z</time>
      </trkpt>
      <trkpt lat="44.13563" lon="7.23748">
        <ele>1970.7</ele>
        <time>2019-08-10T05:56:53Z</time>
      </trkpt>
      <trkpt lat="44.13566" lon="7.23738">
        <ele>1971.8</ele>
        <time>2019-08-10T05:56:57Z</time>
      </trkpt>
      <trkpt lat="44.1357" lon="7.23714">
        <ele>1974.2</ele>
        <time>2019-08-10T05:57:08Z</time>
      </trkpt>
      <trkpt lat="44.13581" lon="7.23691">
        <ele>1976.7</ele>
        <time>2019-08-10T05:57:17Z</time>
      </trkpt>
      <trkpt lat="44.13586" lon="7.23666">
        <ele>1979.6</ele>
        <time>2019-08-10T05:57:26Z</time>
      </trkpt>
      <trkpt lat="44.13591" lon="7.23642">
        <ele>1982.7</ele>
        <time>2019-08-10T05:57:36Z</time>
      </trkpt>
      <trkpt lat="44.13599" lon="7.23618">
        <ele>1985.6</ele>
        <time>2019-08-10T05:57:51Z</time>
      </trkpt>
      <trkpt lat="44.13606" lon="7.23599">
        <ele>1988.4</ele>
        <time>2019-08-10T05:58:02Z</time>
      </trkpt>
      <trkpt lat="44.13621" lon="7.23585">
        <ele>1991</ele>
        <time>2019-08-10T05:58:16Z</time>
      </trkpt>
      <trkpt lat="44.13633" lon="7.23568">
        <ele>1993.6</ele>
        <time>2019-08-10T05:58:32Z</time>
      </trkpt>
      <trkpt lat="44.13648" lon="7.23552">
        <ele>1996.4</ele>
        <time>2019-08-10T05:58:44Z</time>
      </trkpt>
      <trkpt lat="44.1366" lon="7.23532">
        <ele>1998.2</ele>
        <time>2019-08-10T05:58:57Z</time>
      </trkpt>
      <trkpt lat="44.13667" lon="7.23516">
        <ele>1999.4</ele>
        <time>2019-08-10T05:59:09Z</time>
      </trkpt>
      <trkpt lat="44.13657" lon="7.23497">
        <ele>2000.7</ele>
        <time>2019-08-10T05:59:23Z</time>
      </trkpt>
      <trkpt lat="44.13657" lon="7.23495">
        <ele>2000.9</ele>
        <time>2019-08-10T05:59:24Z</time>
      </trkpt>
      <trkpt lat="44.13656" lon="7.23482">
        <ele>2001.8</ele>
        <time>2019-08-10T05:59:34Z</time>
      </trkpt>
      <trkpt lat="44.13656" lon="7.2348">
        <ele>2002</ele>
        <time>2019-08-10T05:59:36Z</time>
      </trkpt>
      <trkpt lat="44.13653" lon="7.23476">
        <ele>2002.5</ele>
        <time>2019-08-10T05:59:40Z</time>
      </trkpt>
      <trkpt lat="44.13653" lon="7.2347">
        <ele>2003</ele>
        <time>2019-08-10T05:59:50Z</time>
      </trkpt>
      <trkpt lat="44.13656" lon="7.23465">
        <ele>2003.6</ele>
        <time>2019-08-10T05:59:56Z</time>
      </trkpt>
      <trkpt lat="44.13663" lon="7.23467">
        <ele>2004.7</ele>
        <time>2019-08-10T06:00:01Z</time>
      </trkpt>
      <trkpt lat="44.13665" lon="7.23467">
        <ele>2004.9</ele>
        <time>2019-08-10T06:00:03Z</time>
      </trkpt>
      <trkpt lat="44.13666" lon="7.23467">
        <ele>2005.2</ele>
        <time>2019-08-10T06:00:06Z</time>
      </trkpt>
      <trkpt lat="44.13667" lon="7.23466">
        <ele>2005.4</ele>
        <time>2019-08-10T06:00:09Z</time>
      </trkpt>
      <trkpt lat="44.13667" lon="7.23466">
        <ele>2005.5</ele>
        <time>2019-08-10T06:00:13Z</time>
      </trkpt>
      <trkpt lat="44.13665" lon="7.23466">
        <ele>2005.7</ele>
        <time>2019-08-10T06:00:15Z</time>
      </trkpt>
      <trkpt lat="44.1366" lon="7.23456">
        <ele>2006.9</ele>
        <time>2019-08-10T06:00:25Z</time>
      </trkpt>
      <trkpt lat="44.13659" lon="7.23447">
        <ele>2007.9</ele>
        <time>2019-08-10T06:00:31Z</time>
      </trkpt>
      <trkpt lat="44.13655" lon="7.23428">
        <ele>2009.8</ele>
        <time>2019-08-10T06:00:48Z</time>
      </trkpt>
      <trkpt lat="44.13654" lon="7.23426">
        <ele>2010</ele>
        <time>2019-08-10T06:00:58Z</time>
      </trkpt>
      <trkpt lat="44.13654" lon="7.23426">
        <ele>2010</ele>
        <time>2019-08-10T06:01:00Z</time>
      </trkpt>
      <trkpt lat="44.13652" lon="7.23423">
        <ele>2010.3</ele>
        <time>2019-08-10T06:01:03Z</time>
      </trkpt>
      <trkpt lat="44.13654" lon="7.234">
        <ele>2013.7</ele>
        <time>2019-08-10T06:01:19Z</time>
      </trkpt>
      <trkpt lat="44.13652" lon="7.23375">
        <ele>2017.6</ele>
        <time>2019-08-10T06:01:34Z</time>
      </trkpt>
      <trkpt lat="44.13653" lon="7.23359">
        <ele>2020.5</ele>
        <time>2019-08-10T06:01:44Z</time>
      </trkpt>
      <trkpt lat="44.13659" lon="7.23351">
        <ele>2022.6</ele>
        <time>2019-08-10T06:01:50Z</time>
      </trkpt>
      <trkpt lat="44.13674" lon="7.23336">
        <ele>2027.8</ele>
        <time>2019-08-10T06:02:05Z</time>
      </trkpt>
      <trkpt lat="44.13681" lon="7.23326">
        <ele>2028.4</ele>
        <time>2019-08-10T06:02:15Z</time>
      </trkpt>
      <trkpt lat="44.13698" lon="7.23334">
        <ele>2027.9</ele>
        <time>2019-08-10T06:02:28Z</time>
      </trkpt>
      <trkpt lat="44.13716" lon="7.23339">
        <ele>2026.7</ele>
        <time>2019-08-10T06:02:43Z</time>
      </trkpt>
      <trkpt lat="44.13722" lon="7.23341">
        <ele>2026.4</ele>
        <time>2019-08-10T06:02:49Z</time>
      </trkpt>
      <trkpt lat="44.13733" lon="7.23359">
        <ele>2026.4</ele>
        <time>2019-08-10T06:03:04Z</time>
      </trkpt>
      <trkpt lat="44.13725" lon="7.23384">
        <ele>2024</ele>
        <time>2019-08-10T06:03:17Z</time>
      </trkpt>
      <trkpt lat="44.13736" lon="7.23416">
        <ele>2020.2</ele>
        <time>2019-08-10T06:03:31Z</time>
      </trkpt>
      <trkpt lat="44.13747" lon="7.23436">
        <ele>2020</ele>
        <time>2019-08-10T06:03:42Z</time>
      </trkpt>
      <trkpt lat="44.13763" lon="7.2345">
        <ele>2022.2</ele>
        <time>2019-08-10T06:03:54Z</time>
      </trkpt>
      <trkpt lat="44.13765" lon="7.23476">
        <ele>2023.5</ele>
        <time>2019-08-10T06:04:08Z</time>
      </trkpt>
      <trkpt lat="44.13761" lon="7.23502">
        <ele>2023.9</ele>
        <time>2019-08-10T06:04:22Z</time>
      </trkpt>
      <trkpt lat="44.13754" lon="7.23526">
        <ele>2025.8</ele>
        <time>2019-08-10T06:04:35Z</time>
      </trkpt>
      <trkpt lat="44.13756" lon="7.23548">
        <ele>2028.5</ele>
        <time>2019-08-10T06:04:47Z</time>
      </trkpt>
      <trkpt lat="44.13765" lon="7.23558">
        <ele>2030</ele>
        <time>2019-08-10T06:04:55Z</time>
      </trkpt>
      <trkpt lat="44.13782" lon="7.23566">
        <ele>2029.1</ele>
        <time>2019-08-10T06:05:11Z</time>
      </trkpt>
      <trkpt lat="44.13783" lon="7.23566">
        <ele>2029.1</ele>
        <time>2019-08-10T06:05:15Z</time>
      </trkpt>
      <trkpt lat="44.13782" lon="7.23564">
        <ele>2028.9</ele>
        <time>2019-08-10T06:05:18Z</time>
      </trkpt>
      <trkpt lat="44.13782" lon="7.23563">
        <ele>2028.9</ele>
        <time>2019-08-10T06:05:20Z</time>
      </trkpt>
      <trkpt lat="44.13782" lon="7.23562">
        <ele>2028.9</ele>
        <time>2019-08-10T06:05:23Z</time>
      </trkpt>
      <trkpt lat="44.13783" lon="7.23563">
        <ele>2028.8</ele>
        <time>2019-08-10T06:05:25Z</time>
      </trkpt>
      <trkpt lat="44.13784" lon="7.23564">
        <ele>2028.7</ele>
        <time>2019-08-10T06:05:27Z</time>
      </trkpt>
      <trkpt lat="44.13788" lon="7.23564">
        <ele>2028.5</ele>
        <time>2019-08-10T06:05:37Z</time>
      </trkpt>
      <trkpt lat="44.13806" lon="7.23561">
        <ele>2027.2</ele>
        <time>2019-08-10T06:05:56Z</time>
      </trkpt>
      <trkpt lat="44.13818" lon="7.23542">
        <ele>2025.9</ele>
        <time>2019-08-10T06:06:12Z</time>
      </trkpt>
      <trkpt lat="44.13831" lon="7.23522">
        <ele>2024.6</ele>
        <time>2019-08-10T06:06:28Z</time>
      </trkpt>
      <trkpt lat="44.13843" lon="7.23504">
        <ele>2023.3</ele>
        <time>2019-08-10T06:06:42Z</time>
      </trkpt>
      <trkpt lat="44.1385" lon="7.2348">
        <ele>2022.1</ele>
        <time>2019-08-10T06:06:57Z</time>
      </trkpt>
      <trkpt lat="44.13865" lon="7.23466">
        <ele>2020.9</ele>
        <time>2019-08-10T06:07:09Z</time>
      </trkpt>
      <trkpt lat="44.13884" lon="7.23466">
        <ele>2019.7</ele>
        <time>2019-08-10T06:07:24Z</time>
      </trkpt>
      <trkpt lat="44.13902" lon="7.23463">
        <ele>2018.3</ele>
        <time>2019-08-10T06:07:39Z</time>
      </trkpt>
      <trkpt lat="44.13918" lon="7.23449">
        <ele>2017.4</ele>
        <time>2019-08-10T06:07:55Z</time>
      </trkpt>
      <trkpt lat="44.13932" lon="7.23431">
        <ele>2018.4</ele>
        <time>2019-08-10T06:08:10Z</time>
      </trkpt>
      <trkpt lat="44.13948" lon="7.23417">
        <ele>2018.4</ele>
        <time>2019-08-10T06:08:28Z</time>
      </trkpt>
      <trkpt lat="44.13963" lon="7.23402">
        <ele>2018.4</ele>
        <time>2019-08-10T06:08:45Z</time>
      </trkpt>
      <trkpt lat="44.13977" lon="7.23384">
        <ele>2018.4</ele>
        <time>2019-08-10T06:08:59Z</time>
      </trkpt>
      <trkpt lat="44.13989" lon="7.23364">
        <ele>2018.3</ele>
        <time>2019-08-10T06:09:14Z</time>
      </trkpt>
      <trkpt lat="44.13999" lon="7.23343">
        <ele>2018.5</ele>
        <time>2019-08-10T06:09:28Z</time>
      </trkpt>
      <trkpt lat="44.14012" lon="7.23324">
        <ele>2019.3</ele>
        <time>2019-08-10T06:09:42Z</time>
      </trkpt>
      <trkpt lat="44.14025" lon="7.23317">
        <ele>2020.1</ele>
        <time>2019-08-10T06:09:52Z</time>
      </trkpt>
      <trkpt lat="44.14036" lon="7.23325">
        <ele>2021.2</ele>
        <time>2019-08-10T06:10:00Z</time>
      </trkpt>
      <trkpt lat="44.14042" lon="7.23337">
        <ele>2022.4</ele>
        <time>2019-08-10T06:10:33Z</time>
      </trkpt>
      <trkpt lat="44.1405" lon="7.23361">
        <ele>2024.6</ele>
        <time>2019-08-10T06:10:48Z</time>
      </trkpt>
      <trkpt lat="44.14059" lon="7.23383">
        <ele>2026.8</ele>
        <time>2019-08-10T06:11:04Z</time>
      </trkpt>
      <trkpt lat="44.14074" lon="7.23399">
        <ele>2028.7</ele>
        <time>2019-08-10T06:11:18Z</time>
      </trkpt>
      <trkpt lat="44.14084" lon="7.2342">
        <ele>2030.5</ele>
        <time>2019-08-10T06:11:33Z</time>
      </trkpt>
      <trkpt lat="44.14094" lon="7.23442">
        <ele>2032.2</ele>
        <time>2019-08-10T06:11:49Z</time>
      </trkpt>
      <trkpt lat="44.14106" lon="7.23461">
        <ele>2033.9</ele>
        <time>2019-08-10T06:12:09Z</time>
      </trkpt>
      <trkpt lat="44.14121" lon="7.23475">
        <ele>2035.2</ele>
        <time>2019-08-10T06:12:27Z</time>
      </trkpt>
      <trkpt lat="44.14138" lon="7.23465">
        <ele>2036.3</ele>
        <time>2019-08-10T06:12:43Z</time>
      </trkpt>
      <trkpt lat="44.14156" lon="7.23461">
        <ele>2036.6</ele>
        <time>2019-08-10T06:13:01Z</time>
      </trkpt>
      <trkpt lat="44.14174" lon="7.23467">
        <ele>2036.7</ele>
        <time>2019-08-10T06:13:13Z</time>
      </trkpt>
      <trkpt lat="44.14192" lon="7.23472">
        <ele>2036.9</ele>
        <time>2019-08-10T06:13:27Z</time>
      </trkpt>
      <trkpt lat="44.14207" lon="7.23485">
        <ele>2038.2</ele>
        <time>2019-08-10T06:13:36Z</time>
      </trkpt>
      <trkpt lat="44.14223" lon="7.23499">
        <ele>2040.2</ele>
        <time>2019-08-10T06:13:48Z</time>
      </trkpt>
      <trkpt lat="44.14242" lon="7.235">
        <ele>2042.5</ele>
        <time>2019-08-10T06:14:03Z</time>
      </trkpt>
      <trkpt lat="44.1426" lon="7.23507">
        <ele>2044.8</ele>
        <time>2019-08-10T06:14:19Z</time>
      </trkpt>
      <trkpt lat="44.14278" lon="7.2351">
        <ele>2046.4</ele>
        <time>2019-08-10T06:14:36Z</time>
      </trkpt>
      <trkpt lat="44.14297" lon="7.23507">
        <ele>2047.6</ele>
        <time>2019-08-10T06:14:52Z</time>
      </trkpt>
      <trkpt lat="44.14315" lon="7.23501">
        <ele>2048.8</ele>
        <time>2019-08-10T06:15:10Z</time>
      </trkpt>
      <trkpt lat="44.14333" lon="7.23493">
        <ele>2050</ele>
        <time>2019-08-10T06:15:28Z</time>
      </trkpt>
      <trkpt lat="44.14353" lon="7.23485">
        <ele>2050.4</ele>
        <time>2019-08-10T06:15:40Z</time>
      </trkpt>
      <trkpt lat="44.1437" lon="7.23473">
        <ele>2050.7</ele>
        <time>2019-08-10T06:15:52Z</time>
      </trkpt>
      <trkpt lat="44.14387" lon="7.23463">
        <ele>2051.4</ele>
        <time>2019-08-10T06:16:08Z</time>
      </trkpt>
      <trkpt lat="44.14404" lon="7.23453">
        <ele>2052.3</ele>
        <time>2019-08-10T06:16:25Z</time>
      </trkpt>
      <trkpt lat="44.1442" lon="7.23441">
        <ele>2053</ele>
        <time>2019-08-10T06:16:38Z</time>
      </trkpt>
      <trkpt lat="44.14438" lon="7.23434">
        <ele>2053.2</ele>
        <time>2019-08-10T06:16:53Z</time>
      </trkpt>
      <trkpt lat="44.14455" lon="7.23443">
        <ele>2055.2</ele>
        <time>2019-08-10T06:17:05Z</time>
      </trkpt>
      <trkpt lat="44.14465" lon="7.23452">
        <ele>2058.1</ele>
        <time>2019-08-10T06:17:13Z</time>
      </trkpt>
      <trkpt lat="44.1448" lon="7.23465">
        <ele>2063.5</ele>
        <time>2019-08-10T06:17:32Z</time>
      </trkpt>
      <trkpt lat="44.14481" lon="7.23465">
        <ele>2063.4</ele>
        <time>2019-08-10T06:17:34Z</time>
      </trkpt>
      <trkpt lat="44.14481" lon="7.23462">
        <ele>2063.4</ele>
        <time>2019-08-10T06:17:39Z</time>
      </trkpt>
      <trkpt lat="44.14481" lon="7.23459">
        <ele>2063.3</ele>
        <time>2019-08-10T06:17:42Z</time>
      </trkpt>
      <trkpt lat="44.14473" lon="7.23447">
        <ele>2063.1</ele>
        <time>2019-08-10T06:17:55Z</time>
      </trkpt>
      <trkpt lat="44.14476" lon="7.23427">
        <ele>2062.9</ele>
        <time>2019-08-10T06:18:13Z</time>
      </trkpt>
      <trkpt lat="44.14491" lon="7.23412">
        <ele>2062.4</ele>
        <time>2019-08-10T06:18:26Z</time>
      </trkpt>
      <trkpt lat="44.14495" lon="7.23407">
        <ele>2062.3</ele>
        <time>2019-08-10T06:18:30Z</time>
      </trkpt>
      <trkpt lat="44.14499" lon="7.23395">
        <ele>2062</ele>
        <time>2019-08-10T06:18:38Z</time>
      </trkpt>
      <trkpt lat="44.14508" lon="7.23373">
        <ele>2061.5</ele>
        <time>2019-08-10T06:18:54Z</time>
      </trkpt>
      <trkpt lat="44.14524" lon="7.23361">
        <ele>2061.1</ele>
        <time>2019-08-10T06:19:08Z</time>
      </trkpt>
      <trkpt lat="44.1453" lon="7.23357">
        <ele>2062.7</ele>
        <time>2019-08-10T06:19:14Z</time>
      </trkpt>
      <trkpt lat="44.14539" lon="7.23357">
        <ele>2064.8</ele>
        <time>2019-08-10T06:19:24Z</time>
      </trkpt>
      <trkpt lat="44.14558" lon="7.23355">
        <ele>2068.5</ele>
        <time>2019-08-10T06:19:42Z</time>
      </trkpt>
      <trkpt lat="44.14562" lon="7.23357">
        <ele>2069.3</ele>
        <time>2019-08-10T06:19:47Z</time>
      </trkpt>
      <trkpt lat="44.14579" lon="7.23364">
        <ele>2072.1</ele>
        <time>2019-08-10T06:20:02Z</time>
      </trkpt>
      <trkpt lat="44.14597" lon="7.2337">
        <ele>2074.5</ele>
        <time>2019-08-10T06:20:23Z</time>
      </trkpt>
      <trkpt lat="44.14597" lon="7.23371">
        <ele>2074.7</ele>
        <time>2019-08-10T06:20:24Z</time>
      </trkpt>
      <trkpt lat="44.14612" lon="7.23384">
        <ele>2078.7</ele>
        <time>2019-08-10T06:20:44Z</time>
      </trkpt>
      <trkpt lat="44.14618" lon="7.23386">
        <ele>2080</ele>
        <time>2019-08-10T06:20:52Z</time>
      </trkpt>
      <trkpt lat="44.14626" lon="7.23397">
        <ele>2082.9</ele>
        <time>2019-08-10T06:21:08Z</time>
      </trkpt>
      <trkpt lat="44.14628" lon="7.234">
        <ele>2083.6</ele>
        <time>2019-08-10T06:21:12Z</time>
      </trkpt>
      <trkpt lat="44.14629" lon="7.23403">
        <ele>2084.5</ele>
        <time>2019-08-10T06:21:15Z</time>
      </trkpt>
      <trkpt lat="44.1464" lon="7.23422">
        <ele>2089.8</ele>
        <time>2019-08-10T06:21:39Z</time>
      </trkpt>
      <trkpt lat="44.14655" lon="7.23436">
        <ele>2096</ele>
        <time>2019-08-10T06:21:57Z</time>
      </trkpt>
      <trkpt lat="44.14667" lon="7.23446">
        <ele>2100.7</ele>
        <time>2019-08-10T06:22:18Z</time>
      </trkpt>
      <trkpt lat="44.14674" lon="7.23447">
        <ele>2102.4</ele>
        <time>2019-08-10T06:22:25Z</time>
      </trkpt>
      <trkpt lat="44.14674" lon="7.23448">
        <ele>2102.6</ele>
        <time>2019-08-10T06:22:29Z</time>
      </trkpt>
      <trkpt lat="44.14684" lon="7.23466">
        <ele>2107.1</ele>
        <time>2019-08-10T06:23:00Z</time>
      </trkpt>
      <trkpt lat="44.14684" lon="7.2347">
        <ele>2107.8</ele>
        <time>2019-08-10T06:23:03Z</time>
      </trkpt>
      <trkpt lat="44.14683" lon="7.23473">
        <ele>2108.5</ele>
        <time>2019-08-10T06:23:08Z</time>
      </trkpt>
      <trkpt lat="44.14685" lon="7.23479">
        <ele>2110</ele>
        <time>2019-08-10T06:23:13Z</time>
      </trkpt>
      <trkpt lat="44.14689" lon="7.23499">
        <ele>2113.6</ele>
        <time>2019-08-10T06:23:31Z</time>
      </trkpt>
      <trkpt lat="44.14689" lon="7.2351">
        <ele>2115</ele>
        <time>2019-08-10T06:23:41Z</time>
      </trkpt>
      <trkpt lat="44.14688" lon="7.23513">
        <ele>2115.3</ele>
        <time>2019-08-10T06:23:43Z</time>
      </trkpt>
      <trkpt lat="44.14678" lon="7.23527">
        <ele>2117</ele>
        <time>2019-08-10T06:23:56Z</time>
      </trkpt>
      <trkpt lat="44.14676" lon="7.23531">
        <ele>2117.5</ele>
        <time>2019-08-10T06:24:02Z</time>
      </trkpt>
      <trkpt lat="44.14674" lon="7.23532">
        <ele>2117.8</ele>
        <time>2019-08-10T06:24:05Z</time>
      </trkpt>
      <trkpt lat="44.14673" lon="7.23534">
        <ele>2118</ele>
        <time>2019-08-10T06:24:07Z</time>
      </trkpt>
      <trkpt lat="44.14667" lon="7.23538">
        <ele>2118.9</ele>
        <time>2019-08-10T06:24:14Z</time>
      </trkpt>
      <trkpt lat="44.14662" lon="7.2354">
        <ele>2119.3</ele>
        <time>2019-08-10T06:24:18Z</time>
      </trkpt>
      <trkpt lat="44.14652" lon="7.23547">
        <ele>2120.4</ele>
        <time>2019-08-10T06:24:29Z</time>
      </trkpt>
      <trkpt lat="44.14641" lon="7.23567">
        <ele>2122.9</ele>
        <time>2019-08-10T06:24:47Z</time>
      </trkpt>
      <trkpt lat="44.14637" lon="7.2359">
        <ele>2125.8</ele>
        <time>2019-08-10T06:25:04Z</time>
      </trkpt>
      <trkpt lat="44.14639" lon="7.23594">
        <ele>2126.1</ele>
        <time>2019-08-10T06:25:07Z</time>
      </trkpt>
      <trkpt lat="44.14644" lon="7.23597">
        <ele>2126.6</ele>
        <time>2019-08-10T06:25:15Z</time>
      </trkpt>
      <trkpt lat="44.1465" lon="7.23598">
        <ele>2127.1</ele>
        <time>2019-08-10T06:25:21Z</time>
      </trkpt>
      <trkpt lat="44.14668" lon="7.23605">
        <ele>2128.8</ele>
        <time>2019-08-10T06:25:37Z</time>
      </trkpt>
      <trkpt lat="44.14686" lon="7.23602">
        <ele>2130</ele>
        <time>2019-08-10T06:25:54Z</time>
      </trkpt>
      <trkpt lat="44.14703" lon="7.23594">
        <ele>2131.9</ele>
        <time>2019-08-10T06:26:09Z</time>
      </trkpt>
      <trkpt lat="44.14714" lon="7.23592">
        <ele>2133.2</ele>
        <time>2019-08-10T06:26:21Z</time>
      </trkpt>
      <trkpt lat="44.14731" lon="7.23585">
        <ele>2136.5</ele>
        <time>2019-08-10T06:26:38Z</time>
      </trkpt>
      <trkpt lat="44.14749" lon="7.23582">
        <ele>2139.4</ele>
        <time>2019-08-10T06:26:54Z</time>
      </trkpt>
      <trkpt lat="44.14767" lon="7.23591">
        <ele>2142.7</ele>
        <time>2019-08-10T06:27:08Z</time>
      </trkpt>
      <trkpt lat="44.14784" lon="7.23598">
        <ele>2146.4</ele>
        <time>2019-08-10T06:27:21Z</time>
      </trkpt>
      <trkpt lat="44.14803" lon="7.23604">
        <ele>2150.8</ele>
        <time>2019-08-10T06:27:37Z</time>
      </trkpt>
      <trkpt lat="44.1482" lon="7.23609">
        <ele>2155.2</ele>
        <time>2019-08-10T06:27:52Z</time>
      </trkpt>
      <trkpt lat="44.14826" lon="7.2361">
        <ele>2156.1</ele>
        <time>2019-08-10T06:27:58Z</time>
      </trkpt>
      <trkpt lat="44.14835" lon="7.23602">
        <ele>2158.2</ele>
        <time>2019-08-10T06:28:13Z</time>
      </trkpt>
      <trkpt lat="44.14839" lon="7.23601">
        <ele>2159</ele>
        <time>2019-08-10T06:28:18Z</time>
      </trkpt>
      <trkpt lat="44.14857" lon="7.23597">
        <ele>2162.9</ele>
        <time>2019-08-10T06:28:39Z</time>
      </trkpt>
      <trkpt lat="44.14874" lon="7.23585">
        <ele>2165.9</ele>
        <time>2019-08-10T06:28:56Z</time>
      </trkpt>
      <trkpt lat="44.1489" lon="7.23573">
        <ele>2168.3</ele>
        <time>2019-08-10T06:29:14Z</time>
      </trkpt>
      <trkpt lat="44.14907" lon="7.23563">
        <ele>2170.8</ele>
        <time>2019-08-10T06:29:31Z</time>
      </trkpt>
      <trkpt lat="44.14925" lon="7.23557">
        <ele>2174.9</ele>
        <time>2019-08-10T06:29:46Z</time>
      </trkpt>
      <trkpt lat="44.14942" lon="7.2355">
        <ele>2177.8</ele>
        <time>2019-08-10T06:30:07Z</time>
      </trkpt>
      <trkpt lat="44.14944" lon="7.23549">
        <ele>2178</ele>
        <time>2019-08-10T06:30:09Z</time>
      </trkpt>
      <trkpt lat="44.14958" lon="7.23562">
        <ele>2181</ele>
        <time>2019-08-10T06:30:27Z</time>
      </trkpt>
      <trkpt lat="44.14975" lon="7.23571">
        <ele>2183.5</ele>
        <time>2019-08-10T06:30:43Z</time>
      </trkpt>
      <trkpt lat="44.14992" lon="7.23579">
        <ele>2185.5</ele>
        <time>2019-08-10T06:30:58Z</time>
      </trkpt>
      <trkpt lat="44.15008" lon="7.23594">
        <ele>2187.6</ele>
        <time>2019-08-10T06:31:14Z</time>
      </trkpt>
      <trkpt lat="44.15024" lon="7.23606">
        <ele>2189</ele>
        <time>2019-08-10T06:31:28Z</time>
      </trkpt>
      <trkpt lat="44.15041" lon="7.23619">
        <ele>2189.9</ele>
        <time>2019-08-10T06:31:41Z</time>
      </trkpt>
      <trkpt lat="44.15053" lon="7.23629">
        <ele>2191.2</ele>
        <time>2019-08-10T06:31:51Z</time>
      </trkpt>
      <trkpt lat="44.15058" lon="7.23655">
        <ele>2193.3</ele>
        <time>2019-08-10T06:32:03Z</time>
      </trkpt>
      <trkpt lat="44.15057" lon="7.23663">
        <ele>2194</ele>
        <time>2019-08-10T06:32:08Z</time>
      </trkpt>
      <trkpt lat="44.15055" lon="7.23676">
        <ele>2195.2</ele>
        <time>2019-08-10T06:32:16Z</time>
      </trkpt>
      <trkpt lat="44.15051" lon="7.23701">
        <ele>2198.4</ele>
        <time>2019-08-10T06:32:30Z</time>
      </trkpt>
      <trkpt lat="44.15057" lon="7.23712">
        <ele>2200</ele>
        <time>2019-08-10T06:32:37Z</time>
      </trkpt>
      <trkpt lat="44.15065" lon="7.23723">
        <ele>2201.9</ele>
        <time>2019-08-10T06:32:52Z</time>
      </trkpt>
      <trkpt lat="44.15065" lon="7.23727">
        <ele>2202.4</ele>
        <time>2019-08-10T06:32:56Z</time>
      </trkpt>
      <trkpt lat="44.15066" lon="7.23737">
        <ele>2203.5</ele>
        <time>2019-08-10T06:33:03Z</time>
      </trkpt>
      <trkpt lat="44.15068" lon="7.23741">
        <ele>2204.1</ele>
        <time>2019-08-10T06:33:07Z</time>
      </trkpt>
      <trkpt lat="44.15073" lon="7.23743">
        <ele>2204.9</ele>
        <time>2019-08-10T06:33:12Z</time>
      </trkpt>
      <trkpt lat="44.15077" lon="7.23741">
        <ele>2205.4</ele>
        <time>2019-08-10T06:33:16Z</time>
      </trkpt>
      <trkpt lat="44.15092" lon="7.23726">
        <ele>2208.1</ele>
        <time>2019-08-10T06:33:34Z</time>
      </trkpt>
      <trkpt lat="44.15096" lon="7.23728">
        <ele>2208.9</ele>
        <time>2019-08-10T06:33:44Z</time>
      </trkpt>
      <trkpt lat="44.15095" lon="7.23754">
        <ele>2212.2</ele>
        <time>2019-08-10T06:34:00Z</time>
      </trkpt>
      <trkpt lat="44.15099" lon="7.23778">
        <ele>2215.2</ele>
        <time>2019-08-10T06:34:17Z</time>
      </trkpt>
      <trkpt lat="44.15109" lon="7.23789">
        <ele>2217.7</ele>
        <time>2019-08-10T06:34:34Z</time>
      </trkpt>
      <trkpt lat="44.1511" lon="7.23784">
        <ele>2218.3</ele>
        <time>2019-08-10T06:34:38Z</time>
      </trkpt>
      <trkpt lat="44.1511" lon="7.2378">
        <ele>2218.9</ele>
        <time>2019-08-10T06:34:41Z</time>
      </trkpt>
      <trkpt lat="44.15119" lon="7.23757">
        <ele>2220.6</ele>
        <time>2019-08-10T06:34:54Z</time>
      </trkpt>
      <trkpt lat="44.15126" lon="7.23744">
        <ele>2221.5</ele>
        <time>2019-08-10T06:35:01Z</time>
      </trkpt>
      <trkpt lat="44.15128" lon="7.23747">
        <ele>2221.8</ele>
        <time>2019-08-10T06:35:04Z</time>
      </trkpt>
      <trkpt lat="44.1513" lon="7.23773">
        <ele>2224.2</ele>
        <time>2019-08-10T06:35:17Z</time>
      </trkpt>
      <trkpt lat="44.15135" lon="7.23778">
        <ele>2225.4</ele>
        <time>2019-08-10T06:35:23Z</time>
      </trkpt>
      <trkpt lat="44.15152" lon="7.23765">
        <ele>2228.2</ele>
        <time>2019-08-10T06:35:40Z</time>
      </trkpt>
      <trkpt lat="44.1516" lon="7.23761">
        <ele>2229.3</ele>
        <time>2019-08-10T06:35:48Z</time>
      </trkpt>
      <trkpt lat="44.15161" lon="7.23763">
        <ele>2229.7</ele>
        <time>2019-08-10T06:35:50Z</time>
      </trkpt>
      <trkpt lat="44.15157" lon="7.23788">
        <ele>2233.4</ele>
        <time>2019-08-10T06:36:05Z</time>
      </trkpt>
      <trkpt lat="44.15158" lon="7.23793">
        <ele>2234.1</ele>
        <time>2019-08-10T06:36:09Z</time>
      </trkpt>
      <trkpt lat="44.15159" lon="7.23802">
        <ele>2235.1</ele>
        <time>2019-08-10T06:36:18Z</time>
      </trkpt>
      <trkpt lat="44.15161" lon="7.23804">
        <ele>2235.4</ele>
        <time>2019-08-10T06:36:20Z</time>
      </trkpt>
      <trkpt lat="44.15167" lon="7.23828">
        <ele>2237.6</ele>
        <time>2019-08-10T06:36:32Z</time>
      </trkpt>
      <trkpt lat="44.15167" lon="7.23853">
        <ele>2239.8</ele>
        <time>2019-08-10T06:36:41Z</time>
      </trkpt>
      <trkpt lat="44.15162" lon="7.23878">
        <ele>2241.9</ele>
        <time>2019-08-10T06:36:52Z</time>
      </trkpt>
      <trkpt lat="44.15157" lon="7.23904">
        <ele>2245</ele>
        <time>2019-08-10T06:37:04Z</time>
      </trkpt>
      <trkpt lat="44.15155" lon="7.23916">
        <ele>2247.2</ele>
        <time>2019-08-10T06:37:15Z</time>
      </trkpt>
      <trkpt lat="44.15155" lon="7.23916">
        <ele>2247.4</ele>
        <time>2019-08-10T06:37:17Z</time>
      </trkpt>
      <trkpt lat="44.15163" lon="7.2391">
        <ele>2250.1</ele>
        <time>2019-08-10T06:37:26Z</time>
      </trkpt>
      <trkpt lat="44.15166" lon="7.23914">
        <ele>2251.4</ele>
        <time>2019-08-10T06:37:30Z</time>
      </trkpt>
      <trkpt lat="44.15162" lon="7.23924">
        <ele>2253.5</ele>
        <time>2019-08-10T06:37:38Z</time>
      </trkpt>
      <trkpt lat="44.15155" lon="7.23948">
        <ele>2258.8</ele>
        <time>2019-08-10T06:37:59Z</time>
      </trkpt>
      <trkpt lat="44.15152" lon="7.23974">
        <ele>2263.9</ele>
        <time>2019-08-10T06:38:19Z</time>
      </trkpt>
      <trkpt lat="44.15148" lon="7.23998">
        <ele>2268.2</ele>
        <time>2019-08-10T06:38:38Z</time>
      </trkpt>
      <trkpt lat="44.15151" lon="7.24009">
        <ele>2269.7</ele>
        <time>2019-08-10T06:38:48Z</time>
      </trkpt>
      <trkpt lat="44.15151" lon="7.2401">
        <ele>2269.9</ele>
        <time>2019-08-10T06:38:50Z</time>
      </trkpt>
      <trkpt lat="44.15157" lon="7.24032">
        <ele>2273.3</ele>
        <time>2019-08-10T06:39:12Z</time>
      </trkpt>
      <trkpt lat="44.15156" lon="7.24038">
        <ele>2274.4</ele>
        <time>2019-08-10T06:40:40Z</time>
      </trkpt>
      <trkpt lat="44.15161" lon="7.24055">
        <ele>2275</ele>
        <time>2019-08-10T06:40:52Z</time>
      </trkpt>
      <trkpt lat="44.15157" lon="7.2405">
        <ele>2275.1</ele>
        <time>2019-08-10T06:43:32Z</time>
      </trkpt>
      <trkpt lat="44.1516" lon="7.24059">
        <ele>2275.2</ele>
        <time>2019-08-10T06:44:03Z</time>
      </trkpt>
      <trkpt lat="44.15158" lon="7.24058">
        <ele>2275.3</ele>
        <time>2019-08-10T06:44:24Z</time>
      </trkpt>
      <trkpt lat="44.15157" lon="7.24066">
        <ele>2275.2</ele>
        <time>2019-08-10T06:45:45Z</time>
      </trkpt>
      <trkpt lat="44.15161" lon="7.24092">
        <ele>2275.1</ele>
        <time>2019-08-10T06:46:08Z</time>
      </trkpt>
      <trkpt lat="44.15161" lon="7.24103">
        <ele>2275.1</ele>
        <time>2019-08-10T06:46:17Z</time>
      </trkpt>
      <trkpt lat="44.15161" lon="7.24118">
        <ele>2275.3</ele>
        <time>2019-08-10T06:46:50Z</time>
      </trkpt>
      <trkpt lat="44.15154" lon="7.24141">
        <ele>2276.2</ele>
        <time>2019-08-10T06:47:00Z</time>
      </trkpt>
      <trkpt lat="44.15146" lon="7.24167">
        <ele>2277.6</ele>
        <time>2019-08-10T06:47:10Z</time>
      </trkpt>
      <trkpt lat="44.15142" lon="7.24192">
        <ele>2279.6</ele>
        <time>2019-08-10T06:47:25Z</time>
      </trkpt>
      <trkpt lat="44.15144" lon="7.24217">
        <ele>2282</ele>
        <time>2019-08-10T06:47:45Z</time>
      </trkpt>
      <trkpt lat="44.15147" lon="7.24223">
        <ele>2282.7</ele>
        <time>2019-08-10T06:47:52Z</time>
      </trkpt>
      <trkpt lat="44.15159" lon="7.24242">
        <ele>2285.1</ele>
        <time>2019-08-10T06:48:09Z</time>
      </trkpt>
      <trkpt lat="44.15167" lon="7.24254">
        <ele>2286.7</ele>
        <time>2019-08-10T06:48:22Z</time>
      </trkpt>
      <trkpt lat="44.15168" lon="7.2426">
        <ele>2287.2</ele>
        <time>2019-08-10T06:48:27Z</time>
      </trkpt>
      <trkpt lat="44.15167" lon="7.24266">
        <ele>2287.8</ele>
        <time>2019-08-10T06:48:32Z</time>
      </trkpt>
      <trkpt lat="44.15168" lon="7.24277">
        <ele>2288.7</ele>
        <time>2019-08-10T06:48:41Z</time>
      </trkpt>
      <trkpt lat="44.15169" lon="7.24279">
        <ele>2288.9</ele>
        <time>2019-08-10T06:48:43Z</time>
      </trkpt>
      <trkpt lat="44.15174" lon="7.2428">
        <ele>2289.4</ele>
        <time>2019-08-10T06:48:50Z</time>
      </trkpt>
      <trkpt lat="44.15177" lon="7.24279">
        <ele>2289.7</ele>
        <time>2019-08-10T06:48:53Z</time>
      </trkpt>
      <trkpt lat="44.15194" lon="7.24289">
        <ele>2291.8</ele>
        <time>2019-08-10T06:49:11Z</time>
      </trkpt>
      <trkpt lat="44.15195" lon="7.2429">
        <ele>2292</ele>
        <time>2019-08-10T06:49:12Z</time>
      </trkpt>
      <trkpt lat="44.15205" lon="7.24311">
        <ele>2294.4</ele>
        <time>2019-08-10T06:49:30Z</time>
      </trkpt>
      <trkpt lat="44.15215" lon="7.24323">
        <ele>2296.3</ele>
        <time>2019-08-10T06:49:45Z</time>
      </trkpt>
      <trkpt lat="44.15216" lon="7.24329">
        <ele>2296.8</ele>
        <time>2019-08-10T06:49:50Z</time>
      </trkpt>
      <trkpt lat="44.15212" lon="7.24355">
        <ele>2298.8</ele>
        <time>2019-08-10T06:50:06Z</time>
      </trkpt>
      <trkpt lat="44.1521" lon="7.24381">
        <ele>2300.5</ele>
        <time>2019-08-10T06:50:21Z</time>
      </trkpt>
      <trkpt lat="44.15209" lon="7.24406">
        <ele>2302.2</ele>
        <time>2019-08-10T06:50:34Z</time>
      </trkpt>
      <trkpt lat="44.15213" lon="7.2443">
        <ele>2303.8</ele>
        <time>2019-08-10T06:50:44Z</time>
      </trkpt>
      <trkpt lat="44.15224" lon="7.24451">
        <ele>2305</ele>
        <time>2019-08-10T06:50:54Z</time>
      </trkpt>
      <trkpt lat="44.1523" lon="7.24475">
        <ele>2305.4</ele>
        <time>2019-08-10T06:51:04Z</time>
      </trkpt>
      <trkpt lat="44.15233" lon="7.24502">
        <ele>2305.6</ele>
        <time>2019-08-10T06:51:12Z</time>
      </trkpt>
      <trkpt lat="44.15232" lon="7.24528">
        <ele>2306.7</ele>
        <time>2019-08-10T06:51:22Z</time>
      </trkpt>
      <trkpt lat="44.15231" lon="7.24554">
        <ele>2308.6</ele>
        <time>2019-08-10T06:51:29Z</time>
      </trkpt>
      <trkpt lat="44.15229" lon="7.2458">
        <ele>2311.2</ele>
        <time>2019-08-10T06:51:39Z</time>
      </trkpt>
      <trkpt lat="44.15227" lon="7.24605">
        <ele>2313.8</ele>
        <time>2019-08-10T06:51:56Z</time>
      </trkpt>
      <trkpt lat="44.15225" lon="7.24615">
        <ele>2314.5</ele>
        <time>2019-08-10T06:52:05Z</time>
      </trkpt>
      <trkpt lat="44.15227" lon="7.24619">
        <ele>2314.7</ele>
        <time>2019-08-10T06:52:10Z</time>
      </trkpt>
      <trkpt lat="44.15229" lon="7.24622">
        <ele>2314.8</ele>
        <time>2019-08-10T06:52:12Z</time>
      </trkpt>
      <trkpt lat="44.15228" lon="7.24647">
        <ele>2314.5</ele>
        <time>2019-08-10T06:52:29Z</time>
      </trkpt>
      <trkpt lat="44.15212" lon="7.24661">
        <ele>2313.5</ele>
        <time>2019-08-10T06:52:41Z</time>
      </trkpt>
      <trkpt lat="44.15206" lon="7.24667">
        <ele>2313</ele>
        <time>2019-08-10T06:52:46Z</time>
      </trkpt>
      <trkpt lat="44.15206" lon="7.24671">
        <ele>2312.8</ele>
        <time>2019-08-10T06:52:48Z</time>
      </trkpt>
      <trkpt lat="44.15204" lon="7.24675">
        <ele>2312.5</ele>
        <time>2019-08-10T06:52:52Z</time>
      </trkpt>
      <trkpt lat="44.15193" lon="7.24695">
        <ele>2311.6</ele>
        <time>2019-08-10T06:53:01Z</time>
      </trkpt>
      <trkpt lat="44.15183" lon="7.24718">
        <ele>2312.1</ele>
        <time>2019-08-10T06:53:09Z</time>
      </trkpt>
      <trkpt lat="44.1517" lon="7.24738">
        <ele>2314.1</ele>
        <time>2019-08-10T06:53:17Z</time>
      </trkpt>
      <trkpt lat="44.15158" lon="7.24758">
        <ele>2317.4</ele>
        <time>2019-08-10T06:53:27Z</time>
      </trkpt>
      <trkpt lat="44.15156" lon="7.24783">
        <ele>2321</ele>
        <time>2019-08-10T06:53:44Z</time>
      </trkpt>
      <trkpt lat="44.15154" lon="7.24789">
        <ele>2321.9</ele>
        <time>2019-08-10T06:53:50Z</time>
      </trkpt>
      <trkpt lat="44.15153" lon="7.2479">
        <ele>2322.1</ele>
        <time>2019-08-10T06:53:52Z</time>
      </trkpt>
      <trkpt lat="44.15152" lon="7.24818">
        <ele>2324.9</ele>
        <time>2019-08-10T06:54:09Z</time>
      </trkpt>
      <trkpt lat="44.15151" lon="7.24843">
        <ele>2327.8</ele>
        <time>2019-08-10T06:54:22Z</time>
      </trkpt>
      <trkpt lat="44.15149" lon="7.24848">
        <ele>2328.5</ele>
        <time>2019-08-10T06:54:27Z</time>
      </trkpt>
      <trkpt lat="44.15147" lon="7.24864">
        <ele>2330.6</ele>
        <time>2019-08-10T06:54:39Z</time>
      </trkpt>
      <trkpt lat="44.15133" lon="7.24879">
        <ele>2334.2</ele>
        <time>2019-08-10T06:54:56Z</time>
      </trkpt>
      <trkpt lat="44.15119" lon="7.24894">
        <ele>2337.5</ele>
        <time>2019-08-10T06:55:15Z</time>
      </trkpt>
      <trkpt lat="44.1512" lon="7.24894">
        <ele>2337.6</ele>
        <time>2019-08-10T06:55:22Z</time>
      </trkpt>
      <trkpt lat="44.15132" lon="7.24895">
        <ele>2339.4</ele>
        <time>2019-08-10T06:56:18Z</time>
      </trkpt>
      <trkpt lat="44.1515" lon="7.24898">
        <ele>2341.6</ele>
        <time>2019-08-10T06:56:34Z</time>
      </trkpt>
      <trkpt lat="44.15168" lon="7.24889">
        <ele>2344.2</ele>
        <time>2019-08-10T06:56:51Z</time>
      </trkpt>
      <trkpt lat="44.15176" lon="7.24881">
        <ele>2345.5</ele>
        <time>2019-08-10T06:57:04Z</time>
      </trkpt>
      <trkpt lat="44.15175" lon="7.24886">
        <ele>2346</ele>
        <time>2019-08-10T06:57:07Z</time>
      </trkpt>
      <trkpt lat="44.15168" lon="7.2491">
        <ele>2348.3</ele>
        <time>2019-08-10T06:57:23Z</time>
      </trkpt>
      <trkpt lat="44.15156" lon="7.24931">
        <ele>2350.8</ele>
        <time>2019-08-10T06:57:39Z</time>
      </trkpt>
      <trkpt lat="44.15158" lon="7.24934">
        <ele>2351.2</ele>
        <time>2019-08-10T06:57:44Z</time>
      </trkpt>
      <trkpt lat="44.15162" lon="7.24933">
        <ele>2351.9</ele>
        <time>2019-08-10T06:57:48Z</time>
      </trkpt>
      <trkpt lat="44.15164" lon="7.24933">
        <ele>2352.3</ele>
        <time>2019-08-10T06:57:52Z</time>
      </trkpt>
      <trkpt lat="44.1517" lon="7.24932">
        <ele>2353.2</ele>
        <time>2019-08-10T06:58:31Z</time>
      </trkpt>
      <trkpt lat="44.15188" lon="7.24927">
        <ele>2355.6</ele>
        <time>2019-08-10T06:58:46Z</time>
      </trkpt>
      <trkpt lat="44.15194" lon="7.24935">
        <ele>2356.9</ele>
        <time>2019-08-10T06:59:45Z</time>
      </trkpt>
      <trkpt lat="44.15193" lon="7.24937">
        <ele>2357.2</ele>
        <time>2019-08-10T06:59:47Z</time>
      </trkpt>
      <trkpt lat="44.1518" lon="7.24955">
        <ele>2359.5</ele>
        <time>2019-08-10T06:59:57Z</time>
      </trkpt>
      <trkpt lat="44.15166" lon="7.24964">
        <ele>2361.8</ele>
        <time>2019-08-10T07:00:07Z</time>
      </trkpt>
      <trkpt lat="44.15169" lon="7.24967">
        <ele>2362.4</ele>
        <time>2019-08-10T07:00:24Z</time>
      </trkpt>
      <trkpt lat="44.15186" lon="7.24972">
        <ele>2365.2</ele>
        <time>2019-08-10T07:00:35Z</time>
      </trkpt>
      <trkpt lat="44.15193" lon="7.24975">
        <ele>2366.4</ele>
        <time>2019-08-10T07:00:40Z</time>
      </trkpt>
      <trkpt lat="44.15193" lon="7.24977">
        <ele>2366.7</ele>
        <time>2019-08-10T07:00:42Z</time>
      </trkpt>
      <trkpt lat="44.15192" lon="7.24979">
        <ele>2367.2</ele>
        <time>2019-08-10T07:00:44Z</time>
      </trkpt>
      <trkpt lat="44.15184" lon="7.24983">
        <ele>2368.7</ele>
        <time>2019-08-10T07:00:51Z</time>
      </trkpt>
      <trkpt lat="44.1518" lon="7.24988">
        <ele>2369.7</ele>
        <time>2019-08-10T07:01:01Z</time>
      </trkpt>
      <trkpt lat="44.15163" lon="7.24998">
        <ele>2372.5</ele>
        <time>2019-08-10T07:01:20Z</time>
      </trkpt>
      <trkpt lat="44.15146" lon="7.25008">
        <ele>2375.1</ele>
        <time>2019-08-10T07:01:39Z</time>
      </trkpt>
      <trkpt lat="44.15128" lon="7.25016">
        <ele>2377.8</ele>
        <time>2019-08-10T07:01:56Z</time>
      </trkpt>
      <trkpt lat="44.1511" lon="7.2502">
        <ele>2380.1</ele>
        <time>2019-08-10T07:02:11Z</time>
      </trkpt>
      <trkpt lat="44.15107" lon="7.25022">
        <ele>2380.5</ele>
        <time>2019-08-10T07:02:19Z</time>
      </trkpt>
      <trkpt lat="44.15117" lon="7.25032">
        <ele>2381.8</ele>
        <time>2019-08-10T07:02:58Z</time>
      </trkpt>
      <trkpt lat="44.15126" lon="7.2504">
        <ele>2383.4</ele>
        <time>2019-08-10T07:03:12Z</time>
      </trkpt>
      <trkpt lat="44.15142" lon="7.25052">
        <ele>2386.4</ele>
        <time>2019-08-10T07:03:28Z</time>
      </trkpt>
      <trkpt lat="44.15153" lon="7.25075">
        <ele>2389.2</ele>
        <time>2019-08-10T07:03:41Z</time>
      </trkpt>
      <trkpt lat="44.1516" lon="7.25097">
        <ele>2391.3</ele>
        <time>2019-08-10T07:03:56Z</time>
      </trkpt>
      <trkpt lat="44.15162" lon="7.25106">
        <ele>2392</ele>
        <time>2019-08-10T07:04:02Z</time>
      </trkpt>
      <trkpt lat="44.15165" lon="7.251">
        <ele>2392.6</ele>
        <time>2019-08-10T07:04:08Z</time>
      </trkpt>
      <trkpt lat="44.15167" lon="7.25096">
        <ele>2393</ele>
        <time>2019-08-10T07:04:11Z</time>
      </trkpt>
      <trkpt lat="44.15177" lon="7.25082">
        <ele>2395.2</ele>
        <time>2019-08-10T07:04:27Z</time>
      </trkpt>
      <trkpt lat="44.15179" lon="7.25088">
        <ele>2396.1</ele>
        <time>2019-08-10T07:04:33Z</time>
      </trkpt>
      <trkpt lat="44.15183" lon="7.25113">
        <ele>2398.5</ele>
        <time>2019-08-10T07:04:47Z</time>
      </trkpt>
      <trkpt lat="44.15179" lon="7.25139">
        <ele>2400.2</ele>
        <time>2019-08-10T07:04:56Z</time>
      </trkpt>
      <trkpt lat="44.15168" lon="7.25159">
        <ele>2402.7</ele>
        <time>2019-08-10T07:05:10Z</time>
      </trkpt>
      <trkpt lat="44.15162" lon="7.25167">
        <ele>2404.1</ele>
        <time>2019-08-10T07:05:20Z</time>
      </trkpt>
      <trkpt lat="44.15161" lon="7.2517">
        <ele>2404.6</ele>
        <time>2019-08-10T07:05:22Z</time>
      </trkpt>
      <trkpt lat="44.15156" lon="7.25182">
        <ele>2406.4</ele>
        <time>2019-08-10T07:05:33Z</time>
      </trkpt>
      <trkpt lat="44.15157" lon="7.25182">
        <ele>2406.7</ele>
        <time>2019-08-10T07:05:35Z</time>
      </trkpt>
      <trkpt lat="44.15161" lon="7.2518">
        <ele>2407.4</ele>
        <time>2019-08-10T07:05:39Z</time>
      </trkpt>
      <trkpt lat="44.15179" lon="7.25172">
        <ele>2410.6</ele>
        <time>2019-08-10T07:05:54Z</time>
      </trkpt>
      <trkpt lat="44.15196" lon="7.25166">
        <ele>2413.1</ele>
        <time>2019-08-10T07:06:08Z</time>
      </trkpt>
      <trkpt lat="44.15208" lon="7.25146">
        <ele>2415.8</ele>
        <time>2019-08-10T07:06:24Z</time>
      </trkpt>
      <trkpt lat="44.15226" lon="7.25138">
        <ele>2418.3</ele>
        <time>2019-08-10T07:06:40Z</time>
      </trkpt>
      <trkpt lat="44.15229" lon="7.25136">
        <ele>2418.7</ele>
        <time>2019-08-10T07:06:43Z</time>
      </trkpt>
      <trkpt lat="44.15228" lon="7.25147">
        <ele>2420</ele>
        <time>2019-08-10T07:06:52Z</time>
      </trkpt>
      <trkpt lat="44.15228" lon="7.25147">
        <ele>2420</ele>
        <time>2019-08-10T07:06:54Z</time>
      </trkpt>
      <trkpt lat="44.15224" lon="7.25156">
        <ele>2421.4</ele>
        <time>2019-08-10T07:07:08Z</time>
      </trkpt>
      <trkpt lat="44.15226" lon="7.25159">
        <ele>2422</ele>
        <time>2019-08-10T07:07:13Z</time>
      </trkpt>
      <trkpt lat="44.1523" lon="7.25158">
        <ele>2422.9</ele>
        <time>2019-08-10T07:07:17Z</time>
      </trkpt>
      <trkpt lat="44.15241" lon="7.2515">
        <ele>2425.2</ele>
        <time>2019-08-10T07:07:28Z</time>
      </trkpt>
      <trkpt lat="44.15244" lon="7.25149">
        <ele>2425.6</ele>
        <time>2019-08-10T07:07:31Z</time>
      </trkpt>
      <trkpt lat="44.15251" lon="7.25153">
        <ele>2426.8</ele>
        <time>2019-08-10T07:07:40Z</time>
      </trkpt>
      <trkpt lat="44.1525" lon="7.25155">
        <ele>2427</ele>
        <time>2019-08-10T07:07:42Z</time>
      </trkpt>
      <trkpt lat="44.15239" lon="7.25177">
        <ele>2429.6</ele>
        <time>2019-08-10T07:07:54Z</time>
      </trkpt>
      <trkpt lat="44.15229" lon="7.25199">
        <ele>2432.6</ele>
        <time>2019-08-10T07:08:03Z</time>
      </trkpt>
      <trkpt lat="44.15227" lon="7.25205">
        <ele>2433.5</ele>
        <time>2019-08-10T07:08:09Z</time>
      </trkpt>
      <trkpt lat="44.15228" lon="7.25206">
        <ele>2433.8</ele>
        <time>2019-08-10T07:08:11Z</time>
      </trkpt>
      <trkpt lat="44.15233" lon="7.25203">
        <ele>2434.6</ele>
        <time>2019-08-10T07:08:16Z</time>
      </trkpt>
      <trkpt lat="44.15251" lon="7.25204">
        <ele>2437.4</ele>
        <time>2019-08-10T07:08:33Z</time>
      </trkpt>
      <trkpt lat="44.15255" lon="7.25207">
        <ele>2438</ele>
        <time>2019-08-10T07:08:39Z</time>
      </trkpt>
      <trkpt lat="44.15251" lon="7.25224">
        <ele>2440.6</ele>
        <time>2019-08-10T07:09:07Z</time>
      </trkpt>
      <trkpt lat="44.15245" lon="7.25238">
        <ele>2443.1</ele>
        <time>2019-08-10T07:09:18Z</time>
      </trkpt>
      <trkpt lat="44.15235" lon="7.25252">
        <ele>2446.1</ele>
        <time>2019-08-10T07:09:37Z</time>
      </trkpt>
      <trkpt lat="44.15234" lon="7.25261">
        <ele>2447.3</ele>
        <time>2019-08-10T07:09:46Z</time>
      </trkpt>
      <trkpt lat="44.15236" lon="7.25263">
        <ele>2447.7</ele>
        <time>2019-08-10T07:09:48Z</time>
      </trkpt>
      <trkpt lat="44.15237" lon="7.25266">
        <ele>2448.2</ele>
        <time>2019-08-10T07:09:50Z</time>
      </trkpt>
      <trkpt lat="44.15227" lon="7.25269">
        <ele>2450.2</ele>
        <time>2019-08-10T07:10:03Z</time>
      </trkpt>
      <trkpt lat="44.15222" lon="7.25272">
        <ele>2451.1</ele>
        <time>2019-08-10T07:10:11Z</time>
      </trkpt>
      <trkpt lat="44.15233" lon="7.25293">
        <ele>2454.5</ele>
        <time>2019-08-10T07:10:31Z</time>
      </trkpt>
      <trkpt lat="44.15241" lon="7.25306">
        <ele>2457</ele>
        <time>2019-08-10T07:10:50Z</time>
      </trkpt>
      <trkpt lat="44.15239" lon="7.25308">
        <ele>2457.4</ele>
        <time>2019-08-10T07:10:52Z</time>
      </trkpt>
      <trkpt lat="44.15225" lon="7.25319">
        <ele>2460</ele>
        <time>2019-08-10T07:11:12Z</time>
      </trkpt>
      <trkpt lat="44.15223" lon="7.25317">
        <ele>2460.3</ele>
        <time>2019-08-10T07:11:17Z</time>
      </trkpt>
      <trkpt lat="44.15214" lon="7.25306">
        <ele>2456.8</ele>
        <time>2019-08-10T07:11:48Z</time>
      </trkpt>
      <trkpt lat="44.152" lon="7.25289">
        <ele>2450.5</ele>
        <time>2019-08-10T07:12:04Z</time>
      </trkpt>
      <trkpt lat="44.15195" lon="7.25291">
        <ele>2449.5</ele>
        <time>2019-08-10T07:12:11Z</time>
      </trkpt>
      <trkpt lat="44.15198" lon="7.25286">
        <ele>2449.6</ele>
        <time>2019-08-10T07:12:18Z</time>
      </trkpt>
      <trkpt lat="44.15192" lon="7.25281">
        <ele>2446.9</ele>
        <time>2019-08-10T07:12:26Z</time>
      </trkpt>
      <trkpt lat="44.15191" lon="7.25281">
        <ele>2445.8</ele>
        <time>2019-08-10T07:12:29Z</time>
      </trkpt>
      <trkpt lat="44.15187" lon="7.25282">
        <ele>2444.8</ele>
        <time>2019-08-10T07:14:17Z</time>
      </trkpt>
      <trkpt lat="44.15185" lon="7.25283">
        <ele>2445.4</ele>
        <time>2019-08-10T07:16:32Z</time>
      </trkpt>
      <trkpt lat="44.15188" lon="7.25286">
        <ele>2446.2</ele>
        <time>2019-08-10T07:18:26Z</time>
      </trkpt>
      <trkpt lat="44.15198" lon="7.25294">
        <ele>2450.2</ele>
        <time>2019-08-10T07:20:06Z</time>
      </trkpt>
      <trkpt lat="44.15198" lon="7.25294">
        <ele>2450.1</ele>
        <time>2019-08-10T07:20:07Z</time>
      </trkpt>
      <trkpt lat="44.15199" lon="7.25297">
        <ele>2450.6</ele>
        <time>2019-08-10T07:20:11Z</time>
      </trkpt>
      <trkpt lat="44.15201" lon="7.25305">
        <ele>2452.6</ele>
        <time>2019-08-10T07:20:18Z</time>
      </trkpt>
      <trkpt lat="44.15203" lon="7.25307">
        <ele>2452.5</ele>
        <time>2019-08-10T07:20:23Z</time>
      </trkpt>
      <trkpt lat="44.15204" lon="7.25312">
        <ele>2453</ele>
        <time>2019-08-10T07:20:27Z</time>
      </trkpt>
      <trkpt lat="44.1522" lon="7.25321">
        <ele>2458.6</ele>
        <time>2019-08-10T07:20:43Z</time>
      </trkpt>
      <trkpt lat="44.15229" lon="7.25325">
        <ele>2460.6</ele>
        <time>2019-08-10T07:20:55Z</time>
      </trkpt>
      <trkpt lat="44.15229" lon="7.25326">
        <ele>2460.7</ele>
        <time>2019-08-10T07:20:57Z</time>
      </trkpt>
      <trkpt lat="44.15229" lon="7.25333">
        <ele>2461.2</ele>
        <time>2019-08-10T07:21:02Z</time>
      </trkpt>
      <trkpt lat="44.15222" lon="7.25356">
        <ele>2462.5</ele>
        <time>2019-08-10T07:21:17Z</time>
      </trkpt>
      <trkpt lat="44.15227" lon="7.25379">
        <ele>2463.3</ele>
        <time>2019-08-10T07:21:34Z</time>
      </trkpt>
      <trkpt lat="44.1523" lon="7.25393">
        <ele>2463.8</ele>
        <time>2019-08-10T07:21:49Z</time>
      </trkpt>
      <trkpt lat="44.15232" lon="7.25401">
        <ele>2464.1</ele>
        <time>2019-08-10T07:21:58Z</time>
      </trkpt>
      <trkpt lat="44.15219" lon="7.25409">
        <ele>2465.1</ele>
        <time>2019-08-10T07:22:23Z</time>
      </trkpt>
      <trkpt lat="44.15225" lon="7.25432">
        <ele>2467.1</ele>
        <time>2019-08-10T07:22:42Z</time>
      </trkpt>
      <trkpt lat="44.15234" lon="7.25454">
        <ele>2470</ele>
        <time>2019-08-10T07:23:00Z</time>
      </trkpt>
      <trkpt lat="44.15244" lon="7.25456">
        <ele>2471.9</ele>
        <time>2019-08-10T07:23:12Z</time>
      </trkpt>
      <trkpt lat="44.15253" lon="7.25469">
        <ele>2474.3</ele>
        <time>2019-08-10T07:23:32Z</time>
      </trkpt>
      <trkpt lat="44.15252" lon="7.25489">
        <ele>2476.9</ele>
        <time>2019-08-10T07:23:50Z</time>
      </trkpt>
      <trkpt lat="44.15254" lon="7.25488">
        <ele>2477.2</ele>
        <time>2019-08-10T07:23:52Z</time>
      </trkpt>
      <trkpt lat="44.15256" lon="7.25488">
        <ele>2477.6</ele>
        <time>2019-08-10T07:23:54Z</time>
      </trkpt>
      <trkpt lat="44.15274" lon="7.25485">
        <ele>2480.3</ele>
        <time>2019-08-10T07:24:10Z</time>
      </trkpt>
      <trkpt lat="44.15277" lon="7.2551">
        <ele>2482.9</ele>
        <time>2019-08-10T07:24:26Z</time>
      </trkpt>
      <trkpt lat="44.15286" lon="7.25531">
        <ele>2485.5</ele>
        <time>2019-08-10T07:24:44Z</time>
      </trkpt>
      <trkpt lat="44.15298" lon="7.25518">
        <ele>2488.5</ele>
        <time>2019-08-10T07:25:02Z</time>
      </trkpt>
      <trkpt lat="44.15313" lon="7.2551">
        <ele>2491.5</ele>
        <time>2019-08-10T07:25:22Z</time>
      </trkpt>
      <trkpt lat="44.15316" lon="7.2551">
        <ele>2492</ele>
        <time>2019-08-10T07:25:25Z</time>
      </trkpt>
      <trkpt lat="44.15325" lon="7.2553">
        <ele>2494.8</ele>
        <time>2019-08-10T07:25:41Z</time>
      </trkpt>
      <trkpt lat="44.15335" lon="7.25537">
        <ele>2500</ele>
        <time>2019-08-10T07:26:02Z</time>
      </trkpt>
      <trkpt lat="44.15336" lon="7.25535">
        <ele>2500.4</ele>
        <time>2019-08-10T07:26:03Z</time>
      </trkpt>
      <trkpt lat="44.15349" lon="7.25517">
        <ele>2504.6</ele>
        <time>2019-08-10T07:26:21Z</time>
      </trkpt>
      <trkpt lat="44.15352" lon="7.25522">
        <ele>2505.3</ele>
        <time>2019-08-10T07:26:26Z</time>
      </trkpt>
      <trkpt lat="44.15347" lon="7.25547">
        <ele>2508.8</ele>
        <time>2019-08-10T07:26:41Z</time>
      </trkpt>
      <trkpt lat="44.15341" lon="7.25571">
        <ele>2511.2</ele>
        <time>2019-08-10T07:26:57Z</time>
      </trkpt>
      <trkpt lat="44.15341" lon="7.25573">
        <ele>2511.4</ele>
        <time>2019-08-10T07:27:01Z</time>
      </trkpt>
      <trkpt lat="44.15343" lon="7.2557">
        <ele>2511.7</ele>
        <time>2019-08-10T07:27:04Z</time>
      </trkpt>
      <trkpt lat="44.15353" lon="7.25549">
        <ele>2513.8</ele>
        <time>2019-08-10T07:27:20Z</time>
      </trkpt>
      <trkpt lat="44.15369" lon="7.25534">
        <ele>2516.9</ele>
        <time>2019-08-10T07:27:36Z</time>
      </trkpt>
      <trkpt lat="44.15382" lon="7.25521">
        <ele>2520.1</ele>
        <time>2019-08-10T07:27:54Z</time>
      </trkpt>
      <trkpt lat="44.15382" lon="7.25527">
        <ele>2520.8</ele>
        <time>2019-08-10T07:27:58Z</time>
      </trkpt>
      <trkpt lat="44.15377" lon="7.25551">
        <ele>2524.6</ele>
        <time>2019-08-10T07:28:14Z</time>
      </trkpt>
      <trkpt lat="44.15372" lon="7.25575">
        <ele>2527.6</ele>
        <time>2019-08-10T07:28:30Z</time>
      </trkpt>
      <trkpt lat="44.15375" lon="7.2558">
        <ele>2528.3</ele>
        <time>2019-08-10T07:28:38Z</time>
      </trkpt>
      <trkpt lat="44.15376" lon="7.25578">
        <ele>2528.6</ele>
        <time>2019-08-10T07:28:40Z</time>
      </trkpt>
      <trkpt lat="44.15388" lon="7.25559">
        <ele>2532</ele>
        <time>2019-08-10T07:28:57Z</time>
      </trkpt>
      <trkpt lat="44.154" lon="7.2554">
        <ele>2535.8</ele>
        <time>2019-08-10T07:29:13Z</time>
      </trkpt>
      <trkpt lat="44.1541" lon="7.25518">
        <ele>2539.1</ele>
        <time>2019-08-10T07:29:30Z</time>
      </trkpt>
      <trkpt lat="44.15417" lon="7.25502">
        <ele>2541.6</ele>
        <time>2019-08-10T07:29:48Z</time>
      </trkpt>
      <trkpt lat="44.15418" lon="7.25505">
        <ele>2542.1</ele>
        <time>2019-08-10T07:29:50Z</time>
      </trkpt>
      <trkpt lat="44.15419" lon="7.25508">
        <ele>2542.5</ele>
        <time>2019-08-10T07:29:52Z</time>
      </trkpt>
      <trkpt lat="44.15419" lon="7.25511">
        <ele>2542.9</ele>
        <time>2019-08-10T07:29:54Z</time>
      </trkpt>
      <trkpt lat="44.1542" lon="7.25538">
        <ele>2546.5</ele>
        <time>2019-08-10T07:30:09Z</time>
      </trkpt>
      <trkpt lat="44.15422" lon="7.25564">
        <ele>2550.2</ele>
        <time>2019-08-10T07:30:27Z</time>
      </trkpt>
      <trkpt lat="44.15421" lon="7.25578">
        <ele>2551.8</ele>
        <time>2019-08-10T07:30:41Z</time>
      </trkpt>
      <trkpt lat="44.1543" lon="7.25554">
        <ele>2554.4</ele>
        <time>2019-08-10T07:31:00Z</time>
      </trkpt>
      <trkpt lat="44.15437" lon="7.25531">
        <ele>2557.6</ele>
        <time>2019-08-10T07:31:19Z</time>
      </trkpt>
      <trkpt lat="44.15442" lon="7.25539">
        <ele>2558.5</ele>
        <time>2019-08-10T07:31:28Z</time>
      </trkpt>
      <trkpt lat="44.15442" lon="7.25565">
        <ele>2561.5</ele>
        <time>2019-08-10T07:31:45Z</time>
      </trkpt>
      <trkpt lat="44.15443" lon="7.25575">
        <ele>2563.1</ele>
        <time>2019-08-10T07:31:55Z</time>
      </trkpt>
      <trkpt lat="44.1545" lon="7.25551">
        <ele>2563.5</ele>
        <time>2019-08-10T07:32:15Z</time>
      </trkpt>
      <trkpt lat="44.15452" lon="7.25525">
        <ele>2564.7</ele>
        <time>2019-08-10T07:32:30Z</time>
      </trkpt>
      <trkpt lat="44.15457" lon="7.25501">
        <ele>2565.9</ele>
        <time>2019-08-10T07:32:47Z</time>
      </trkpt>
      <trkpt lat="44.15462" lon="7.25482">
        <ele>2566.9</ele>
        <time>2019-08-10T07:33:02Z</time>
      </trkpt>
      <trkpt lat="44.15463" lon="7.25481">
        <ele>2566.9</ele>
        <time>2019-08-10T07:33:04Z</time>
      </trkpt>
      <trkpt lat="44.15475" lon="7.25462">
        <ele>2567.7</ele>
        <time>2019-08-10T07:33:22Z</time>
      </trkpt>
      <trkpt lat="44.1548" lon="7.25455">
        <ele>2568</ele>
        <time>2019-08-10T07:33:32Z</time>
      </trkpt>
      <trkpt lat="44.15485" lon="7.25444">
        <ele>2568.2</ele>
        <time>2019-08-10T07:34:13Z</time>
      </trkpt>
      <trkpt lat="44.15492" lon="7.25428">
        <ele>2568.4</ele>
        <time>2019-08-10T07:34:29Z</time>
      </trkpt>
      <trkpt lat="44.15495" lon="7.25417">
        <ele>2568.6</ele>
        <time>2019-08-10T07:35:03Z</time>
      </trkpt>
      <trkpt lat="44.15498" lon="7.25392">
        <ele>2569.7</ele>
        <time>2019-08-10T07:35:18Z</time>
      </trkpt>
      <trkpt lat="44.15499" lon="7.25393">
        <ele>2569.9</ele>
        <time>2019-08-10T07:35:22Z</time>
      </trkpt>
      <trkpt lat="44.155" lon="7.25395">
        <ele>2570</ele>
        <time>2019-08-10T07:35:24Z</time>
      </trkpt>
      <trkpt lat="44.15501" lon="7.25397">
        <ele>2570.2</ele>
        <time>2019-08-10T07:35:26Z</time>
      </trkpt>
      <trkpt lat="44.15501" lon="7.25403">
        <ele>2570.7</ele>
        <time>2019-08-10T07:35:31Z</time>
      </trkpt>
      <trkpt lat="44.15502" lon="7.25405">
        <ele>2570.9</ele>
        <time>2019-08-10T07:35:33Z</time>
      </trkpt>
      <trkpt lat="44.15502" lon="7.25408">
        <ele>2571.1</ele>
        <time>2019-08-10T07:35:35Z</time>
      </trkpt>
      <trkpt lat="44.15503" lon="7.25415">
        <ele>2571.7</ele>
        <time>2019-08-10T07:35:40Z</time>
      </trkpt>
      <trkpt lat="44.15504" lon="7.2542">
        <ele>2572.1</ele>
        <time>2019-08-10T07:35:46Z</time>
      </trkpt>
      <trkpt lat="44.15505" lon="7.25428">
        <ele>2572.9</ele>
        <time>2019-08-10T07:36:18Z</time>
      </trkpt>
      <trkpt lat="44.15503" lon="7.25454">
        <ele>2575</ele>
        <time>2019-08-10T07:36:32Z</time>
      </trkpt>
      <trkpt lat="44.15503" lon="7.25458">
        <ele>2575.3</ele>
        <time>2019-08-10T07:36:37Z</time>
      </trkpt>
      <trkpt lat="44.15503" lon="7.25457">
        <ele>2575.4</ele>
        <time>2019-08-10T07:36:41Z</time>
      </trkpt>
      <trkpt lat="44.15502" lon="7.25459">
        <ele>2575.5</ele>
        <time>2019-08-10T07:36:45Z</time>
      </trkpt>
      <trkpt lat="44.15501" lon="7.25463">
        <ele>2575.9</ele>
        <time>2019-08-10T07:36:48Z</time>
      </trkpt>
      <trkpt lat="44.155" lon="7.25464">
        <ele>2576</ele>
        <time>2019-08-10T07:36:50Z</time>
      </trkpt>
      <trkpt lat="44.15496" lon="7.25487">
        <ele>2577.9</ele>
        <time>2019-08-10T07:37:12Z</time>
      </trkpt>
      <trkpt lat="44.15496" lon="7.25509">
        <ele>2579.4</ele>
        <time>2019-08-10T07:37:27Z</time>
      </trkpt>
      <trkpt lat="44.15496" lon="7.25511">
        <ele>2579.6</ele>
        <time>2019-08-10T07:37:30Z</time>
      </trkpt>
      <trkpt lat="44.15496" lon="7.25514">
        <ele>2579.7</ele>
        <time>2019-08-10T07:37:32Z</time>
      </trkpt>
      <trkpt lat="44.15497" lon="7.25527">
        <ele>2580.4</ele>
        <time>2019-08-10T07:37:44Z</time>
      </trkpt>
      <trkpt lat="44.15498" lon="7.25533">
        <ele>2580.7</ele>
        <time>2019-08-10T07:37:49Z</time>
      </trkpt>
      <trkpt lat="44.15504" lon="7.25558">
        <ele>2581.9</ele>
        <time>2019-08-10T07:38:05Z</time>
      </trkpt>
      <trkpt lat="44.15509" lon="7.25583">
        <ele>2583.6</ele>
        <time>2019-08-10T07:38:20Z</time>
      </trkpt>
      <trkpt lat="44.15512" lon="7.25596">
        <ele>2584.5</ele>
        <time>2019-08-10T07:38:33Z</time>
      </trkpt>
      <trkpt lat="44.15514" lon="7.25588">
        <ele>2585</ele>
        <time>2019-08-10T07:38:40Z</time>
      </trkpt>
      <trkpt lat="44.15519" lon="7.25564">
        <ele>2586.7</ele>
        <time>2019-08-10T07:38:57Z</time>
      </trkpt>
      <trkpt lat="44.15517" lon="7.25551">
        <ele>2588.1</ele>
        <time>2019-08-10T07:39:07Z</time>
      </trkpt>
      <trkpt lat="44.15518" lon="7.2555">
        <ele>2588.3</ele>
        <time>2019-08-10T07:39:10Z</time>
      </trkpt>
      <trkpt lat="44.1552" lon="7.25553">
        <ele>2588.8</ele>
        <time>2019-08-10T07:39:13Z</time>
      </trkpt>
      <trkpt lat="44.15534" lon="7.2557">
        <ele>2591.9</ele>
        <time>2019-08-10T07:39:27Z</time>
      </trkpt>
      <trkpt lat="44.15537" lon="7.25572">
        <ele>2592.6</ele>
        <time>2019-08-10T07:39:30Z</time>
      </trkpt>
      <trkpt lat="44.15551" lon="7.25572">
        <ele>2594.7</ele>
        <time>2019-08-10T07:39:47Z</time>
      </trkpt>
      <trkpt lat="44.15553" lon="7.25569">
        <ele>2595.3</ele>
        <time>2019-08-10T07:39:53Z</time>
      </trkpt>
      <trkpt lat="44.15553" lon="7.25568">
        <ele>2595.4</ele>
        <time>2019-08-10T07:39:55Z</time>
      </trkpt>
      <trkpt lat="44.15551" lon="7.25559">
        <ele>2595.6</ele>
        <time>2019-08-10T07:40:14Z</time>
      </trkpt>
      <trkpt lat="44.15555" lon="7.25537">
        <ele>2595.5</ele>
        <time>2019-08-10T07:40:32Z</time>
      </trkpt>
      <trkpt lat="44.15555" lon="7.2553">
        <ele>2595.5</ele>
        <time>2019-08-10T07:40:49Z</time>
      </trkpt>
      <trkpt lat="44.15558" lon="7.25525">
        <ele>2595.5</ele>
        <time>2019-08-10T07:42:10Z</time>
      </trkpt>
      <trkpt lat="44.15555" lon="7.25499">
        <ele>2595.6</ele>
        <time>2019-08-10T07:42:28Z</time>
      </trkpt>
      <trkpt lat="44.15556" lon="7.2549">
        <ele>2595.6</ele>
        <time>2019-08-10T07:42:34Z</time>
      </trkpt>
      <trkpt lat="44.15555" lon="7.25476">
        <ele>2595.8</ele>
        <time>2019-08-10T07:42:43Z</time>
      </trkpt>
      <trkpt lat="44.15555" lon="7.25474">
        <ele>2595.9</ele>
        <time>2019-08-10T07:42:45Z</time>
      </trkpt>
      <trkpt lat="44.1555" lon="7.25465">
        <ele>2596.1</ele>
        <time>2019-08-10T07:42:57Z</time>
      </trkpt>
      <trkpt lat="44.15553" lon="7.25469">
        <ele>2596.2</ele>
        <time>2019-08-10T07:43:40Z</time>
      </trkpt>
      <trkpt lat="44.15553" lon="7.25466">
        <ele>2596.3</ele>
        <time>2019-08-10T07:43:42Z</time>
      </trkpt>
      <trkpt lat="44.15553" lon="7.25463">
        <ele>2596.4</ele>
        <time>2019-08-10T07:43:45Z</time>
      </trkpt>
      <trkpt lat="44.15552" lon="7.25462">
        <ele>2596.4</ele>
        <time>2019-08-10T07:43:47Z</time>
      </trkpt>
      <trkpt lat="44.15552" lon="7.25458">
        <ele>2596.6</ele>
        <time>2019-08-10T07:43:49Z</time>
      </trkpt>
      <trkpt lat="44.15555" lon="7.25443">
        <ele>2597.1</ele>
        <time>2019-08-10T07:44:01Z</time>
      </trkpt>
      <trkpt lat="44.15545" lon="7.25429">
        <ele>2597.6</ele>
        <time>2019-08-10T07:44:55Z</time>
      </trkpt>
      <trkpt lat="44.15532" lon="7.25431">
        <ele>2597.8</ele>
        <time>2019-08-10T07:45:46Z</time>
      </trkpt>
      <trkpt lat="44.15526" lon="7.25409">
        <ele>2598.1</ele>
        <time>2019-08-10T07:46:27Z</time>
      </trkpt>
      <trkpt lat="44.15521" lon="7.25388">
        <ele>2598.4</ele>
        <time>2019-08-10T07:47:39Z</time>
      </trkpt>
      <trkpt lat="44.15533" lon="7.25393">
        <ele>2598.7</ele>
        <time>2019-08-10T07:48:56Z</time>
      </trkpt>
      <trkpt lat="44.15542" lon="7.25377">
        <ele>2598.9</ele>
        <time>2019-08-10T07:49:42Z</time>
      </trkpt>
      <trkpt lat="44.15551" lon="7.25375">
        <ele>2599.1</ele>
        <time>2019-08-10T07:50:12Z</time>
      </trkpt>
      <trkpt lat="44.15554" lon="7.25377">
        <ele>2599.2</ele>
        <time>2019-08-10T07:50:16Z</time>
      </trkpt>
      <trkpt lat="44.15556" lon="7.25376">
        <ele>2599.2</ele>
        <time>2019-08-10T07:50:21Z</time>
      </trkpt>
      <trkpt lat="44.15574" lon="7.25367">
        <ele>2600.3</ele>
        <time>2019-08-10T07:50:40Z</time>
      </trkpt>
      <trkpt lat="44.15588" lon="7.25352">
        <ele>2601.1</ele>
        <time>2019-08-10T07:50:54Z</time>
      </trkpt>
      <trkpt lat="44.15588" lon="7.25352">
        <ele>2601.1</ele>
        <time>2019-08-10T07:51:34Z</time>
      </trkpt>
      <trkpt lat="44.15588" lon="7.25352">
        <ele>2601.1</ele>
        <time>2019-08-10T07:51:49Z</time>
      </trkpt>
      <trkpt lat="44.15588" lon="7.25352">
        <ele>2601.1</ele>
        <time>2019-08-10T07:52:04Z</time>
      </trkpt>
      <trkpt lat="44.15588" lon="7.25352">
        <ele>2601.1</ele>
        <time>2019-08-10T07:52:19Z</time>
      </trkpt>
      <trkpt lat="44.15588" lon="7.25352">
        <ele>2601.1</ele>
        <time>2019-08-10T07:52:34Z</time>
      </trkpt>
      <trkpt lat="44.15588" lon="7.25352">
        <ele>2601.1</ele>
        <time>2019-08-10T07:52:49Z</time>
      </trkpt>
      <trkpt lat="44.15588" lon="7.25352">
        <ele>2601.1</ele>
        <time>2019-08-10T07:53:04Z</time>
      </trkpt>
      <trkpt lat="44.15588" lon="7.25352">
        <ele>2601.1</ele>
        <time>2019-08-10T07:53:18Z</time>
      </trkpt>
      <trkpt lat="44.15632" lon="7.25276">
        <ele>2602.9</ele>
        <time>2019-08-10T07:53:30Z</time>
      </trkpt>
      <trkpt lat="44.15613" lon="7.25278">
        <ele>2602.3</ele>
        <time>2019-08-10T07:53:33Z</time>
      </trkpt>
      <trkpt lat="44.15615" lon="7.25318">
        <ele>2601.4</ele>
        <time>2019-08-10T07:53:48Z</time>
      </trkpt>
      <trkpt lat="44.15607" lon="7.25333">
        <ele>2601.2</ele>
        <time>2019-08-10T07:54:02Z</time>
      </trkpt>
      <trkpt lat="44.15606" lon="7.25335">
        <ele>2601.1</ele>
        <time>2019-08-10T07:54:05Z</time>
      </trkpt>
      <trkpt lat="44.15604" lon="7.25336">
        <ele>2601.1</ele>
        <time>2019-08-10T07:54:07Z</time>
      </trkpt>
      <trkpt lat="44.15598" lon="7.25343">
        <ele>2600.9</ele>
        <time>2019-08-10T07:54:16Z</time>
      </trkpt>
      <trkpt lat="44.15597" lon="7.25345">
        <ele>2600.9</ele>
        <time>2019-08-10T07:54:19Z</time>
      </trkpt>
      <trkpt lat="44.15595" lon="7.25349">
        <ele>2600.8</ele>
        <time>2019-08-10T07:54:24Z</time>
      </trkpt>
      <trkpt lat="44.15594" lon="7.2535">
        <ele>2600.7</ele>
        <time>2019-08-10T07:54:27Z</time>
      </trkpt>
      <trkpt lat="44.15585" lon="7.25353">
        <ele>2600.5</ele>
        <time>2019-08-10T07:55:55Z</time>
      </trkpt>
      <trkpt lat="44.15577" lon="7.25363">
        <ele>2600.1</ele>
        <time>2019-08-10T07:56:12Z</time>
      </trkpt>
      <trkpt lat="44.15575" lon="7.25365">
        <ele>2600</ele>
        <time>2019-08-10T07:56:14Z</time>
      </trkpt>
      <trkpt lat="44.15571" lon="7.25367">
        <ele>2599.9</ele>
        <time>2019-08-10T07:56:19Z</time>
      </trkpt>
      <trkpt lat="44.15564" lon="7.25376">
        <ele>2599.6</ele>
        <time>2019-08-10T07:56:28Z</time>
      </trkpt>
      <trkpt lat="44.15562" lon="7.25377">
        <ele>2599.6</ele>
        <time>2019-08-10T07:56:30Z</time>
      </trkpt>
      <trkpt lat="44.15561" lon="7.25379">
        <ele>2599.5</ele>
        <time>2019-08-10T07:56:32Z</time>
      </trkpt>
      <trkpt lat="44.15558" lon="7.25388">
        <ele>2598.9</ele>
        <time>2019-08-10T07:56:38Z</time>
      </trkpt>
      <trkpt lat="44.15556" lon="7.25413">
        <ele>2598.1</ele>
        <time>2019-08-10T07:56:55Z</time>
      </trkpt>
      <trkpt lat="44.15555" lon="7.25434">
        <ele>2597.4</ele>
        <time>2019-08-10T07:57:09Z</time>
      </trkpt>
      <trkpt lat="44.15555" lon="7.25435">
        <ele>2597.4</ele>
        <time>2019-08-10T07:57:11Z</time>
      </trkpt>
      <trkpt lat="44.15564" lon="7.25458">
        <ele>2593.9</ele>
        <time>2019-08-10T07:57:26Z</time>
      </trkpt>
      <trkpt lat="44.15572" lon="7.25482">
        <ele>2590.7</ele>
        <time>2019-08-10T07:57:37Z</time>
      </trkpt>
      <trkpt lat="44.15579" lon="7.25507">
        <ele>2588.8</ele>
        <time>2019-08-10T07:57:44Z</time>
      </trkpt>
      <trkpt lat="44.15587" lon="7.25532">
        <ele>2587.3</ele>
        <time>2019-08-10T07:57:51Z</time>
      </trkpt>
      <trkpt lat="44.15592" lon="7.25541">
        <ele>2586.4</ele>
        <time>2019-08-10T07:57:57Z</time>
      </trkpt>
      <trkpt lat="44.15596" lon="7.25543">
        <ele>2585.5</ele>
        <time>2019-08-10T07:58:05Z</time>
      </trkpt>
      <trkpt lat="44.15604" lon="7.25539">
        <ele>2583.9</ele>
        <time>2019-08-10T07:58:50Z</time>
      </trkpt>
      <trkpt lat="44.15617" lon="7.25558">
        <ele>2579.8</ele>
        <time>2019-08-10T07:59:04Z</time>
      </trkpt>
      <trkpt lat="44.15618" lon="7.25559">
        <ele>2579.5</ele>
        <time>2019-08-10T07:59:06Z</time>
      </trkpt>
      <trkpt lat="44.1562" lon="7.25561">
        <ele>2578.9</ele>
        <time>2019-08-10T07:59:08Z</time>
      </trkpt>
      <trkpt lat="44.15623" lon="7.25562">
        <ele>2578.1</ele>
        <time>2019-08-10T07:59:12Z</time>
      </trkpt>
      <trkpt lat="44.15622" lon="7.25568">
        <ele>2577.2</ele>
        <time>2019-08-10T07:59:14Z</time>
      </trkpt>
      <trkpt lat="44.15624" lon="7.25586">
        <ele>2575.1</ele>
        <time>2019-08-10T07:59:21Z</time>
      </trkpt>
      <trkpt lat="44.15628" lon="7.25587">
        <ele>2574.6</ele>
        <time>2019-08-10T07:59:24Z</time>
      </trkpt>
      <trkpt lat="44.15632" lon="7.25588">
        <ele>2574.1</ele>
        <time>2019-08-10T07:59:28Z</time>
      </trkpt>
      <trkpt lat="44.15633" lon="7.25586">
        <ele>2573.8</ele>
        <time>2019-08-10T07:59:31Z</time>
      </trkpt>
      <trkpt lat="44.15632" lon="7.25582">
        <ele>2573.2</ele>
        <time>2019-08-10T07:59:34Z</time>
      </trkpt>
      <trkpt lat="44.15641" lon="7.2556">
        <ele>2568.9</ele>
        <time>2019-08-10T07:59:42Z</time>
      </trkpt>
      <trkpt lat="44.15641" lon="7.25556">
        <ele>2568.1</ele>
        <time>2019-08-10T07:59:44Z</time>
      </trkpt>
      <trkpt lat="44.1564" lon="7.25546">
        <ele>2566.2</ele>
        <time>2019-08-10T07:59:48Z</time>
      </trkpt>
      <trkpt lat="44.15641" lon="7.25545">
        <ele>2565.8</ele>
        <time>2019-08-10T07:59:50Z</time>
      </trkpt>
      <trkpt lat="44.15643" lon="7.25549">
        <ele>2564.9</ele>
        <time>2019-08-10T07:59:53Z</time>
      </trkpt>
      <trkpt lat="44.15646" lon="7.25554">
        <ele>2563.6</ele>
        <time>2019-08-10T07:59:58Z</time>
      </trkpt>
      <trkpt lat="44.15648" lon="7.25562">
        <ele>2562.5</ele>
        <time>2019-08-10T08:00:03Z</time>
      </trkpt>
      <trkpt lat="44.15645" lon="7.25577">
        <ele>2560.6</ele>
        <time>2019-08-10T08:00:09Z</time>
      </trkpt>
      <trkpt lat="44.15647" lon="7.25578">
        <ele>2560.3</ele>
        <time>2019-08-10T08:00:12Z</time>
      </trkpt>
      <trkpt lat="44.15651" lon="7.25574">
        <ele>2559.5</ele>
        <time>2019-08-10T08:00:15Z</time>
      </trkpt>
      <trkpt lat="44.1566" lon="7.25558">
        <ele>2556.9</ele>
        <time>2019-08-10T08:00:22Z</time>
      </trkpt>
      <trkpt lat="44.15658" lon="7.25551">
        <ele>2555.7</ele>
        <time>2019-08-10T08:00:25Z</time>
      </trkpt>
      <trkpt lat="44.15666" lon="7.25571">
        <ele>2552.2</ele>
        <time>2019-08-10T08:00:34Z</time>
      </trkpt>
      <trkpt lat="44.15661" lon="7.25586">
        <ele>2550.3</ele>
        <time>2019-08-10T08:00:42Z</time>
      </trkpt>
      <trkpt lat="44.15677" lon="7.25568">
        <ele>2547.3</ele>
        <time>2019-08-10T08:00:50Z</time>
      </trkpt>
      <trkpt lat="44.15684" lon="7.25544">
        <ele>2543.2</ele>
        <time>2019-08-10T08:00:58Z</time>
      </trkpt>
      <trkpt lat="44.15685" lon="7.25542">
        <ele>2542.8</ele>
        <time>2019-08-10T08:00:59Z</time>
      </trkpt>
      <trkpt lat="44.15695" lon="7.25535">
        <ele>2540.3</ele>
        <time>2019-08-10T08:01:05Z</time>
      </trkpt>
      <trkpt lat="44.15698" lon="7.25532">
        <ele>2539.5</ele>
        <time>2019-08-10T08:01:07Z</time>
      </trkpt>
      <trkpt lat="44.15701" lon="7.25533">
        <ele>2538.8</ele>
        <time>2019-08-10T08:01:09Z</time>
      </trkpt>
      <trkpt lat="44.15703" lon="7.25527">
        <ele>2537.5</ele>
        <time>2019-08-10T08:01:12Z</time>
      </trkpt>
      <trkpt lat="44.15707" lon="7.2553">
        <ele>2536.4</ele>
        <time>2019-08-10T08:01:15Z</time>
      </trkpt>
      <trkpt lat="44.15708" lon="7.25531">
        <ele>2536</ele>
        <time>2019-08-10T08:01:17Z</time>
      </trkpt>
      <trkpt lat="44.15712" lon="7.25525">
        <ele>2534.6</ele>
        <time>2019-08-10T08:01:20Z</time>
      </trkpt>
      <trkpt lat="44.15711" lon="7.25517">
        <ele>2533.2</ele>
        <time>2019-08-10T08:01:23Z</time>
      </trkpt>
      <trkpt lat="44.15716" lon="7.25522">
        <ele>2531.6</ele>
        <time>2019-08-10T08:01:27Z</time>
      </trkpt>
      <trkpt lat="44.15719" lon="7.25537">
        <ele>2528.6</ele>
        <time>2019-08-10T08:01:34Z</time>
      </trkpt>
      <trkpt lat="44.15728" lon="7.25516">
        <ele>2523</ele>
        <time>2019-08-10T08:01:41Z</time>
      </trkpt>
      <trkpt lat="44.15725" lon="7.25508">
        <ele>2521.1</ele>
        <time>2019-08-10T08:01:46Z</time>
      </trkpt>
      <trkpt lat="44.15707" lon="7.25496">
        <ele>2516.1</ele>
        <time>2019-08-10T08:01:56Z</time>
      </trkpt>
      <trkpt lat="44.15701" lon="7.25489">
        <ele>2515.8</ele>
        <time>2019-08-10T08:02:00Z</time>
      </trkpt>
      <trkpt lat="44.15702" lon="7.25486">
        <ele>2515.7</ele>
        <time>2019-08-10T08:02:03Z</time>
      </trkpt>
      <trkpt lat="44.15708" lon="7.2549">
        <ele>2515.4</ele>
        <time>2019-08-10T08:02:08Z</time>
      </trkpt>
      <trkpt lat="44.15712" lon="7.2548">
        <ele>2515.1</ele>
        <time>2019-08-10T08:02:23Z</time>
      </trkpt>
      <trkpt lat="44.15711" lon="7.25474">
        <ele>2514.9</ele>
        <time>2019-08-10T08:02:25Z</time>
      </trkpt>
      <trkpt lat="44.15712" lon="7.25471">
        <ele>2514.8</ele>
        <time>2019-08-10T08:02:27Z</time>
      </trkpt>
      <trkpt lat="44.15714" lon="7.25471">
        <ele>2514.7</ele>
        <time>2019-08-10T08:02:29Z</time>
      </trkpt>
      <trkpt lat="44.1572" lon="7.25476">
        <ele>2514.5</ele>
        <time>2019-08-10T08:03:47Z</time>
      </trkpt>
      <trkpt lat="44.15716" lon="7.25477">
        <ele>2514.4</ele>
        <time>2019-08-10T08:03:51Z</time>
      </trkpt>
      <trkpt lat="44.15716" lon="7.25486">
        <ele>2514.2</ele>
        <time>2019-08-10T08:03:54Z</time>
      </trkpt>
      <trkpt lat="44.15718" lon="7.25491">
        <ele>2514</ele>
        <time>2019-08-10T08:03:57Z</time>
      </trkpt>
      <trkpt lat="44.15718" lon="7.25497">
        <ele>2513.9</ele>
        <time>2019-08-10T08:04:02Z</time>
      </trkpt>
      <trkpt lat="44.15719" lon="7.25505">
        <ele>2513.7</ele>
        <time>2019-08-10T08:04:12Z</time>
      </trkpt>
      <trkpt lat="44.15732" lon="7.25511">
        <ele>2513.4</ele>
        <time>2019-08-10T08:05:06Z</time>
      </trkpt>
      <trkpt lat="44.15752" lon="7.25508">
        <ele>2513.3</ele>
        <time>2019-08-10T08:05:18Z</time>
      </trkpt>
      <trkpt lat="44.1577" lon="7.25504">
        <ele>2513.3</ele>
        <time>2019-08-10T08:05:23Z</time>
      </trkpt>
      <trkpt lat="44.15787" lon="7.25495">
        <ele>2513.5</ele>
        <time>2019-08-10T08:05:31Z</time>
      </trkpt>
      <trkpt lat="44.15805" lon="7.25488">
        <ele>2513.7</ele>
        <time>2019-08-10T08:05:43Z</time>
      </trkpt>
      <trkpt lat="44.15812" lon="7.25491">
        <ele>2513.8</ele>
        <time>2019-08-10T08:05:49Z</time>
      </trkpt>
      <trkpt lat="44.15818" lon="7.2549">
        <ele>2513.8</ele>
        <time>2019-08-10T08:06:34Z</time>
      </trkpt>
      <trkpt lat="44.15821" lon="7.25488">
        <ele>2513.8</ele>
        <time>2019-08-10T08:06:37Z</time>
      </trkpt>
      <trkpt lat="44.15837" lon="7.25478">
        <ele>2513</ele>
        <time>2019-08-10T08:06:58Z</time>
      </trkpt>
      <trkpt lat="44.15847" lon="7.25457">
        <ele>2515.5</ele>
        <time>2019-08-10T08:07:07Z</time>
      </trkpt>
      <trkpt lat="44.15857" lon="7.25436">
        <ele>2517.3</ele>
        <time>2019-08-10T08:07:18Z</time>
      </trkpt>
      <trkpt lat="44.15867" lon="7.25419">
        <ele>2516.5</ele>
        <time>2019-08-10T08:07:31Z</time>
      </trkpt>
      <trkpt lat="44.15871" lon="7.25417">
        <ele>2516.2</ele>
        <time>2019-08-10T08:07:35Z</time>
      </trkpt>
      <trkpt lat="44.15873" lon="7.25415">
        <ele>2516.1</ele>
        <time>2019-08-10T08:07:37Z</time>
      </trkpt>
      <trkpt lat="44.1589" lon="7.25408">
        <ele>2515.1</ele>
        <time>2019-08-10T08:07:46Z</time>
      </trkpt>
      <trkpt lat="44.1591" lon="7.25401">
        <ele>2514</ele>
        <time>2019-08-10T08:07:55Z</time>
      </trkpt>
      <trkpt lat="44.15929" lon="7.25399">
        <ele>2512.5</ele>
        <time>2019-08-10T08:08:03Z</time>
      </trkpt>
      <trkpt lat="44.15949" lon="7.25394">
        <ele>2510.6</ele>
        <time>2019-08-10T08:08:11Z</time>
      </trkpt>
      <trkpt lat="44.15969" lon="7.25398">
        <ele>2508.4</ele>
        <time>2019-08-10T08:08:19Z</time>
      </trkpt>
      <trkpt lat="44.15988" lon="7.25402">
        <ele>2506</ele>
        <time>2019-08-10T08:08:29Z</time>
      </trkpt>
      <trkpt lat="44.15995" lon="7.25413">
        <ele>2504.8</ele>
        <time>2019-08-10T08:08:35Z</time>
      </trkpt>
      <trkpt lat="44.15997" lon="7.25423">
        <ele>2503.7</ele>
        <time>2019-08-10T08:08:39Z</time>
      </trkpt>
      <trkpt lat="44.16001" lon="7.254">
        <ele>2502.3</ele>
        <time>2019-08-10T08:08:49Z</time>
      </trkpt>
      <trkpt lat="44.16" lon="7.25393">
        <ele>2502.5</ele>
        <time>2019-08-10T08:08:52Z</time>
      </trkpt>
      <trkpt lat="44.16012" lon="7.25403">
        <ele>2501.4</ele>
        <time>2019-08-10T08:08:59Z</time>
      </trkpt>
      <trkpt lat="44.1602" lon="7.25403">
        <ele>2500.5</ele>
        <time>2019-08-10T08:09:02Z</time>
      </trkpt>
      <trkpt lat="44.16038" lon="7.25405">
        <ele>2496.4</ele>
        <time>2019-08-10T08:09:12Z</time>
      </trkpt>
      <trkpt lat="44.16056" lon="7.25396">
        <ele>2491.9</ele>
        <time>2019-08-10T08:09:20Z</time>
      </trkpt>
      <trkpt lat="44.16073" lon="7.25384">
        <ele>2488.6</ele>
        <time>2019-08-10T08:09:27Z</time>
      </trkpt>
      <trkpt lat="44.16088" lon="7.2537">
        <ele>2486.4</ele>
        <time>2019-08-10T08:09:33Z</time>
      </trkpt>
      <trkpt lat="44.16091" lon="7.25365">
        <ele>2485.7</ele>
        <time>2019-08-10T08:09:36Z</time>
      </trkpt>
      <trkpt lat="44.16079" lon="7.25356">
        <ele>2484.1</ele>
        <time>2019-08-10T08:09:43Z</time>
      </trkpt>
      <trkpt lat="44.16095" lon="7.25345">
        <ele>2483.8</ele>
        <time>2019-08-10T08:09:51Z</time>
      </trkpt>
      <trkpt lat="44.16113" lon="7.25341">
        <ele>2480</ele>
        <time>2019-08-10T08:09:58Z</time>
      </trkpt>
      <trkpt lat="44.16132" lon="7.25344">
        <ele>2476.1</ele>
        <time>2019-08-10T08:10:07Z</time>
      </trkpt>
      <trkpt lat="44.16143" lon="7.25345">
        <ele>2473.3</ele>
        <time>2019-08-10T08:10:17Z</time>
      </trkpt>
      <trkpt lat="44.16129" lon="7.25335">
        <ele>2472.8</ele>
        <time>2019-08-10T08:11:10Z</time>
      </trkpt>
      <trkpt lat="44.16119" lon="7.25328">
        <ele>2474</ele>
        <time>2019-08-10T08:11:15Z</time>
      </trkpt>
      <trkpt lat="44.1612" lon="7.25326">
        <ele>2474.1</ele>
        <time>2019-08-10T08:11:18Z</time>
      </trkpt>
      <trkpt lat="44.16138" lon="7.25331">
        <ele>2470.2</ele>
        <time>2019-08-10T08:11:33Z</time>
      </trkpt>
      <trkpt lat="44.16153" lon="7.25335">
        <ele>2464.5</ele>
        <time>2019-08-10T08:11:53Z</time>
      </trkpt>
      <trkpt lat="44.16163" lon="7.25341">
        <ele>2462.3</ele>
        <time>2019-08-10T08:12:28Z</time>
      </trkpt>
      <trkpt lat="44.16171" lon="7.25347">
        <ele>2459.8</ele>
        <time>2019-08-10T08:14:14Z</time>
      </trkpt>
      <trkpt lat="44.16178" lon="7.25348">
        <ele>2458.1</ele>
        <time>2019-08-10T08:14:29Z</time>
      </trkpt>
      <trkpt lat="44.16183" lon="7.25343">
        <ele>2457.8</ele>
        <time>2019-08-10T08:14:39Z</time>
      </trkpt>
      <trkpt lat="44.16169" lon="7.25325">
        <ele>2453.5</ele>
        <time>2019-08-10T08:14:50Z</time>
      </trkpt>
      <trkpt lat="44.16154" lon="7.25307">
        <ele>2454.9</ele>
        <time>2019-08-10T08:15:00Z</time>
      </trkpt>
      <trkpt lat="44.16149" lon="7.253">
        <ele>2455.5</ele>
        <time>2019-08-10T08:15:07Z</time>
      </trkpt>
      <trkpt lat="44.16168" lon="7.25303">
        <ele>2456</ele>
        <time>2019-08-10T08:15:16Z</time>
      </trkpt>
      <trkpt lat="44.16187" lon="7.25302">
        <ele>2449.6</ele>
        <time>2019-08-10T08:15:26Z</time>
      </trkpt>
      <trkpt lat="44.16197" lon="7.25299">
        <ele>2446.1</ele>
        <time>2019-08-10T08:15:34Z</time>
      </trkpt>
      <trkpt lat="44.16196" lon="7.25295">
        <ele>2445.1</ele>
        <time>2019-08-10T08:15:37Z</time>
      </trkpt>
      <trkpt lat="44.16195" lon="7.25294">
        <ele>2444.6</ele>
        <time>2019-08-10T08:15:39Z</time>
      </trkpt>
      <trkpt lat="44.16194" lon="7.25291">
        <ele>2443.9</ele>
        <time>2019-08-10T08:15:41Z</time>
      </trkpt>
      <trkpt lat="44.16178" lon="7.25275">
        <ele>2439.4</ele>
        <time>2019-08-10T08:15:52Z</time>
      </trkpt>
      <trkpt lat="44.16177" lon="7.25274">
        <ele>2439.7</ele>
        <time>2019-08-10T08:15:53Z</time>
      </trkpt>
      <trkpt lat="44.16197" lon="7.25272">
        <ele>2442.2</ele>
        <time>2019-08-10T08:16:04Z</time>
      </trkpt>
      <trkpt lat="44.16214" lon="7.25276">
        <ele>2437.2</ele>
        <time>2019-08-10T08:16:15Z</time>
      </trkpt>
      <trkpt lat="44.1622" lon="7.25281">
        <ele>2435</ele>
        <time>2019-08-10T08:16:21Z</time>
      </trkpt>
      <trkpt lat="44.16238" lon="7.25294">
        <ele>2429.2</ele>
        <time>2019-08-10T08:16:32Z</time>
      </trkpt>
      <trkpt lat="44.16245" lon="7.25308">
        <ele>2424.6</ele>
        <time>2019-08-10T08:16:38Z</time>
      </trkpt>
      <trkpt lat="44.16243" lon="7.25285">
        <ele>2421.1</ele>
        <time>2019-08-10T08:16:49Z</time>
      </trkpt>
      <trkpt lat="44.16235" lon="7.25264">
        <ele>2418.4</ele>
        <time>2019-08-10T08:16:59Z</time>
      </trkpt>
      <trkpt lat="44.16248" lon="7.25269">
        <ele>2419.4</ele>
        <time>2019-08-10T08:17:09Z</time>
      </trkpt>
      <trkpt lat="44.16239" lon="7.25248">
        <ele>2417.4</ele>
        <time>2019-08-10T08:17:18Z</time>
      </trkpt>
      <trkpt lat="44.16236" lon="7.25241">
        <ele>2418.5</ele>
        <time>2019-08-10T08:17:22Z</time>
      </trkpt>
      <trkpt lat="44.16254" lon="7.25246">
        <ele>2415.9</ele>
        <time>2019-08-10T08:17:33Z</time>
      </trkpt>
      <trkpt lat="44.16267" lon="7.25265">
        <ele>2410.6</ele>
        <time>2019-08-10T08:17:44Z</time>
      </trkpt>
      <trkpt lat="44.16269" lon="7.25262">
        <ele>2410.1</ele>
        <time>2019-08-10T08:17:47Z</time>
      </trkpt>
      <trkpt lat="44.16264" lon="7.25239">
        <ele>2411.4</ele>
        <time>2019-08-10T08:17:55Z</time>
      </trkpt>
      <trkpt lat="44.16264" lon="7.25235">
        <ele>2410.8</ele>
        <time>2019-08-10T08:17:56Z</time>
      </trkpt>
      <trkpt lat="44.16267" lon="7.25232">
        <ele>2409.8</ele>
        <time>2019-08-10T08:17:58Z</time>
      </trkpt>
      <trkpt lat="44.16285" lon="7.25227">
        <ele>2407.2</ele>
        <time>2019-08-10T08:18:06Z</time>
      </trkpt>
      <trkpt lat="44.16295" lon="7.25227">
        <ele>2408.4</ele>
        <time>2019-08-10T08:18:11Z</time>
      </trkpt>
      <trkpt lat="44.16301" lon="7.2522">
        <ele>2410.2</ele>
        <time>2019-08-10T08:18:16Z</time>
      </trkpt>
      <trkpt lat="44.16318" lon="7.2521">
        <ele>2410.7</ele>
        <time>2019-08-10T08:18:26Z</time>
      </trkpt>
      <trkpt lat="44.16326" lon="7.25216">
        <ele>2408.8</ele>
        <time>2019-08-10T08:18:33Z</time>
      </trkpt>
      <trkpt lat="44.16328" lon="7.25216">
        <ele>2408.1</ele>
        <time>2019-08-10T08:18:35Z</time>
      </trkpt>
      <trkpt lat="44.16333" lon="7.25211">
        <ele>2407</ele>
        <time>2019-08-10T08:18:38Z</time>
      </trkpt>
      <trkpt lat="44.16335" lon="7.25188">
        <ele>2403.2</ele>
        <time>2019-08-10T08:18:46Z</time>
      </trkpt>
      <trkpt lat="44.1634" lon="7.25189">
        <ele>2402.4</ele>
        <time>2019-08-10T08:18:48Z</time>
      </trkpt>
      <trkpt lat="44.16351" lon="7.25212">
        <ele>2403.2</ele>
        <time>2019-08-10T08:18:57Z</time>
      </trkpt>
      <trkpt lat="44.16354" lon="7.25223">
        <ele>2401</ele>
        <time>2019-08-10T08:19:02Z</time>
      </trkpt>
      <trkpt lat="44.16369" lon="7.25208">
        <ele>2397.4</ele>
        <time>2019-08-10T08:19:10Z</time>
      </trkpt>
      <trkpt lat="44.16378" lon="7.25211">
        <ele>2395.6</ele>
        <time>2019-08-10T08:19:18Z</time>
      </trkpt>
      <trkpt lat="44.16381" lon="7.25217">
        <ele>2394.2</ele>
        <time>2019-08-10T08:19:22Z</time>
      </trkpt>
      <trkpt lat="44.16379" lon="7.25243">
        <ele>2390.9</ele>
        <time>2019-08-10T08:19:29Z</time>
      </trkpt>
      <trkpt lat="44.16378" lon="7.25248">
        <ele>2391.1</ele>
        <time>2019-08-10T08:19:31Z</time>
      </trkpt>
      <trkpt lat="44.16381" lon="7.25252">
        <ele>2390.6</ele>
        <time>2019-08-10T08:19:33Z</time>
      </trkpt>
      <trkpt lat="44.16395" lon="7.25258">
        <ele>2387.8</ele>
        <time>2019-08-10T08:19:40Z</time>
      </trkpt>
      <trkpt lat="44.16387" lon="7.2528">
        <ele>2385.9</ele>
        <time>2019-08-10T08:19:47Z</time>
      </trkpt>
      <trkpt lat="44.16384" lon="7.25294">
        <ele>2385.1</ele>
        <time>2019-08-10T08:19:51Z</time>
      </trkpt>
      <trkpt lat="44.16387" lon="7.25297">
        <ele>2384.8</ele>
        <time>2019-08-10T08:19:53Z</time>
      </trkpt>
      <trkpt lat="44.16405" lon="7.25304">
        <ele>2382.7</ele>
        <time>2019-08-10T08:20:04Z</time>
      </trkpt>
      <trkpt lat="44.16423" lon="7.25318">
        <ele>2381.2</ele>
        <time>2019-08-10T08:20:13Z</time>
      </trkpt>
      <trkpt lat="44.16437" lon="7.25329">
        <ele>2380.3</ele>
        <time>2019-08-10T08:20:25Z</time>
      </trkpt>
      <trkpt lat="44.16438" lon="7.25325">
        <ele>2380.3</ele>
        <time>2019-08-10T08:20:27Z</time>
      </trkpt>
      <trkpt lat="44.1644" lon="7.25306">
        <ele>2380.5</ele>
        <time>2019-08-10T08:20:34Z</time>
      </trkpt>
      <trkpt lat="44.16453" lon="7.25309">
        <ele>2380.5</ele>
        <time>2019-08-10T08:20:48Z</time>
      </trkpt>
      <trkpt lat="44.16445" lon="7.25332">
        <ele>2380.3</ele>
        <time>2019-08-10T08:21:07Z</time>
      </trkpt>
      <trkpt lat="44.16445" lon="7.25336">
        <ele>2380.3</ele>
        <time>2019-08-10T08:21:10Z</time>
      </trkpt>
      <trkpt lat="44.16456" lon="7.25356">
        <ele>2379.7</ele>
        <time>2019-08-10T08:21:25Z</time>
      </trkpt>
      <trkpt lat="44.16463" lon="7.25363">
        <ele>2379.5</ele>
        <time>2019-08-10T08:21:33Z</time>
      </trkpt>
      <trkpt lat="44.16467" lon="7.25364">
        <ele>2379.5</ele>
        <time>2019-08-10T08:21:37Z</time>
      </trkpt>
      <trkpt lat="44.16476" lon="7.25386">
        <ele>2379.4</ele>
        <time>2019-08-10T08:21:53Z</time>
      </trkpt>
      <trkpt lat="44.16489" lon="7.25393">
        <ele>2379.4</ele>
        <time>2019-08-10T08:22:06Z</time>
      </trkpt>
      <trkpt lat="44.16484" lon="7.2538">
        <ele>2379.5</ele>
        <time>2019-08-10T08:22:15Z</time>
      </trkpt>
      <trkpt lat="44.1649" lon="7.25357">
        <ele>2379.8</ele>
        <time>2019-08-10T08:22:30Z</time>
      </trkpt>
      <trkpt lat="44.16506" lon="7.25347">
        <ele>2380.3</ele>
        <time>2019-08-10T08:22:46Z</time>
      </trkpt>
      <trkpt lat="44.16514" lon="7.25356">
        <ele>2380.6</ele>
        <time>2019-08-10T08:22:56Z</time>
      </trkpt>
      <trkpt lat="44.16514" lon="7.25363">
        <ele>2380.8</ele>
        <time>2019-08-10T08:23:01Z</time>
      </trkpt>
      <trkpt lat="44.16512" lon="7.2537">
        <ele>2381</ele>
        <time>2019-08-10T08:23:08Z</time>
      </trkpt>
      <trkpt lat="44.16518" lon="7.25371">
        <ele>2381.2</ele>
        <time>2019-08-10T08:23:24Z</time>
      </trkpt>
      <trkpt lat="44.16525" lon="7.2538">
        <ele>2381.4</ele>
        <time>2019-08-10T08:23:38Z</time>
      </trkpt>
      <trkpt lat="44.16525" lon="7.25377">
        <ele>2381.5</ele>
        <time>2019-08-10T08:23:40Z</time>
      </trkpt>
      <trkpt lat="44.16534" lon="7.25357">
        <ele>2382.3</ele>
        <time>2019-08-10T08:23:53Z</time>
      </trkpt>
      <trkpt lat="44.1654" lon="7.25348">
        <ele>2383</ele>
        <time>2019-08-10T08:24:02Z</time>
      </trkpt>
      <trkpt lat="44.16543" lon="7.2537">
        <ele>2384.3</ele>
        <time>2019-08-10T08:24:15Z</time>
      </trkpt>
      <trkpt lat="44.16546" lon="7.25373">
        <ele>2384.6</ele>
        <time>2019-08-10T08:24:21Z</time>
      </trkpt>
      <trkpt lat="44.16546" lon="7.25371">
        <ele>2384.7</ele>
        <time>2019-08-10T08:24:23Z</time>
      </trkpt>
      <trkpt lat="44.16547" lon="7.25368">
        <ele>2384.9</ele>
        <time>2019-08-10T08:24:25Z</time>
      </trkpt>
      <trkpt lat="44.16563" lon="7.25363">
        <ele>2390.8</ele>
        <time>2019-08-10T08:24:45Z</time>
      </trkpt>
      <trkpt lat="44.16575" lon="7.25345">
        <ele>2391.6</ele>
        <time>2019-08-10T08:25:02Z</time>
      </trkpt>
      <trkpt lat="44.16585" lon="7.2533">
        <ele>2392.1</ele>
        <time>2019-08-10T08:25:17Z</time>
      </trkpt>
      <trkpt lat="44.16591" lon="7.25317">
        <ele>2392.5</ele>
        <time>2019-08-10T08:25:40Z</time>
      </trkpt>
      <trkpt lat="44.16609" lon="7.25311">
        <ele>2393</ele>
        <time>2019-08-10T08:25:59Z</time>
      </trkpt>
      <trkpt lat="44.16626" lon="7.25297">
        <ele>2393.5</ele>
        <time>2019-08-10T08:26:06Z</time>
      </trkpt>
      <trkpt lat="44.16641" lon="7.25283">
        <ele>2393.8</ele>
        <time>2019-08-10T08:26:13Z</time>
      </trkpt>
      <trkpt lat="44.16659" lon="7.25273">
        <ele>2394.2</ele>
        <time>2019-08-10T08:26:23Z</time>
      </trkpt>
      <trkpt lat="44.16677" lon="7.25263">
        <ele>2395</ele>
        <time>2019-08-10T08:26:33Z</time>
      </trkpt>
      <trkpt lat="44.16695" lon="7.25254">
        <ele>2396</ele>
        <time>2019-08-10T08:26:42Z</time>
      </trkpt>
      <trkpt lat="44.16714" lon="7.2525">
        <ele>2397.2</ele>
        <time>2019-08-10T08:26:53Z</time>
      </trkpt>
      <trkpt lat="44.16722" lon="7.25252">
        <ele>2397.8</ele>
        <time>2019-08-10T08:27:03Z</time>
      </trkpt>
      <trkpt lat="44.16722" lon="7.25253">
        <ele>2397.8</ele>
        <time>2019-08-10T08:27:07Z</time>
      </trkpt>
      <trkpt lat="44.16721" lon="7.25255">
        <ele>2397.9</ele>
        <time>2019-08-10T08:27:10Z</time>
      </trkpt>
      <trkpt lat="44.16719" lon="7.25254">
        <ele>2398</ele>
        <time>2019-08-10T08:27:16Z</time>
      </trkpt>
      <trkpt lat="44.1672" lon="7.25254">
        <ele>2398</ele>
        <time>2019-08-10T08:27:19Z</time>
      </trkpt>
      <trkpt lat="44.16722" lon="7.25253">
        <ele>2398.1</ele>
        <time>2019-08-10T08:27:22Z</time>
      </trkpt>
      <trkpt lat="44.16724" lon="7.25253">
        <ele>2398.2</ele>
        <time>2019-08-10T08:27:24Z</time>
      </trkpt>
      <trkpt lat="44.16743" lon="7.25251">
        <ele>2399</ele>
        <time>2019-08-10T08:27:36Z</time>
      </trkpt>
      <trkpt lat="44.16763" lon="7.25252">
        <ele>2399.6</ele>
        <time>2019-08-10T08:27:42Z</time>
      </trkpt>
      <trkpt lat="44.16783" lon="7.25253">
        <ele>2400.2</ele>
        <time>2019-08-10T08:27:49Z</time>
      </trkpt>
      <trkpt lat="44.16803" lon="7.25247">
        <ele>2400.8</ele>
        <time>2019-08-10T08:27:56Z</time>
      </trkpt>
      <trkpt lat="44.16816" lon="7.25227">
        <ele>2401.4</ele>
        <time>2019-08-10T08:28:04Z</time>
      </trkpt>
      <trkpt lat="44.16827" lon="7.25205">
        <ele>2402</ele>
        <time>2019-08-10T08:28:12Z</time>
      </trkpt>
      <trkpt lat="44.16842" lon="7.25192">
        <ele>2402.8</ele>
        <time>2019-08-10T08:28:20Z</time>
      </trkpt>
      <trkpt lat="44.16861" lon="7.25191">
        <ele>2403.5</ele>
        <time>2019-08-10T08:28:32Z</time>
      </trkpt>
      <trkpt lat="44.1688" lon="7.25191">
        <ele>2404.2</ele>
        <time>2019-08-10T08:28:46Z</time>
      </trkpt>
      <trkpt lat="44.16898" lon="7.25195">
        <ele>2404.8</ele>
        <time>2019-08-10T08:28:59Z</time>
      </trkpt>
      <trkpt lat="44.16917" lon="7.25199">
        <ele>2405.4</ele>
        <time>2019-08-10T08:29:07Z</time>
      </trkpt>
      <trkpt lat="44.16937" lon="7.252">
        <ele>2404.3</ele>
        <time>2019-08-10T08:29:15Z</time>
      </trkpt>
      <trkpt lat="44.16956" lon="7.25199">
        <ele>2402.9</ele>
        <time>2019-08-10T08:29:22Z</time>
      </trkpt>
      <trkpt lat="44.16976" lon="7.252">
        <ele>2401</ele>
        <time>2019-08-10T08:29:29Z</time>
      </trkpt>
      <trkpt lat="44.16995" lon="7.25206">
        <ele>2398.8</ele>
        <time>2019-08-10T08:29:36Z</time>
      </trkpt>
      <trkpt lat="44.17013" lon="7.25211">
        <ele>2395.5</ele>
        <time>2019-08-10T08:29:43Z</time>
      </trkpt>
      <trkpt lat="44.1703" lon="7.2522">
        <ele>2392.5</ele>
        <time>2019-08-10T08:29:50Z</time>
      </trkpt>
      <trkpt lat="44.17035" lon="7.25228">
        <ele>2391.4</ele>
        <time>2019-08-10T08:29:53Z</time>
      </trkpt>
      <trkpt lat="44.17028" lon="7.25253">
        <ele>2388.4</ele>
        <time>2019-08-10T08:30:00Z</time>
      </trkpt>
      <trkpt lat="44.17027" lon="7.25254">
        <ele>2388.3</ele>
        <time>2019-08-10T08:30:03Z</time>
      </trkpt>
      <trkpt lat="44.17032" lon="7.25258">
        <ele>2387.8</ele>
        <time>2019-08-10T08:30:21Z</time>
      </trkpt>
      <trkpt lat="44.17037" lon="7.25258">
        <ele>2387.5</ele>
        <time>2019-08-10T08:30:26Z</time>
      </trkpt>
      <trkpt lat="44.17049" lon="7.2524">
        <ele>2386.3</ele>
        <time>2019-08-10T08:30:35Z</time>
      </trkpt>
      <trkpt lat="44.17054" lon="7.25231">
        <ele>2385.9</ele>
        <time>2019-08-10T08:30:40Z</time>
      </trkpt>
      <trkpt lat="44.17057" lon="7.25232">
        <ele>2385.8</ele>
        <time>2019-08-10T08:30:42Z</time>
      </trkpt>
      <trkpt lat="44.17068" lon="7.25252">
        <ele>2385.3</ele>
        <time>2019-08-10T08:30:52Z</time>
      </trkpt>
      <trkpt lat="44.17069" lon="7.25251">
        <ele>2385.3</ele>
        <time>2019-08-10T08:30:54Z</time>
      </trkpt>
      <trkpt lat="44.17067" lon="7.25234">
        <ele>2385.1</ele>
        <time>2019-08-10T08:31:01Z</time>
      </trkpt>
      <trkpt lat="44.17069" lon="7.25236">
        <ele>2385.1</ele>
        <time>2019-08-10T08:31:03Z</time>
      </trkpt>
      <trkpt lat="44.17078" lon="7.2526">
        <ele>2385.1</ele>
        <time>2019-08-10T08:31:10Z</time>
      </trkpt>
      <trkpt lat="44.17085" lon="7.25269">
        <ele>2385.2</ele>
        <time>2019-08-10T08:31:15Z</time>
      </trkpt>
      <trkpt lat="44.17092" lon="7.25258">
        <ele>2385.6</ele>
        <time>2019-08-10T08:31:39Z</time>
      </trkpt>
      <trkpt lat="44.17104" lon="7.25241">
        <ele>2386.8</ele>
        <time>2019-08-10T08:32:06Z</time>
      </trkpt>
      <trkpt lat="44.17119" lon="7.25224">
        <ele>2388.1</ele>
        <time>2019-08-10T08:32:20Z</time>
      </trkpt>
      <trkpt lat="44.17135" lon="7.25207">
        <ele>2391</ele>
        <time>2019-08-10T08:32:33Z</time>
      </trkpt>
      <trkpt lat="44.1715" lon="7.25191">
        <ele>2394.1</ele>
        <time>2019-08-10T08:32:42Z</time>
      </trkpt>
      <trkpt lat="44.17164" lon="7.25174">
        <ele>2395.4</ele>
        <time>2019-08-10T08:32:51Z</time>
      </trkpt>
      <trkpt lat="44.17172" lon="7.25172">
        <ele>2395.6</ele>
        <time>2019-08-10T08:32:54Z</time>
      </trkpt>
      <trkpt lat="44.17178" lon="7.25176">
        <ele>2395.5</ele>
        <time>2019-08-10T08:32:56Z</time>
      </trkpt>
      <trkpt lat="44.17193" lon="7.25188">
        <ele>2394.5</ele>
        <time>2019-08-10T08:33:03Z</time>
      </trkpt>
      <trkpt lat="44.17211" lon="7.25193">
        <ele>2394</ele>
        <time>2019-08-10T08:33:11Z</time>
      </trkpt>
      <trkpt lat="44.17227" lon="7.25205">
        <ele>2394.9</ele>
        <time>2019-08-10T08:33:22Z</time>
      </trkpt>
      <trkpt lat="44.17246" lon="7.25216">
        <ele>2396.2</ele>
        <time>2019-08-10T08:33:32Z</time>
      </trkpt>
      <trkpt lat="44.17264" lon="7.25223">
        <ele>2396.8</ele>
        <time>2019-08-10T08:33:40Z</time>
      </trkpt>
      <trkpt lat="44.17282" lon="7.25226">
        <ele>2397</ele>
        <time>2019-08-10T08:33:47Z</time>
      </trkpt>
      <trkpt lat="44.17301" lon="7.25222">
        <ele>2396.8</ele>
        <time>2019-08-10T08:33:55Z</time>
      </trkpt>
      <trkpt lat="44.17318" lon="7.25213">
        <ele>2395.5</ele>
        <time>2019-08-10T08:34:02Z</time>
      </trkpt>
      <trkpt lat="44.17335" lon="7.25203">
        <ele>2393.3</ele>
        <time>2019-08-10T08:34:10Z</time>
      </trkpt>
      <trkpt lat="44.17354" lon="7.25194">
        <ele>2388.4</ele>
        <time>2019-08-10T08:34:20Z</time>
      </trkpt>
      <trkpt lat="44.17371" lon="7.25201">
        <ele>2384.2</ele>
        <time>2019-08-10T08:34:28Z</time>
      </trkpt>
      <trkpt lat="44.17373" lon="7.25204">
        <ele>2383.7</ele>
        <time>2019-08-10T08:34:32Z</time>
      </trkpt>
      <trkpt lat="44.17387" lon="7.2522">
        <ele>2380.6</ele>
        <time>2019-08-10T08:34:59Z</time>
      </trkpt>
      <trkpt lat="44.17392" lon="7.25228">
        <ele>2379.5</ele>
        <time>2019-08-10T08:35:06Z</time>
      </trkpt>
      <trkpt lat="44.17388" lon="7.25205">
        <ele>2376.2</ele>
        <time>2019-08-10T08:35:22Z</time>
      </trkpt>
      <trkpt lat="44.17382" lon="7.2518">
        <ele>2372</ele>
        <time>2019-08-10T08:35:30Z</time>
      </trkpt>
      <trkpt lat="44.17377" lon="7.25167">
        <ele>2369.9</ele>
        <time>2019-08-10T08:35:37Z</time>
      </trkpt>
      <trkpt lat="44.17396" lon="7.2516">
        <ele>2366.3</ele>
        <time>2019-08-10T08:35:45Z</time>
      </trkpt>
      <trkpt lat="44.17416" lon="7.25163">
        <ele>2363.9</ele>
        <time>2019-08-10T08:35:52Z</time>
      </trkpt>
      <trkpt lat="44.17435" lon="7.25164">
        <ele>2362</ele>
        <time>2019-08-10T08:36:00Z</time>
      </trkpt>
      <trkpt lat="44.17453" lon="7.25164">
        <ele>2360.5</ele>
        <time>2019-08-10T08:36:07Z</time>
      </trkpt>
      <trkpt lat="44.17456" lon="7.25167">
        <ele>2360.3</ele>
        <time>2019-08-10T08:36:11Z</time>
      </trkpt>
      <trkpt lat="44.17473" lon="7.25171">
        <ele>2360.1</ele>
        <time>2019-08-10T08:36:34Z</time>
      </trkpt>
      <trkpt lat="44.1749" lon="7.25171">
        <ele>2360.4</ele>
        <time>2019-08-10T08:36:39Z</time>
      </trkpt>
      <trkpt lat="44.17505" lon="7.25185">
        <ele>2360.7</ele>
        <time>2019-08-10T08:36:45Z</time>
      </trkpt>
      <trkpt lat="44.17523" lon="7.25191">
        <ele>2361</ele>
        <time>2019-08-10T08:36:53Z</time>
      </trkpt>
      <trkpt lat="44.17526" lon="7.25192">
        <ele>2361.3</ele>
        <time>2019-08-10T08:36:56Z</time>
      </trkpt>
      <trkpt lat="44.17533" lon="7.25191">
        <ele>2362.1</ele>
        <time>2019-08-10T08:37:08Z</time>
      </trkpt>
      <trkpt lat="44.17527" lon="7.25176">
        <ele>2363.7</ele>
        <time>2019-08-10T08:37:22Z</time>
      </trkpt>
      <trkpt lat="44.17541" lon="7.25172">
        <ele>2364.7</ele>
        <time>2019-08-10T08:37:43Z</time>
      </trkpt>
      <trkpt lat="44.17547" lon="7.25169">
        <ele>2365</ele>
        <time>2019-08-10T08:37:53Z</time>
      </trkpt>
      <trkpt lat="44.17549" lon="7.25169">
        <ele>2365</ele>
        <time>2019-08-10T08:37:55Z</time>
      </trkpt>
      <trkpt lat="44.17554" lon="7.25171">
        <ele>2365.6</ele>
        <time>2019-08-10T08:38:06Z</time>
      </trkpt>
      <trkpt lat="44.17556" lon="7.25171">
        <ele>2366</ele>
        <time>2019-08-10T08:38:08Z</time>
      </trkpt>
      <trkpt lat="44.17573" lon="7.25163">
        <ele>2368.4</ele>
        <time>2019-08-10T08:38:27Z</time>
      </trkpt>
      <trkpt lat="44.17591" lon="7.25161">
        <ele>2371.9</ele>
        <time>2019-08-10T08:38:42Z</time>
      </trkpt>
      <trkpt lat="44.1761" lon="7.25154">
        <ele>2375.6</ele>
        <time>2019-08-10T08:39:00Z</time>
      </trkpt>
      <trkpt lat="44.17628" lon="7.2515">
        <ele>2380.8</ele>
        <time>2019-08-10T08:39:15Z</time>
      </trkpt>
      <trkpt lat="44.17646" lon="7.25146">
        <ele>2386</ele>
        <time>2019-08-10T08:39:30Z</time>
      </trkpt>
      <trkpt lat="44.17664" lon="7.25139">
        <ele>2391.5</ele>
        <time>2019-08-10T08:39:40Z</time>
      </trkpt>
      <trkpt lat="44.17681" lon="7.25131">
        <ele>2396.5</ele>
        <time>2019-08-10T08:39:53Z</time>
      </trkpt>
      <trkpt lat="44.1769" lon="7.25128">
        <ele>2398.9</ele>
        <time>2019-08-10T08:40:04Z</time>
      </trkpt>
      <trkpt lat="44.17706" lon="7.25117">
        <ele>2402.9</ele>
        <time>2019-08-10T08:40:18Z</time>
      </trkpt>
      <trkpt lat="44.17716" lon="7.25108">
        <ele>2405.8</ele>
        <time>2019-08-10T08:40:30Z</time>
      </trkpt>
      <trkpt lat="44.17729" lon="7.25097">
        <ele>2408.5</ele>
        <time>2019-08-10T08:40:45Z</time>
      </trkpt>
      <trkpt lat="44.17741" lon="7.25086">
        <ele>2411.9</ele>
        <time>2019-08-10T08:40:58Z</time>
      </trkpt>
      <trkpt lat="44.17757" lon="7.25074">
        <ele>2414.7</ele>
        <time>2019-08-10T08:41:13Z</time>
      </trkpt>
      <trkpt lat="44.17765" lon="7.25066">
        <ele>2416.2</ele>
        <time>2019-08-10T08:41:22Z</time>
      </trkpt>
      <trkpt lat="44.17779" lon="7.2505">
        <ele>2418.9</ele>
        <time>2019-08-10T08:41:38Z</time>
      </trkpt>
      <trkpt lat="44.17792" lon="7.25031">
        <ele>2422.2</ele>
        <time>2019-08-10T08:41:57Z</time>
      </trkpt>
      <trkpt lat="44.17808" lon="7.25018">
        <ele>2425.5</ele>
        <time>2019-08-10T08:42:13Z</time>
      </trkpt>
      <trkpt lat="44.17824" lon="7.25005">
        <ele>2429.9</ele>
        <time>2019-08-10T08:42:30Z</time>
      </trkpt>
      <trkpt lat="44.1784" lon="7.24992">
        <ele>2435</ele>
        <time>2019-08-10T08:42:47Z</time>
      </trkpt>
      <trkpt lat="44.17844" lon="7.24991">
        <ele>2436</ele>
        <time>2019-08-10T08:42:50Z</time>
      </trkpt>
      <trkpt lat="44.17861" lon="7.24983">
        <ele>2439.9</ele>
        <time>2019-08-10T08:43:05Z</time>
      </trkpt>
      <trkpt lat="44.17874" lon="7.24965">
        <ele>2444.1</ele>
        <time>2019-08-10T08:43:19Z</time>
      </trkpt>
      <trkpt lat="44.1789" lon="7.2495">
        <ele>2446.3</ele>
        <time>2019-08-10T08:43:33Z</time>
      </trkpt>
      <trkpt lat="44.17896" lon="7.24947">
        <ele>2446.7</ele>
        <time>2019-08-10T08:43:41Z</time>
      </trkpt>
      <trkpt lat="44.17901" lon="7.24941">
        <ele>2446.9</ele>
        <time>2019-08-10T08:44:09Z</time>
      </trkpt>
      <trkpt lat="44.1792" lon="7.24938">
        <ele>2446.7</ele>
        <time>2019-08-10T08:44:20Z</time>
      </trkpt>
      <trkpt lat="44.1794" lon="7.24937">
        <ele>2445.1</ele>
        <time>2019-08-10T08:44:29Z</time>
      </trkpt>
      <trkpt lat="44.17955" lon="7.24924">
        <ele>2443</ele>
        <time>2019-08-10T08:44:38Z</time>
      </trkpt>
      <trkpt lat="44.17971" lon="7.24912">
        <ele>2440.3</ele>
        <time>2019-08-10T08:44:50Z</time>
      </trkpt>
      <trkpt lat="44.17975" lon="7.24887">
        <ele>2437.9</ele>
        <time>2019-08-10T08:45:03Z</time>
      </trkpt>
      <trkpt lat="44.17978" lon="7.24861">
        <ele>2432.4</ele>
        <time>2019-08-10T08:45:12Z</time>
      </trkpt>
      <trkpt lat="44.17982" lon="7.24853">
        <ele>2430.6</ele>
        <time>2019-08-10T08:45:21Z</time>
      </trkpt>
      <trkpt lat="44.17987" lon="7.24855">
        <ele>2428.9</ele>
        <time>2019-08-10T08:45:30Z</time>
      </trkpt>
      <trkpt lat="44.18" lon="7.24842">
        <ele>2423.7</ele>
        <time>2019-08-10T08:45:45Z</time>
      </trkpt>
      <trkpt lat="44.18" lon="7.24836">
        <ele>2421.8</ele>
        <time>2019-08-10T08:46:37Z</time>
      </trkpt>
      <trkpt lat="44.18014" lon="7.24823">
        <ele>2415.8</ele>
        <time>2019-08-10T08:46:58Z</time>
      </trkpt>
      <trkpt lat="44.18017" lon="7.24819">
        <ele>2414.2</ele>
        <time>2019-08-10T08:47:01Z</time>
      </trkpt>
      <trkpt lat="44.18019" lon="7.24805">
        <ele>2410.3</ele>
        <time>2019-08-10T08:47:12Z</time>
      </trkpt>
      <trkpt lat="44.18037" lon="7.24802">
        <ele>2403</ele>
        <time>2019-08-10T08:47:23Z</time>
      </trkpt>
      <trkpt lat="44.18045" lon="7.24799">
        <ele>2400.9</ele>
        <time>2019-08-10T08:47:29Z</time>
      </trkpt>
      <trkpt lat="44.18044" lon="7.24796">
        <ele>2400.1</ele>
        <time>2019-08-10T08:47:31Z</time>
      </trkpt>
      <trkpt lat="44.18035" lon="7.24789">
        <ele>2396.6</ele>
        <time>2019-08-10T08:47:38Z</time>
      </trkpt>
      <trkpt lat="44.18036" lon="7.24783">
        <ele>2394.9</ele>
        <time>2019-08-10T08:47:41Z</time>
      </trkpt>
      <trkpt lat="44.18051" lon="7.24772">
        <ele>2393.5</ele>
        <time>2019-08-10T08:47:54Z</time>
      </trkpt>
      <trkpt lat="44.18051" lon="7.24765">
        <ele>2391.3</ele>
        <time>2019-08-10T08:47:59Z</time>
      </trkpt>
      <trkpt lat="44.18045" lon="7.24743">
        <ele>2383.6</ele>
        <time>2019-08-10T08:48:10Z</time>
      </trkpt>
      <trkpt lat="44.18049" lon="7.24724">
        <ele>2379.5</ele>
        <time>2019-08-10T08:48:23Z</time>
      </trkpt>
      <trkpt lat="44.18057" lon="7.24725">
        <ele>2376.4</ele>
        <time>2019-08-10T08:48:30Z</time>
      </trkpt>
      <trkpt lat="44.18074" lon="7.24721">
        <ele>2370.4</ele>
        <time>2019-08-10T08:48:53Z</time>
      </trkpt>
      <trkpt lat="44.18092" lon="7.24722">
        <ele>2364.6</ele>
        <time>2019-08-10T08:48:59Z</time>
      </trkpt>
      <trkpt lat="44.18111" lon="7.24719">
        <ele>2357.4</ele>
        <time>2019-08-10T08:49:05Z</time>
      </trkpt>
      <trkpt lat="44.18128" lon="7.24715">
        <ele>2352</ele>
        <time>2019-08-10T08:49:20Z</time>
      </trkpt>
      <trkpt lat="44.18134" lon="7.24736">
        <ele>2349.7</ele>
        <time>2019-08-10T08:49:29Z</time>
      </trkpt>
      <trkpt lat="44.18136" lon="7.24737">
        <ele>2350</ele>
        <time>2019-08-10T08:49:31Z</time>
      </trkpt>
      <trkpt lat="44.18138" lon="7.24709">
        <ele>2353.8</ele>
        <time>2019-08-10T08:49:41Z</time>
      </trkpt>
      <trkpt lat="44.18144" lon="7.24701">
        <ele>2351.7</ele>
        <time>2019-08-10T08:49:46Z</time>
      </trkpt>
      <trkpt lat="44.18145" lon="7.24705">
        <ele>2351</ele>
        <time>2019-08-10T08:49:49Z</time>
      </trkpt>
      <trkpt lat="44.18153" lon="7.24729">
        <ele>2344</ele>
        <time>2019-08-10T08:49:58Z</time>
      </trkpt>
      <trkpt lat="44.18166" lon="7.2475">
        <ele>2345.7</ele>
        <time>2019-08-10T08:50:05Z</time>
      </trkpt>
      <trkpt lat="44.18183" lon="7.24763">
        <ele>2349.2</ele>
        <time>2019-08-10T08:50:14Z</time>
      </trkpt>
      <trkpt lat="44.182" lon="7.24774">
        <ele>2350.4</ele>
        <time>2019-08-10T08:50:21Z</time>
      </trkpt>
      <trkpt lat="44.18215" lon="7.24789">
        <ele>2349.3</ele>
        <time>2019-08-10T08:50:31Z</time>
      </trkpt>
      <trkpt lat="44.18223" lon="7.24783">
        <ele>2351</ele>
        <time>2019-08-10T08:50:41Z</time>
      </trkpt>
      <trkpt lat="44.18223" lon="7.24778">
        <ele>2350.1</ele>
        <time>2019-08-10T08:50:45Z</time>
      </trkpt>
      <trkpt lat="44.18224" lon="7.24771">
        <ele>2349</ele>
        <time>2019-08-10T08:50:49Z</time>
      </trkpt>
      <trkpt lat="44.18229" lon="7.24746">
        <ele>2344.8</ele>
        <time>2019-08-10T08:51:05Z</time>
      </trkpt>
      <trkpt lat="44.18234" lon="7.24718">
        <ele>2340.2</ele>
        <time>2019-08-10T08:51:15Z</time>
      </trkpt>
      <trkpt lat="44.1824" lon="7.24692">
        <ele>2336.1</ele>
        <time>2019-08-10T08:51:24Z</time>
      </trkpt>
      <trkpt lat="44.18245" lon="7.24667">
        <ele>2333.4</ele>
        <time>2019-08-10T08:51:33Z</time>
      </trkpt>
      <trkpt lat="44.18252" lon="7.24642">
        <ele>2330.8</ele>
        <time>2019-08-10T08:51:42Z</time>
      </trkpt>
      <trkpt lat="44.18258" lon="7.24617">
        <ele>2329</ele>
        <time>2019-08-10T08:51:50Z</time>
      </trkpt>
      <trkpt lat="44.18263" lon="7.24591">
        <ele>2328.3</ele>
        <time>2019-08-10T08:51:58Z</time>
      </trkpt>
      <trkpt lat="44.18273" lon="7.24567">
        <ele>2326</ele>
        <time>2019-08-10T08:52:06Z</time>
      </trkpt>
      <trkpt lat="44.18284" lon="7.24547">
        <ele>2324.5</ele>
        <time>2019-08-10T08:52:13Z</time>
      </trkpt>
      <trkpt lat="44.18296" lon="7.24523">
        <ele>2322.3</ele>
        <time>2019-08-10T08:52:21Z</time>
      </trkpt>
      <trkpt lat="44.18303" lon="7.24498">
        <ele>2318.5</ele>
        <time>2019-08-10T08:52:30Z</time>
      </trkpt>
      <trkpt lat="44.18305" lon="7.24474">
        <ele>2316.8</ele>
        <time>2019-08-10T08:52:39Z</time>
      </trkpt>
      <trkpt lat="44.18306" lon="7.24461">
        <ele>2314.6</ele>
        <time>2019-08-10T08:52:45Z</time>
      </trkpt>
      <trkpt lat="44.18306" lon="7.24458">
        <ele>2313.8</ele>
        <time>2019-08-10T08:53:21Z</time>
      </trkpt>
      <trkpt lat="44.18306" lon="7.2445">
        <ele>2312.2</ele>
        <time>2019-08-10T08:53:29Z</time>
      </trkpt>
      <trkpt lat="44.1831" lon="7.24452">
        <ele>2311</ele>
        <time>2019-08-10T08:54:48Z</time>
      </trkpt>
      <trkpt lat="44.18307" lon="7.2445">
        <ele>2310.1</ele>
        <time>2019-08-10T08:57:10Z</time>
      </trkpt>
      <trkpt lat="44.18306" lon="7.24451">
        <ele>2309.7</ele>
        <time>2019-08-10T08:58:25Z</time>
      </trkpt>
      <trkpt lat="44.18307" lon="7.24451">
        <ele>2309.5</ele>
        <time>2019-08-10T08:58:27Z</time>
      </trkpt>
      <trkpt lat="44.18308" lon="7.24446">
        <ele>2308.3</ele>
        <time>2019-08-10T09:00:45Z</time>
      </trkpt>
      <trkpt lat="44.18315" lon="7.24434">
        <ele>2306.9</ele>
        <time>2019-08-10T09:01:18Z</time>
      </trkpt>
      <trkpt lat="44.18317" lon="7.24431">
        <ele>2306.5</ele>
        <time>2019-08-10T09:01:21Z</time>
      </trkpt>
      <trkpt lat="44.1833" lon="7.24414">
        <ele>2305.2</ele>
        <time>2019-08-10T09:01:37Z</time>
      </trkpt>
      <trkpt lat="44.18348" lon="7.24419">
        <ele>2309.4</ele>
        <time>2019-08-10T09:01:47Z</time>
      </trkpt>
      <trkpt lat="44.18368" lon="7.24427">
        <ele>2316.8</ele>
        <time>2019-08-10T09:01:54Z</time>
      </trkpt>
      <trkpt lat="44.18386" lon="7.24422">
        <ele>2324.5</ele>
        <time>2019-08-10T09:02:02Z</time>
      </trkpt>
      <trkpt lat="44.18394" lon="7.24399">
        <ele>2324</ele>
        <time>2019-08-10T09:02:10Z</time>
      </trkpt>
      <trkpt lat="44.18394" lon="7.24373">
        <ele>2322.1</ele>
        <time>2019-08-10T09:02:22Z</time>
      </trkpt>
      <trkpt lat="44.18387" lon="7.24351">
        <ele>2315.6</ele>
        <time>2019-08-10T09:02:31Z</time>
      </trkpt>
      <trkpt lat="44.18384" lon="7.24347">
        <ele>2313.8</ele>
        <time>2019-08-10T09:02:33Z</time>
      </trkpt>
      <trkpt lat="44.18367" lon="7.24331">
        <ele>2303.5</ele>
        <time>2019-08-10T09:02:40Z</time>
      </trkpt>
      <trkpt lat="44.18359" lon="7.24309">
        <ele>2294.5</ele>
        <time>2019-08-10T09:02:46Z</time>
      </trkpt>
      <trkpt lat="44.18364" lon="7.24285">
        <ele>2291</ele>
        <time>2019-08-10T09:02:53Z</time>
      </trkpt>
      <trkpt lat="44.18365" lon="7.24279">
        <ele>2290</ele>
        <time>2019-08-10T09:02:58Z</time>
      </trkpt>
      <trkpt lat="44.18363" lon="7.24266">
        <ele>2286.1</ele>
        <time>2019-08-10T09:03:24Z</time>
      </trkpt>
      <trkpt lat="44.18363" lon="7.24264">
        <ele>2285.6</ele>
        <time>2019-08-10T09:03:27Z</time>
      </trkpt>
      <trkpt lat="44.18366" lon="7.2424">
        <ele>2281.4</ele>
        <time>2019-08-10T09:03:43Z</time>
      </trkpt>
      <trkpt lat="44.18377" lon="7.24219">
        <ele>2276.6</ele>
        <time>2019-08-10T09:03:52Z</time>
      </trkpt>
      <trkpt lat="44.18391" lon="7.24202">
        <ele>2273.3</ele>
        <time>2019-08-10T09:04:02Z</time>
      </trkpt>
      <trkpt lat="44.18406" lon="7.24186">
        <ele>2268.8</ele>
        <time>2019-08-10T09:04:11Z</time>
      </trkpt>
      <trkpt lat="44.18426" lon="7.24187">
        <ele>2272.1</ele>
        <time>2019-08-10T09:04:19Z</time>
      </trkpt>
      <trkpt lat="44.18429" lon="7.24179">
        <ele>2271.6</ele>
        <time>2019-08-10T09:04:23Z</time>
      </trkpt>
      <trkpt lat="44.18432" lon="7.24158">
        <ele>2266.5</ele>
        <time>2019-08-10T09:04:32Z</time>
      </trkpt>
      <trkpt lat="44.18439" lon="7.24138">
        <ele>2263.1</ele>
        <time>2019-08-10T09:04:45Z</time>
      </trkpt>
      <trkpt lat="44.18439" lon="7.24137">
        <ele>2262.5</ele>
        <time>2019-08-10T09:04:48Z</time>
      </trkpt>
      <trkpt lat="44.18436" lon="7.24138">
        <ele>2260.7</ele>
        <time>2019-08-10T09:04:52Z</time>
      </trkpt>
      <trkpt lat="44.18423" lon="7.24145">
        <ele>2256.5</ele>
        <time>2019-08-10T09:05:04Z</time>
      </trkpt>
      <trkpt lat="44.1842" lon="7.24142">
        <ele>2256.3</ele>
        <time>2019-08-10T09:05:07Z</time>
      </trkpt>
      <trkpt lat="44.18421" lon="7.24138">
        <ele>2255.7</ele>
        <time>2019-08-10T09:05:10Z</time>
      </trkpt>
      <trkpt lat="44.18438" lon="7.24127">
        <ele>2253.4</ele>
        <time>2019-08-10T09:05:20Z</time>
      </trkpt>
      <trkpt lat="44.18455" lon="7.24116">
        <ele>2251.5</ele>
        <time>2019-08-10T09:05:32Z</time>
      </trkpt>
      <trkpt lat="44.18461" lon="7.24122">
        <ele>2253.1</ele>
        <time>2019-08-10T09:05:36Z</time>
      </trkpt>
      <trkpt lat="44.18462" lon="7.24121">
        <ele>2253.9</ele>
        <time>2019-08-10T09:05:38Z</time>
      </trkpt>
      <trkpt lat="44.18461" lon="7.24117">
        <ele>2255.4</ele>
        <time>2019-08-10T09:05:40Z</time>
      </trkpt>
      <trkpt lat="44.18454" lon="7.24103">
        <ele>2253.8</ele>
        <time>2019-08-10T09:05:45Z</time>
      </trkpt>
      <trkpt lat="44.18436" lon="7.24103">
        <ele>2247.7</ele>
        <time>2019-08-10T09:05:54Z</time>
      </trkpt>
      <trkpt lat="44.18434" lon="7.24102">
        <ele>2247.8</ele>
        <time>2019-08-10T09:05:56Z</time>
      </trkpt>
      <trkpt lat="44.1845" lon="7.24087">
        <ele>2244.1</ele>
        <time>2019-08-10T09:06:06Z</time>
      </trkpt>
      <trkpt lat="44.18467" lon="7.24072">
        <ele>2240.3</ele>
        <time>2019-08-10T09:06:15Z</time>
      </trkpt>
      <trkpt lat="44.18477" lon="7.24064">
        <ele>2239.2</ele>
        <time>2019-08-10T09:06:21Z</time>
      </trkpt>
      <trkpt lat="44.18487" lon="7.24072">
        <ele>2239.8</ele>
        <time>2019-08-10T09:06:32Z</time>
      </trkpt>
      <trkpt lat="44.1849" lon="7.24049">
        <ele>2245.2</ele>
        <time>2019-08-10T09:06:41Z</time>
      </trkpt>
      <trkpt lat="44.18505" lon="7.24033">
        <ele>2237</ele>
        <time>2019-08-10T09:06:49Z</time>
      </trkpt>
      <trkpt lat="44.18521" lon="7.24017">
        <ele>2231.6</ele>
        <time>2019-08-10T09:06:58Z</time>
      </trkpt>
      <trkpt lat="44.18534" lon="7.24">
        <ele>2229.1</ele>
        <time>2019-08-10T09:07:06Z</time>
      </trkpt>
      <trkpt lat="44.18547" lon="7.2398">
        <ele>2225.9</ele>
        <time>2019-08-10T09:07:14Z</time>
      </trkpt>
      <trkpt lat="44.1855" lon="7.23971">
        <ele>2225.1</ele>
        <time>2019-08-10T09:07:18Z</time>
      </trkpt>
      <trkpt lat="44.18546" lon="7.23965">
        <ele>2224.7</ele>
        <time>2019-08-10T09:07:21Z</time>
      </trkpt>
      <trkpt lat="44.18548" lon="7.23962">
        <ele>2224.5</ele>
        <time>2019-08-10T09:07:23Z</time>
      </trkpt>
      <trkpt lat="44.18556" lon="7.23958">
        <ele>2224</ele>
        <time>2019-08-10T09:07:29Z</time>
      </trkpt>
      <trkpt lat="44.18551" lon="7.23954">
        <ele>2223.5</ele>
        <time>2019-08-10T09:07:32Z</time>
      </trkpt>
      <trkpt lat="44.18547" lon="7.23952">
        <ele>2221.6</ele>
        <time>2019-08-10T09:07:35Z</time>
      </trkpt>
      <trkpt lat="44.18563" lon="7.2394">
        <ele>2220.3</ele>
        <time>2019-08-10T09:07:48Z</time>
      </trkpt>
      <trkpt lat="44.18577" lon="7.23924">
        <ele>2216.4</ele>
        <time>2019-08-10T09:08:02Z</time>
      </trkpt>
      <trkpt lat="44.18579" lon="7.23898">
        <ele>2216.7</ele>
        <time>2019-08-10T09:08:15Z</time>
      </trkpt>
      <trkpt lat="44.18583" lon="7.23888">
        <ele>2214.8</ele>
        <time>2019-08-10T09:08:22Z</time>
      </trkpt>
      <trkpt lat="44.18594" lon="7.2387">
        <ele>2208</ele>
        <time>2019-08-10T09:08:38Z</time>
      </trkpt>
      <trkpt lat="44.186" lon="7.23864">
        <ele>2205</ele>
        <time>2019-08-10T09:08:46Z</time>
      </trkpt>
      <trkpt lat="44.18602" lon="7.23866">
        <ele>2204.2</ele>
        <time>2019-08-10T09:08:50Z</time>
      </trkpt>
      <trkpt lat="44.18602" lon="7.23866">
        <ele>2203.9</ele>
        <time>2019-08-10T09:08:52Z</time>
      </trkpt>
      <trkpt lat="44.18603" lon="7.23866">
        <ele>2203.5</ele>
        <time>2019-08-10T09:08:56Z</time>
      </trkpt>
      <trkpt lat="44.18602" lon="7.23867">
        <ele>2203.2</ele>
        <time>2019-08-10T09:08:59Z</time>
      </trkpt>
      <trkpt lat="44.18603" lon="7.23867">
        <ele>2202.8</ele>
        <time>2019-08-10T09:09:01Z</time>
      </trkpt>
      <trkpt lat="44.18603" lon="7.23868">
        <ele>2202.7</ele>
        <time>2019-08-10T09:09:05Z</time>
      </trkpt>
      <trkpt lat="44.18603" lon="7.23868">
        <ele>2202.4</ele>
        <time>2019-08-10T09:09:10Z</time>
      </trkpt>
      <trkpt lat="44.18601" lon="7.2386">
        <ele>2200.3</ele>
        <time>2019-08-10T09:10:20Z</time>
      </trkpt>
      <trkpt lat="44.18611" lon="7.23869">
        <ele>2195.8</ele>
        <time>2019-08-10T09:11:42Z</time>
      </trkpt>
      <trkpt lat="44.18597" lon="7.23862">
        <ele>2195.3</ele>
        <time>2019-08-10T09:12:42Z</time>
      </trkpt>
      <trkpt lat="44.18581" lon="7.23876">
        <ele>2199.9</ele>
        <time>2019-08-10T09:13:01Z</time>
      </trkpt>
      <trkpt lat="44.18566" lon="7.23892">
        <ele>2204</ele>
        <time>2019-08-10T09:13:21Z</time>
      </trkpt>
      <trkpt lat="44.18549" lon="7.23889">
        <ele>2197.8</ele>
        <time>2019-08-10T09:13:37Z</time>
      </trkpt>
      <trkpt lat="44.18549" lon="7.23888">
        <ele>2197.5</ele>
        <time>2019-08-10T09:13:38Z</time>
      </trkpt>
      <trkpt lat="44.18549" lon="7.23886">
        <ele>2197.5</ele>
        <time>2019-08-10T09:13:40Z</time>
      </trkpt>
      <trkpt lat="44.1855" lon="7.23884">
        <ele>2197.7</ele>
        <time>2019-08-10T09:13:42Z</time>
      </trkpt>
      <trkpt lat="44.18568" lon="7.23879">
        <ele>2195.6</ele>
        <time>2019-08-10T09:13:57Z</time>
      </trkpt>
      <trkpt lat="44.18571" lon="7.23872">
        <ele>2193.7</ele>
        <time>2019-08-10T09:14:03Z</time>
      </trkpt>
      <trkpt lat="44.18582" lon="7.23851">
        <ele>2187.9</ele>
        <time>2019-08-10T09:14:22Z</time>
      </trkpt>
      <trkpt lat="44.18586" lon="7.23844">
        <ele>2185.8</ele>
        <time>2019-08-10T09:14:28Z</time>
      </trkpt>
      <trkpt lat="44.18594" lon="7.23822">
        <ele>2179.4</ele>
        <time>2019-08-10T09:14:46Z</time>
      </trkpt>
      <trkpt lat="44.18598" lon="7.23814">
        <ele>2176.4</ele>
        <time>2019-08-10T09:14:53Z</time>
      </trkpt>
      <trkpt lat="44.186" lon="7.23808">
        <ele>2174</ele>
        <time>2019-08-10T09:14:58Z</time>
      </trkpt>
      <trkpt lat="44.18605" lon="7.23804">
        <ele>2171.9</ele>
        <time>2019-08-10T09:15:03Z</time>
      </trkpt>
      <trkpt lat="44.18615" lon="7.23782">
        <ele>2167.2</ele>
        <time>2019-08-10T09:15:19Z</time>
      </trkpt>
      <trkpt lat="44.18626" lon="7.23785">
        <ele>2166.2</ele>
        <time>2019-08-10T09:15:32Z</time>
      </trkpt>
      <trkpt lat="44.18629" lon="7.23786">
        <ele>2165.2</ele>
        <time>2019-08-10T09:15:35Z</time>
      </trkpt>
      <trkpt lat="44.18631" lon="7.23788">
        <ele>2164.2</ele>
        <time>2019-08-10T09:15:39Z</time>
      </trkpt>
      <trkpt lat="44.18631" lon="7.23786">
        <ele>2163.8</ele>
        <time>2019-08-10T09:15:45Z</time>
      </trkpt>
      <trkpt lat="44.18628" lon="7.23782">
        <ele>2162.6</ele>
        <time>2019-08-10T09:15:48Z</time>
      </trkpt>
      <trkpt lat="44.18626" lon="7.23779">
        <ele>2162.3</ele>
        <time>2019-08-10T09:15:52Z</time>
      </trkpt>
      <trkpt lat="44.18625" lon="7.23778">
        <ele>2162.3</ele>
        <time>2019-08-10T09:15:54Z</time>
      </trkpt>
      <trkpt lat="44.18616" lon="7.23767">
        <ele>2162.8</ele>
        <time>2019-08-10T09:16:02Z</time>
      </trkpt>
      <trkpt lat="44.18603" lon="7.23753">
        <ele>2160.6</ele>
        <time>2019-08-10T09:16:23Z</time>
      </trkpt>
      <trkpt lat="44.18604" lon="7.23738">
        <ele>2158.9</ele>
        <time>2019-08-10T09:16:40Z</time>
      </trkpt>
      <trkpt lat="44.18607" lon="7.23739">
        <ele>2158.5</ele>
        <time>2019-08-10T09:16:43Z</time>
      </trkpt>
      <trkpt lat="44.18626" lon="7.23747">
        <ele>2158.6</ele>
        <time>2019-08-10T09:16:59Z</time>
      </trkpt>
      <trkpt lat="44.18644" lon="7.23758">
        <ele>2159.3</ele>
        <time>2019-08-10T09:17:12Z</time>
      </trkpt>
      <trkpt lat="44.18657" lon="7.23745">
        <ele>2155.2</ele>
        <time>2019-08-10T09:17:26Z</time>
      </trkpt>
      <trkpt lat="44.18668" lon="7.23726">
        <ele>2152</ele>
        <time>2019-08-10T09:17:42Z</time>
      </trkpt>
      <trkpt lat="44.18683" lon="7.23711">
        <ele>2148.8</ele>
        <time>2019-08-10T09:17:55Z</time>
      </trkpt>
      <trkpt lat="44.18695" lon="7.23701">
        <ele>2146.1</ele>
        <time>2019-08-10T09:18:07Z</time>
      </trkpt>
      <trkpt lat="44.18693" lon="7.237">
        <ele>2145.5</ele>
        <time>2019-08-10T09:18:09Z</time>
      </trkpt>
      <trkpt lat="44.18689" lon="7.237">
        <ele>2145.6</ele>
        <time>2019-08-10T09:18:12Z</time>
      </trkpt>
      <trkpt lat="44.18676" lon="7.23697">
        <ele>2143.8</ele>
        <time>2019-08-10T09:18:28Z</time>
      </trkpt>
      <trkpt lat="44.1868" lon="7.23689">
        <ele>2142.9</ele>
        <time>2019-08-10T09:18:36Z</time>
      </trkpt>
      <trkpt lat="44.18678" lon="7.23689">
        <ele>2142.8</ele>
        <time>2019-08-10T09:18:39Z</time>
      </trkpt>
      <trkpt lat="44.18674" lon="7.23688">
        <ele>2142.4</ele>
        <time>2019-08-10T09:18:42Z</time>
      </trkpt>
      <trkpt lat="44.18656" lon="7.23688">
        <ele>2140</ele>
        <time>2019-08-10T09:18:55Z</time>
      </trkpt>
      <trkpt lat="44.18637" lon="7.23681">
        <ele>2141.8</ele>
        <time>2019-08-10T09:19:08Z</time>
      </trkpt>
      <trkpt lat="44.18634" lon="7.23677">
        <ele>2142.6</ele>
        <time>2019-08-10T09:19:11Z</time>
      </trkpt>
      <trkpt lat="44.1864" lon="7.23663">
        <ele>2140.7</ele>
        <time>2019-08-10T09:19:21Z</time>
      </trkpt>
      <trkpt lat="44.18642" lon="7.23665">
        <ele>2139.8</ele>
        <time>2019-08-10T09:19:23Z</time>
      </trkpt>
      <trkpt lat="44.18647" lon="7.23669">
        <ele>2139.6</ele>
        <time>2019-08-10T09:19:28Z</time>
      </trkpt>
      <trkpt lat="44.18648" lon="7.23666">
        <ele>2139.9</ele>
        <time>2019-08-10T09:19:30Z</time>
      </trkpt>
      <trkpt lat="44.18653" lon="7.23642">
        <ele>2137.9</ele>
        <time>2019-08-10T09:19:46Z</time>
      </trkpt>
      <trkpt lat="44.18659" lon="7.23623">
        <ele>2129.7</ele>
        <time>2019-08-10T09:19:59Z</time>
      </trkpt>
      <trkpt lat="44.18665" lon="7.23629">
        <ele>2129.4</ele>
        <time>2019-08-10T09:20:49Z</time>
      </trkpt>
      <trkpt lat="44.18662" lon="7.23614">
        <ele>2129.1</ele>
        <time>2019-08-10T09:21:22Z</time>
      </trkpt>
      <trkpt lat="44.18661" lon="7.23607">
        <ele>2129</ele>
        <time>2019-08-10T09:21:50Z</time>
      </trkpt>
      <trkpt lat="44.18656" lon="7.23597">
        <ele>2129</ele>
        <time>2019-08-10T09:21:57Z</time>
      </trkpt>
      <trkpt lat="44.18642" lon="7.23579">
        <ele>2129.5</ele>
        <time>2019-08-10T09:22:12Z</time>
      </trkpt>
      <trkpt lat="44.1863" lon="7.2356">
        <ele>2130.2</ele>
        <time>2019-08-10T09:22:27Z</time>
      </trkpt>
      <trkpt lat="44.18628" lon="7.23558">
        <ele>2130.3</ele>
        <time>2019-08-10T09:22:29Z</time>
      </trkpt>
      <trkpt lat="44.18621" lon="7.23547">
        <ele>2130.9</ele>
        <time>2019-08-10T09:22:40Z</time>
      </trkpt>
      <trkpt lat="44.18614" lon="7.23524">
        <ele>2133.1</ele>
        <time>2019-08-10T09:22:59Z</time>
      </trkpt>
      <trkpt lat="44.18614" lon="7.23521">
        <ele>2133.2</ele>
        <time>2019-08-10T09:23:01Z</time>
      </trkpt>
      <trkpt lat="44.18613" lon="7.23496">
        <ele>2133.9</ele>
        <time>2019-08-10T09:23:15Z</time>
      </trkpt>
      <trkpt lat="44.18619" lon="7.2347">
        <ele>2134.5</ele>
        <time>2019-08-10T09:23:23Z</time>
      </trkpt>
      <trkpt lat="44.18624" lon="7.23446">
        <ele>2134.8</ele>
        <time>2019-08-10T09:23:31Z</time>
      </trkpt>
      <trkpt lat="44.18627" lon="7.23422">
        <ele>2135</ele>
        <time>2019-08-10T09:23:40Z</time>
      </trkpt>
      <trkpt lat="44.18628" lon="7.23395">
        <ele>2134</ele>
        <time>2019-08-10T09:23:50Z</time>
      </trkpt>
      <trkpt lat="44.18631" lon="7.23368">
        <ele>2133.8</ele>
        <time>2019-08-10T09:23:59Z</time>
      </trkpt>
      <trkpt lat="44.18628" lon="7.23343">
        <ele>2135</ele>
        <time>2019-08-10T09:24:07Z</time>
      </trkpt>
      <trkpt lat="44.18626" lon="7.23318">
        <ele>2135.3</ele>
        <time>2019-08-10T09:24:27Z</time>
      </trkpt>
      <trkpt lat="44.18623" lon="7.23291">
        <ele>2134.5</ele>
        <time>2019-08-10T09:24:37Z</time>
      </trkpt>
      <trkpt lat="44.1862" lon="7.23264">
        <ele>2133.9</ele>
        <time>2019-08-10T09:24:44Z</time>
      </trkpt>
      <trkpt lat="44.18616" lon="7.23239">
        <ele>2134.2</ele>
        <time>2019-08-10T09:24:52Z</time>
      </trkpt>
      <trkpt lat="44.18614" lon="7.23232">
        <ele>2134.6</ele>
        <time>2019-08-10T09:24:59Z</time>
      </trkpt>
      <trkpt lat="44.18613" lon="7.23229">
        <ele>2134.8</ele>
        <time>2019-08-10T09:25:01Z</time>
      </trkpt>
      <trkpt lat="44.18605" lon="7.23206">
        <ele>2137</ele>
        <time>2019-08-10T09:25:17Z</time>
      </trkpt>
      <trkpt lat="44.18604" lon="7.23181">
        <ele>2139.4</ele>
        <time>2019-08-10T09:25:34Z</time>
      </trkpt>
      <trkpt lat="44.18603" lon="7.23155">
        <ele>2141.2</ele>
        <time>2019-08-10T09:25:49Z</time>
      </trkpt>
      <trkpt lat="44.18606" lon="7.23129">
        <ele>2142.7</ele>
        <time>2019-08-10T09:26:05Z</time>
      </trkpt>
      <trkpt lat="44.18612" lon="7.23104">
        <ele>2143.9</ele>
        <time>2019-08-10T09:26:17Z</time>
      </trkpt>
      <trkpt lat="44.18608" lon="7.23078">
        <ele>2144.6</ele>
        <time>2019-08-10T09:26:25Z</time>
      </trkpt>
      <trkpt lat="44.18602" lon="7.23052">
        <ele>2145.3</ele>
        <time>2019-08-10T09:26:35Z</time>
      </trkpt>
      <trkpt lat="44.18596" lon="7.23029">
        <ele>2146.1</ele>
        <time>2019-08-10T09:26:43Z</time>
      </trkpt>
      <trkpt lat="44.18589" lon="7.23004">
        <ele>2146.8</ele>
        <time>2019-08-10T09:27:03Z</time>
      </trkpt>
      <trkpt lat="44.18581" lon="7.2298">
        <ele>2147.6</ele>
        <time>2019-08-10T09:27:10Z</time>
      </trkpt>
      <trkpt lat="44.18575" lon="7.22956">
        <ele>2147.5</ele>
        <time>2019-08-10T09:27:16Z</time>
      </trkpt>
      <trkpt lat="44.18572" lon="7.22935">
        <ele>2147.1</ele>
        <time>2019-08-10T09:27:25Z</time>
      </trkpt>
      <trkpt lat="44.18571" lon="7.22929">
        <ele>2147.1</ele>
        <time>2019-08-10T09:29:01Z</time>
      </trkpt>
      <trkpt lat="44.18566" lon="7.22905">
        <ele>2147.4</ele>
        <time>2019-08-10T09:29:21Z</time>
      </trkpt>
      <trkpt lat="44.18561" lon="7.2288">
        <ele>2149.3</ele>
        <time>2019-08-10T09:29:39Z</time>
      </trkpt>
      <trkpt lat="44.18551" lon="7.22858">
        <ele>2151.7</ele>
        <time>2019-08-10T09:29:50Z</time>
      </trkpt>
      <trkpt lat="44.18547" lon="7.22855">
        <ele>2152.2</ele>
        <time>2019-08-10T09:29:56Z</time>
      </trkpt>
      <trkpt lat="44.18546" lon="7.22828">
        <ele>2153.5</ele>
        <time>2019-08-10T09:30:17Z</time>
      </trkpt>
      <trkpt lat="44.18543" lon="7.22801">
        <ele>2154.6</ele>
        <time>2019-08-10T09:30:25Z</time>
      </trkpt>
      <trkpt lat="44.18539" lon="7.22777">
        <ele>2155.5</ele>
        <time>2019-08-10T09:30:33Z</time>
      </trkpt>
      <trkpt lat="44.1853" lon="7.22754">
        <ele>2156.6</ele>
        <time>2019-08-10T09:30:41Z</time>
      </trkpt>
      <trkpt lat="44.1852" lon="7.22732">
        <ele>2157.9</ele>
        <time>2019-08-10T09:30:48Z</time>
      </trkpt>
      <trkpt lat="44.18515" lon="7.22707">
        <ele>2158.7</ele>
        <time>2019-08-10T09:31:01Z</time>
      </trkpt>
      <trkpt lat="44.18513" lon="7.22704">
        <ele>2158.7</ele>
        <time>2019-08-10T09:31:03Z</time>
      </trkpt>
      <trkpt lat="44.18502" lon="7.22685">
        <ele>2159.7</ele>
        <time>2019-08-10T09:31:16Z</time>
      </trkpt>
      <trkpt lat="44.18496" lon="7.22677">
        <ele>2160.3</ele>
        <time>2019-08-10T09:31:25Z</time>
      </trkpt>
      <trkpt lat="44.18493" lon="7.22671">
        <ele>2160.6</ele>
        <time>2019-08-10T09:31:31Z</time>
      </trkpt>
      <trkpt lat="44.18492" lon="7.22669">
        <ele>2160.8</ele>
        <time>2019-08-10T09:31:35Z</time>
      </trkpt>
      <trkpt lat="44.18489" lon="7.22663">
        <ele>2161.1</ele>
        <time>2019-08-10T09:31:42Z</time>
      </trkpt>
      <trkpt lat="44.18483" lon="7.22638">
        <ele>2162.7</ele>
        <time>2019-08-10T09:31:57Z</time>
      </trkpt>
      <trkpt lat="44.18474" lon="7.22617">
        <ele>2164.5</ele>
        <time>2019-08-10T09:32:15Z</time>
      </trkpt>
      <trkpt lat="44.18474" lon="7.22615">
        <ele>2164.6</ele>
        <time>2019-08-10T09:32:18Z</time>
      </trkpt>
      <trkpt lat="44.18472" lon="7.22615">
        <ele>2164.8</ele>
        <time>2019-08-10T09:32:21Z</time>
      </trkpt>
      <trkpt lat="44.18471" lon="7.22614">
        <ele>2164.9</ele>
        <time>2019-08-10T09:32:23Z</time>
      </trkpt>
      <trkpt lat="44.18469" lon="7.22613">
        <ele>2165.1</ele>
        <time>2019-08-10T09:32:25Z</time>
      </trkpt>
      <trkpt lat="44.18465" lon="7.22607">
        <ele>2165.5</ele>
        <time>2019-08-10T09:32:33Z</time>
      </trkpt>
      <trkpt lat="44.18464" lon="7.22604">
        <ele>2165.7</ele>
        <time>2019-08-10T09:32:36Z</time>
      </trkpt>
      <trkpt lat="44.18462" lon="7.22593">
        <ele>2166.4</ele>
        <time>2019-08-10T09:32:45Z</time>
      </trkpt>
      <trkpt lat="44.18454" lon="7.22571">
        <ele>2168.7</ele>
        <time>2019-08-10T09:33:03Z</time>
      </trkpt>
      <trkpt lat="44.1845" lon="7.22546">
        <ele>2171.2</ele>
        <time>2019-08-10T09:33:21Z</time>
      </trkpt>
      <trkpt lat="44.18451" lon="7.22544">
        <ele>2171.3</ele>
        <time>2019-08-10T09:33:22Z</time>
      </trkpt>
      <trkpt lat="44.18451" lon="7.22529">
        <ele>2172.2</ele>
        <time>2019-08-10T09:33:30Z</time>
      </trkpt>
      <trkpt lat="44.18448" lon="7.22518">
        <ele>2172.8</ele>
        <time>2019-08-10T09:33:36Z</time>
      </trkpt>
      <trkpt lat="44.18436" lon="7.22499">
        <ele>2173.5</ele>
        <time>2019-08-10T09:33:51Z</time>
      </trkpt>
      <trkpt lat="44.18418" lon="7.22491">
        <ele>2173.5</ele>
        <time>2019-08-10T09:34:08Z</time>
      </trkpt>
      <trkpt lat="44.184" lon="7.22489">
        <ele>2173.1</ele>
        <time>2019-08-10T09:34:19Z</time>
      </trkpt>
      <trkpt lat="44.18381" lon="7.22488">
        <ele>2172.1</ele>
        <time>2019-08-10T09:34:33Z</time>
      </trkpt>
      <trkpt lat="44.18375" lon="7.22485">
        <ele>2171.8</ele>
        <time>2019-08-10T09:34:40Z</time>
      </trkpt>
      <trkpt lat="44.18373" lon="7.22484">
        <ele>2171.8</ele>
        <time>2019-08-10T09:34:44Z</time>
      </trkpt>
      <trkpt lat="44.18369" lon="7.22484">
        <ele>2171.7</ele>
        <time>2019-08-10T09:34:49Z</time>
      </trkpt>
      <trkpt lat="44.18365" lon="7.22484">
        <ele>2171.7</ele>
        <time>2019-08-10T09:34:55Z</time>
      </trkpt>
      <trkpt lat="44.18363" lon="7.22482">
        <ele>2171.7</ele>
        <time>2019-08-10T09:34:58Z</time>
      </trkpt>
      <trkpt lat="44.18362" lon="7.22482">
        <ele>2171.8</ele>
        <time>2019-08-10T09:35:00Z</time>
      </trkpt>
      <trkpt lat="44.18368" lon="7.22487">
        <ele>2172.1</ele>
        <time>2019-08-10T09:35:37Z</time>
      </trkpt>
      <trkpt lat="44.18374" lon="7.22494">
        <ele>2172.8</ele>
        <time>2019-08-10T09:35:44Z</time>
      </trkpt>
      <trkpt lat="44.18371" lon="7.22495">
        <ele>2173.2</ele>
        <time>2019-08-10T09:35:47Z</time>
      </trkpt>
      <trkpt lat="44.18357" lon="7.22495">
        <ele>2176.2</ele>
        <time>2019-08-10T09:36:02Z</time>
      </trkpt>
      <trkpt lat="44.18346" lon="7.22496">
        <ele>2179.1</ele>
        <time>2019-08-10T09:36:15Z</time>
      </trkpt>
      <trkpt lat="44.18344" lon="7.22496">
        <ele>2179.5</ele>
        <time>2019-08-10T09:36:18Z</time>
      </trkpt>
      <trkpt lat="44.18343" lon="7.22496">
        <ele>2179.7</ele>
        <time>2019-08-10T09:36:20Z</time>
      </trkpt>
      <trkpt lat="44.18326" lon="7.22485">
        <ele>2183</ele>
        <time>2019-08-10T09:36:36Z</time>
      </trkpt>
      <trkpt lat="44.18323" lon="7.22479">
        <ele>2184</ele>
        <time>2019-08-10T09:36:43Z</time>
      </trkpt>
      <trkpt lat="44.18324" lon="7.22478">
        <ele>2184.3</ele>
        <time>2019-08-10T09:36:48Z</time>
      </trkpt>
      <trkpt lat="44.18322" lon="7.22491">
        <ele>2186.4</ele>
        <time>2019-08-10T09:37:12Z</time>
      </trkpt>
      <trkpt lat="44.1832" lon="7.22492">
        <ele>2186.9</ele>
        <time>2019-08-10T09:37:15Z</time>
      </trkpt>
      <trkpt lat="44.18325" lon="7.22479">
        <ele>2188.8</ele>
        <time>2019-08-10T09:37:57Z</time>
      </trkpt>
      <trkpt lat="44.18334" lon="7.22458">
        <ele>2192</ele>
        <time>2019-08-10T09:38:12Z</time>
      </trkpt>
      <trkpt lat="44.18348" lon="7.2244">
        <ele>2193.1</ele>
        <time>2019-08-10T09:38:23Z</time>
      </trkpt>
      <trkpt lat="44.18358" lon="7.22419">
        <ele>2194.4</ele>
        <time>2019-08-10T09:38:36Z</time>
      </trkpt>
      <trkpt lat="44.18365" lon="7.22396">
        <ele>2195.7</ele>
        <time>2019-08-10T09:38:51Z</time>
      </trkpt>
      <trkpt lat="44.18367" lon="7.22392">
        <ele>2195.9</ele>
        <time>2019-08-10T09:38:55Z</time>
      </trkpt>
      <trkpt lat="44.18369" lon="7.22387">
        <ele>2196.3</ele>
        <time>2019-08-10T09:39:00Z</time>
      </trkpt>
      <trkpt lat="44.18371" lon="7.22379">
        <ele>2196.9</ele>
        <time>2019-08-10T09:39:08Z</time>
      </trkpt>
      <trkpt lat="44.1837" lon="7.22376">
        <ele>2197.1</ele>
        <time>2019-08-10T09:39:12Z</time>
      </trkpt>
      <trkpt lat="44.18369" lon="7.22372">
        <ele>2197.4</ele>
        <time>2019-08-10T09:39:16Z</time>
      </trkpt>
      <trkpt lat="44.18359" lon="7.2235">
        <ele>2199.9</ele>
        <time>2019-08-10T09:39:33Z</time>
      </trkpt>
      <trkpt lat="44.18355" lon="7.22326">
        <ele>2203.2</ele>
        <time>2019-08-10T09:39:52Z</time>
      </trkpt>
      <trkpt lat="44.18348" lon="7.22303">
        <ele>2205.8</ele>
        <time>2019-08-10T09:40:11Z</time>
      </trkpt>
      <trkpt lat="44.18347" lon="7.223">
        <ele>2206.1</ele>
        <time>2019-08-10T09:40:14Z</time>
      </trkpt>
      <trkpt lat="44.18346" lon="7.22297">
        <ele>2206.5</ele>
        <time>2019-08-10T09:40:17Z</time>
      </trkpt>
      <trkpt lat="44.18346" lon="7.22287">
        <ele>2207.9</ele>
        <time>2019-08-10T09:40:24Z</time>
      </trkpt>
      <trkpt lat="44.18346" lon="7.22261">
        <ele>2210.6</ele>
        <time>2019-08-10T09:40:40Z</time>
      </trkpt>
      <trkpt lat="44.18356" lon="7.2224">
        <ele>2212.5</ele>
        <time>2019-08-10T09:40:58Z</time>
      </trkpt>
      <trkpt lat="44.18357" lon="7.22239">
        <ele>2212.7</ele>
        <time>2019-08-10T09:41:00Z</time>
      </trkpt>
      <trkpt lat="44.18358" lon="7.22232">
        <ele>2213.3</ele>
        <time>2019-08-10T09:41:07Z</time>
      </trkpt>
      <trkpt lat="44.18358" lon="7.22226">
        <ele>2213.9</ele>
        <time>2019-08-10T09:41:14Z</time>
      </trkpt>
      <trkpt lat="44.18351" lon="7.22224">
        <ele>2214.9</ele>
        <time>2019-08-10T09:41:36Z</time>
      </trkpt>
      <trkpt lat="44.18359" lon="7.22202">
        <ele>2218.3</ele>
        <time>2019-08-10T09:41:54Z</time>
      </trkpt>
      <trkpt lat="44.18359" lon="7.22193">
        <ele>2221.7</ele>
        <time>2019-08-10T09:42:02Z</time>
      </trkpt>
      <trkpt lat="44.18359" lon="7.2219">
        <ele>2221.7</ele>
        <time>2019-08-10T09:42:05Z</time>
      </trkpt>
      <trkpt lat="44.18358" lon="7.22188">
        <ele>2221.7</ele>
        <time>2019-08-10T09:42:07Z</time>
      </trkpt>
      <trkpt lat="44.18356" lon="7.2219">
        <ele>2221.8</ele>
        <time>2019-08-10T09:44:50Z</time>
      </trkpt>
      <trkpt lat="44.18351" lon="7.22196">
        <ele>2222.9</ele>
        <time>2019-08-10T09:45:46Z</time>
      </trkpt>
      <trkpt lat="44.18341" lon="7.22218">
        <ele>2225</ele>
        <time>2019-08-10T09:46:04Z</time>
      </trkpt>
      <trkpt lat="44.18333" lon="7.22242">
        <ele>2228</ele>
        <time>2019-08-10T09:46:22Z</time>
      </trkpt>
      <trkpt lat="44.1832" lon="7.22259">
        <ele>2230.2</ele>
        <time>2019-08-10T09:46:46Z</time>
      </trkpt>
      <trkpt lat="44.18308" lon="7.22277">
        <ele>2232.9</ele>
        <time>2019-08-10T09:47:11Z</time>
      </trkpt>
      <trkpt lat="44.18301" lon="7.22301">
        <ele>2231.6</ele>
        <time>2019-08-10T09:47:28Z</time>
      </trkpt>
      <trkpt lat="44.18301" lon="7.22327">
        <ele>2229.6</ele>
        <time>2019-08-10T09:47:51Z</time>
      </trkpt>
      <trkpt lat="44.18294" lon="7.22347">
        <ele>2228.7</ele>
        <time>2019-08-10T09:48:10Z</time>
      </trkpt>
      <trkpt lat="44.18284" lon="7.2235">
        <ele>2230.3</ele>
        <time>2019-08-10T09:49:04Z</time>
      </trkpt>
      <trkpt lat="44.18266" lon="7.22353">
        <ele>2235.9</ele>
        <time>2019-08-10T09:49:23Z</time>
      </trkpt>
      <trkpt lat="44.18249" lon="7.22362">
        <ele>2239.3</ele>
        <time>2019-08-10T09:49:40Z</time>
      </trkpt>
      <trkpt lat="44.18233" lon="7.22376">
        <ele>2240</ele>
        <time>2019-08-10T09:49:57Z</time>
      </trkpt>
      <trkpt lat="44.18219" lon="7.22393">
        <ele>2238.8</ele>
        <time>2019-08-10T09:50:14Z</time>
      </trkpt>
      <trkpt lat="44.18203" lon="7.22406">
        <ele>2239.8</ele>
        <time>2019-08-10T09:50:31Z</time>
      </trkpt>
      <trkpt lat="44.18185" lon="7.22411">
        <ele>2242.1</ele>
        <time>2019-08-10T09:50:47Z</time>
      </trkpt>
      <trkpt lat="44.18167" lon="7.22419">
        <ele>2247.4</ele>
        <time>2019-08-10T09:51:10Z</time>
      </trkpt>
      <trkpt lat="44.18151" lon="7.2243">
        <ele>2251.3</ele>
        <time>2019-08-10T09:51:31Z</time>
      </trkpt>
      <trkpt lat="44.18141" lon="7.22431">
        <ele>2253.3</ele>
        <time>2019-08-10T09:51:46Z</time>
      </trkpt>
      <trkpt lat="44.18131" lon="7.22431">
        <ele>2254.3</ele>
        <time>2019-08-10T09:52:39Z</time>
      </trkpt>
      <trkpt lat="44.18112" lon="7.22432">
        <ele>2259.3</ele>
        <time>2019-08-10T09:52:54Z</time>
      </trkpt>
      <trkpt lat="44.18093" lon="7.22433">
        <ele>2264.2</ele>
        <time>2019-08-10T09:53:10Z</time>
      </trkpt>
      <trkpt lat="44.18075" lon="7.22434">
        <ele>2268.8</ele>
        <time>2019-08-10T09:53:25Z</time>
      </trkpt>
      <trkpt lat="44.18057" lon="7.22439">
        <ele>2273.4</ele>
        <time>2019-08-10T09:53:40Z</time>
      </trkpt>
      <trkpt lat="44.18038" lon="7.22445">
        <ele>2274.3</ele>
        <time>2019-08-10T09:53:48Z</time>
      </trkpt>
      <trkpt lat="44.18023" lon="7.22453">
        <ele>2273.1</ele>
        <time>2019-08-10T09:53:58Z</time>
      </trkpt>
      <trkpt lat="44.18023" lon="7.2246">
        <ele>2272.9</ele>
        <time>2019-08-10T09:54:25Z</time>
      </trkpt>
      <trkpt lat="44.18018" lon="7.22466">
        <ele>2270.8</ele>
        <time>2019-08-10T09:54:31Z</time>
      </trkpt>
      <trkpt lat="44.18006" lon="7.22473">
        <ele>2266.7</ele>
        <time>2019-08-10T09:54:44Z</time>
      </trkpt>
      <trkpt lat="44.18007" lon="7.22472">
        <ele>2266.5</ele>
        <time>2019-08-10T09:54:47Z</time>
      </trkpt>
      <trkpt lat="44.18007" lon="7.22471">
        <ele>2266.2</ele>
        <time>2019-08-10T09:54:51Z</time>
      </trkpt>
      <trkpt lat="44.18008" lon="7.22469">
        <ele>2265.7</ele>
        <time>2019-08-10T09:54:58Z</time>
      </trkpt>
      <trkpt lat="44.18001" lon="7.22473">
        <ele>2260.8</ele>
        <time>2019-08-10T09:55:23Z</time>
      </trkpt>
      <trkpt lat="44.17998" lon="7.22475">
        <ele>2258.1</ele>
        <time>2019-08-10T09:55:26Z</time>
      </trkpt>
      <trkpt lat="44.17979" lon="7.22479">
        <ele>2254</ele>
        <time>2019-08-10T09:55:42Z</time>
      </trkpt>
      <trkpt lat="44.17968" lon="7.2249">
        <ele>2254.4</ele>
        <time>2019-08-10T09:55:59Z</time>
      </trkpt>
      <trkpt lat="44.17975" lon="7.22479">
        <ele>2258.6</ele>
        <time>2019-08-10T09:56:58Z</time>
      </trkpt>
      <trkpt lat="44.17969" lon="7.2249">
        <ele>2262.1</ele>
        <time>2019-08-10T09:57:34Z</time>
      </trkpt>
      <trkpt lat="44.17977" lon="7.2247">
        <ele>2267.9</ele>
        <time>2019-08-10T09:58:26Z</time>
      </trkpt>
      <trkpt lat="44.17974" lon="7.22487">
        <ele>2272.4</ele>
        <time>2019-08-10T09:58:45Z</time>
      </trkpt>
      <trkpt lat="44.17971" lon="7.22498">
        <ele>2274</ele>
        <time>2019-08-10T09:58:48Z</time>
      </trkpt>
      <trkpt lat="44.17969" lon="7.22486">
        <ele>2274.1</ele>
        <time>2019-08-10T09:59:25Z</time>
      </trkpt>
      <trkpt lat="44.1795" lon="7.22489">
        <ele>2275.8</ele>
        <time>2019-08-10T09:59:35Z</time>
      </trkpt>
      <trkpt lat="44.17943" lon="7.2249">
        <ele>2275.7</ele>
        <time>2019-08-10T09:59:38Z</time>
      </trkpt>
      <trkpt lat="44.17925" lon="7.225">
        <ele>2287.9</ele>
        <time>2019-08-10T09:59:46Z</time>
      </trkpt>
      <trkpt lat="44.17906" lon="7.22506">
        <ele>2286.1</ele>
        <time>2019-08-10T09:59:52Z</time>
      </trkpt>
      <trkpt lat="44.17889" lon="7.22515">
        <ele>2284.9</ele>
        <time>2019-08-10T09:59:59Z</time>
      </trkpt>
      <trkpt lat="44.17886" lon="7.22519">
        <ele>2285</ele>
        <time>2019-08-10T10:00:03Z</time>
      </trkpt>
      <trkpt lat="44.17885" lon="7.22519">
        <ele>2285</ele>
        <time>2019-08-10T10:00:05Z</time>
      </trkpt>
      <trkpt lat="44.17882" lon="7.22522">
        <ele>2285.1</ele>
        <time>2019-08-10T10:00:09Z</time>
      </trkpt>
      <trkpt lat="44.17868" lon="7.22536">
        <ele>2286.5</ele>
        <time>2019-08-10T10:00:26Z</time>
      </trkpt>
      <trkpt lat="44.17866" lon="7.22536">
        <ele>2288</ele>
        <time>2019-08-10T10:00:29Z</time>
      </trkpt>
      <trkpt lat="44.17863" lon="7.22538">
        <ele>2290.2</ele>
        <time>2019-08-10T10:00:33Z</time>
      </trkpt>
      <trkpt lat="44.17859" lon="7.22539">
        <ele>2292.1</ele>
        <time>2019-08-10T10:00:37Z</time>
      </trkpt>
      <trkpt lat="44.17852" lon="7.22544">
        <ele>2298.4</ele>
        <time>2019-08-10T10:00:46Z</time>
      </trkpt>
      <trkpt lat="44.17852" lon="7.22542">
        <ele>2300.2</ele>
        <time>2019-08-10T10:00:49Z</time>
      </trkpt>
      <trkpt lat="44.17854" lon="7.22538">
        <ele>2300.5</ele>
        <time>2019-08-10T10:00:53Z</time>
      </trkpt>
      <trkpt lat="44.17862" lon="7.22514">
        <ele>2294.9</ele>
        <time>2019-08-10T10:01:15Z</time>
      </trkpt>
      <trkpt lat="44.17861" lon="7.22513">
        <ele>2294.8</ele>
        <time>2019-08-10T10:01:16Z</time>
      </trkpt>
      <trkpt lat="44.1786" lon="7.22512">
        <ele>2294.5</ele>
        <time>2019-08-10T10:01:18Z</time>
      </trkpt>
      <trkpt lat="44.17858" lon="7.22515">
        <ele>2294.1</ele>
        <time>2019-08-10T10:01:21Z</time>
      </trkpt>
      <trkpt lat="44.17857" lon="7.22516">
        <ele>2293.7</ele>
        <time>2019-08-10T10:01:23Z</time>
      </trkpt>
      <trkpt lat="44.17856" lon="7.22517">
        <ele>2293.4</ele>
        <time>2019-08-10T10:01:25Z</time>
      </trkpt>
      <trkpt lat="44.17855" lon="7.22519">
        <ele>2293.1</ele>
        <time>2019-08-10T10:01:27Z</time>
      </trkpt>
      <trkpt lat="44.17854" lon="7.22521">
        <ele>2292.6</ele>
        <time>2019-08-10T10:01:29Z</time>
      </trkpt>
      <trkpt lat="44.17852" lon="7.22524">
        <ele>2293.2</ele>
        <time>2019-08-10T10:01:31Z</time>
      </trkpt>
      <trkpt lat="44.17846" lon="7.22529">
        <ele>2298.6</ele>
        <time>2019-08-10T10:01:39Z</time>
      </trkpt>
      <trkpt lat="44.17843" lon="7.2253">
        <ele>2300.1</ele>
        <time>2019-08-10T10:01:42Z</time>
      </trkpt>
      <trkpt lat="44.17842" lon="7.2253">
        <ele>2301</ele>
        <time>2019-08-10T10:01:44Z</time>
      </trkpt>
      <trkpt lat="44.17838" lon="7.22535">
        <ele>2304.4</ele>
        <time>2019-08-10T10:01:50Z</time>
      </trkpt>
      <trkpt lat="44.17836" lon="7.22537">
        <ele>2305.6</ele>
        <time>2019-08-10T10:01:52Z</time>
      </trkpt>
      <trkpt lat="44.17835" lon="7.22537">
        <ele>2305.6</ele>
        <time>2019-08-10T10:01:55Z</time>
      </trkpt>
      <trkpt lat="44.17836" lon="7.22535">
        <ele>2305.6</ele>
        <time>2019-08-10T10:01:58Z</time>
      </trkpt>
      <trkpt lat="44.17842" lon="7.22519">
        <ele>2304.7</ele>
        <time>2019-08-10T10:02:14Z</time>
      </trkpt>
      <trkpt lat="44.1784" lon="7.22517">
        <ele>2304.7</ele>
        <time>2019-08-10T10:02:18Z</time>
      </trkpt>
      <trkpt lat="44.17837" lon="7.22523">
        <ele>2305</ele>
        <time>2019-08-10T10:02:35Z</time>
      </trkpt>
      <trkpt lat="44.17828" lon="7.22522">
        <ele>2307.8</ele>
        <time>2019-08-10T10:03:19Z</time>
      </trkpt>
      <trkpt lat="44.17816" lon="7.22527">
        <ele>2312.4</ele>
        <time>2019-08-10T10:03:33Z</time>
      </trkpt>
      <trkpt lat="44.17822" lon="7.2252">
        <ele>2315.9</ele>
        <time>2019-08-10T10:03:41Z</time>
      </trkpt>
      <trkpt lat="44.17824" lon="7.2251">
        <ele>2319.3</ele>
        <time>2019-08-10T10:03:49Z</time>
      </trkpt>
      <trkpt lat="44.17821" lon="7.22512">
        <ele>2321.2</ele>
        <time>2019-08-10T10:03:52Z</time>
      </trkpt>
      <trkpt lat="44.17818" lon="7.22512">
        <ele>2323.7</ele>
        <time>2019-08-10T10:03:57Z</time>
      </trkpt>
      <trkpt lat="44.17815" lon="7.22511">
        <ele>2325.4</ele>
        <time>2019-08-10T10:04:02Z</time>
      </trkpt>
      <trkpt lat="44.17814" lon="7.22512">
        <ele>2326.3</ele>
        <time>2019-08-10T10:04:04Z</time>
      </trkpt>
      <trkpt lat="44.17811" lon="7.22514">
        <ele>2328</ele>
        <time>2019-08-10T10:04:07Z</time>
      </trkpt>
      <trkpt lat="44.17804" lon="7.22514">
        <ele>2328.5</ele>
        <time>2019-08-10T10:04:15Z</time>
      </trkpt>
      <trkpt lat="44.17797" lon="7.22512">
        <ele>2329.7</ele>
        <time>2019-08-10T10:04:23Z</time>
      </trkpt>
      <trkpt lat="44.17793" lon="7.22517">
        <ele>2327.6</ele>
        <time>2019-08-10T10:04:27Z</time>
      </trkpt>
      <trkpt lat="44.17789" lon="7.22522">
        <ele>2328.1</ele>
        <time>2019-08-10T10:04:32Z</time>
      </trkpt>
      <trkpt lat="44.17774" lon="7.22537">
        <ele>2333.1</ele>
        <time>2019-08-10T10:04:56Z</time>
      </trkpt>
      <trkpt lat="44.17762" lon="7.22543">
        <ele>2342.1</ele>
        <time>2019-08-10T10:05:16Z</time>
      </trkpt>
      <trkpt lat="44.17764" lon="7.22539">
        <ele>2343.9</ele>
        <time>2019-08-10T10:05:19Z</time>
      </trkpt>
      <trkpt lat="44.17764" lon="7.22538">
        <ele>2344.8</ele>
        <time>2019-08-10T10:05:21Z</time>
      </trkpt>
      <trkpt lat="44.17767" lon="7.2253">
        <ele>2348.5</ele>
        <time>2019-08-10T10:05:28Z</time>
      </trkpt>
      <trkpt lat="44.17769" lon="7.22524">
        <ele>2351.4</ele>
        <time>2019-08-10T10:05:34Z</time>
      </trkpt>
      <trkpt lat="44.17769" lon="7.22521">
        <ele>2351.5</ele>
        <time>2019-08-10T10:05:38Z</time>
      </trkpt>
      <trkpt lat="44.17767" lon="7.22498">
        <ele>2352.3</ele>
        <time>2019-08-10T10:06:07Z</time>
      </trkpt>
      <trkpt lat="44.17755" lon="7.22517">
        <ele>2350.3</ele>
        <time>2019-08-10T10:06:28Z</time>
      </trkpt>
      <trkpt lat="44.17738" lon="7.22527">
        <ele>2350.5</ele>
        <time>2019-08-10T10:06:48Z</time>
      </trkpt>
      <trkpt lat="44.17722" lon="7.22539">
        <ele>2357.8</ele>
        <time>2019-08-10T10:07:04Z</time>
      </trkpt>
      <trkpt lat="44.17718" lon="7.22538">
        <ele>2359</ele>
        <time>2019-08-10T10:07:07Z</time>
      </trkpt>
      <trkpt lat="44.17706" lon="7.22533">
        <ele>2364.9</ele>
        <time>2019-08-10T10:07:16Z</time>
      </trkpt>
      <trkpt lat="44.17688" lon="7.22527">
        <ele>2370.7</ele>
        <time>2019-08-10T10:07:32Z</time>
      </trkpt>
      <trkpt lat="44.17687" lon="7.22527">
        <ele>2371.2</ele>
        <time>2019-08-10T10:07:34Z</time>
      </trkpt>
      <trkpt lat="44.17685" lon="7.22526">
        <ele>2372.2</ele>
        <time>2019-08-10T10:07:36Z</time>
      </trkpt>
      <trkpt lat="44.17682" lon="7.22524">
        <ele>2373.7</ele>
        <time>2019-08-10T10:07:41Z</time>
      </trkpt>
      <trkpt lat="44.17681" lon="7.22523">
        <ele>2374.1</ele>
        <time>2019-08-10T10:07:43Z</time>
      </trkpt>
      <trkpt lat="44.17662" lon="7.22519">
        <ele>2380.6</ele>
        <time>2019-08-10T10:08:01Z</time>
      </trkpt>
      <trkpt lat="44.1766" lon="7.22518">
        <ele>2382.2</ele>
        <time>2019-08-10T10:08:04Z</time>
      </trkpt>
      <trkpt lat="44.17647" lon="7.22514">
        <ele>2382.5</ele>
        <time>2019-08-10T10:08:19Z</time>
      </trkpt>
      <trkpt lat="44.17647" lon="7.22513">
        <ele>2382.3</ele>
        <time>2019-08-10T10:08:21Z</time>
      </trkpt>
      <trkpt lat="44.17648" lon="7.22519">
        <ele>2380.5</ele>
        <time>2019-08-10T10:08:28Z</time>
      </trkpt>
      <trkpt lat="44.17647" lon="7.22518">
        <ele>2380.4</ele>
        <time>2019-08-10T10:08:32Z</time>
      </trkpt>
      <trkpt lat="44.17645" lon="7.22515">
        <ele>2380.1</ele>
        <time>2019-08-10T10:08:35Z</time>
      </trkpt>
      <trkpt lat="44.17637" lon="7.22514">
        <ele>2378.8</ele>
        <time>2019-08-10T10:08:42Z</time>
      </trkpt>
      <trkpt lat="44.17626" lon="7.22523">
        <ele>2375.6</ele>
        <time>2019-08-10T10:08:55Z</time>
      </trkpt>
      <trkpt lat="44.17624" lon="7.22525">
        <ele>2375.4</ele>
        <time>2019-08-10T10:08:57Z</time>
      </trkpt>
      <trkpt lat="44.17622" lon="7.22527">
        <ele>2375</ele>
        <time>2019-08-10T10:09:00Z</time>
      </trkpt>
      <trkpt lat="44.17611" lon="7.22532">
        <ele>2373.9</ele>
        <time>2019-08-10T10:09:12Z</time>
      </trkpt>
      <trkpt lat="44.17609" lon="7.22534">
        <ele>2373.5</ele>
        <time>2019-08-10T10:09:19Z</time>
      </trkpt>
      <trkpt lat="44.17603" lon="7.2254">
        <ele>2372.8</ele>
        <time>2019-08-10T10:09:24Z</time>
      </trkpt>
      <trkpt lat="44.17596" lon="7.22553">
        <ele>2372.5</ele>
        <time>2019-08-10T10:09:30Z</time>
      </trkpt>
      <trkpt lat="44.17587" lon="7.2258">
        <ele>2373.5</ele>
        <time>2019-08-10T10:09:38Z</time>
      </trkpt>
      <trkpt lat="44.17577" lon="7.2255">
        <ele>2376.4</ele>
        <time>2019-08-10T10:10:08Z</time>
      </trkpt>
      <trkpt lat="44.17559" lon="7.22549">
        <ele>2381.8</ele>
        <time>2019-08-10T10:10:25Z</time>
      </trkpt>
      <trkpt lat="44.17545" lon="7.22554">
        <ele>2380.7</ele>
        <time>2019-08-10T10:10:38Z</time>
      </trkpt>
      <trkpt lat="44.17542" lon="7.22557">
        <ele>2381.2</ele>
        <time>2019-08-10T10:10:44Z</time>
      </trkpt>
      <trkpt lat="44.17539" lon="7.22557">
        <ele>2381.6</ele>
        <time>2019-08-10T10:10:51Z</time>
      </trkpt>
      <trkpt lat="44.17538" lon="7.22558">
        <ele>2381.7</ele>
        <time>2019-08-10T10:10:53Z</time>
      </trkpt>
      <trkpt lat="44.17536" lon="7.2256">
        <ele>2382.1</ele>
        <time>2019-08-10T10:10:56Z</time>
      </trkpt>
      <trkpt lat="44.17522" lon="7.22576">
        <ele>2385.9</ele>
        <time>2019-08-10T10:11:17Z</time>
      </trkpt>
      <trkpt lat="44.17506" lon="7.22589">
        <ele>2394.8</ele>
        <time>2019-08-10T10:11:34Z</time>
      </trkpt>
      <trkpt lat="44.17494" lon="7.22593">
        <ele>2396.7</ele>
        <time>2019-08-10T10:11:47Z</time>
      </trkpt>
      <trkpt lat="44.17487" lon="7.22597">
        <ele>2396.5</ele>
        <time>2019-08-10T10:11:55Z</time>
      </trkpt>
      <trkpt lat="44.17474" lon="7.22603">
        <ele>2397.1</ele>
        <time>2019-08-10T10:12:20Z</time>
      </trkpt>
      <trkpt lat="44.1746" lon="7.22614">
        <ele>2391.6</ele>
        <time>2019-08-10T10:12:41Z</time>
      </trkpt>
      <trkpt lat="44.17453" lon="7.22633">
        <ele>2389.1</ele>
        <time>2019-08-10T10:13:25Z</time>
      </trkpt>
      <trkpt lat="44.17451" lon="7.22657">
        <ele>2385.8</ele>
        <time>2019-08-10T10:14:12Z</time>
      </trkpt>
      <trkpt lat="44.17449" lon="7.22675">
        <ele>2380.9</ele>
        <time>2019-08-10T10:15:13Z</time>
      </trkpt>
      <trkpt lat="44.1745" lon="7.22698">
        <ele>2377.1</ele>
        <time>2019-08-10T10:15:58Z</time>
      </trkpt>
      <trkpt lat="44.17451" lon="7.22701">
        <ele>2377.4</ele>
        <time>2019-08-10T10:16:01Z</time>
      </trkpt>
      <trkpt lat="44.17451" lon="7.22702">
        <ele>2377.5</ele>
        <time>2019-08-10T10:16:03Z</time>
      </trkpt>
      <trkpt lat="44.17449" lon="7.22715">
        <ele>2377.2</ele>
        <time>2019-08-10T10:17:48Z</time>
      </trkpt>
      <trkpt lat="44.17451" lon="7.22727">
        <ele>2381.2</ele>
        <time>2019-08-10T10:19:09Z</time>
      </trkpt>
      <trkpt lat="44.17451" lon="7.22731">
        <ele>2382.2</ele>
        <time>2019-08-10T10:19:12Z</time>
      </trkpt>
      <trkpt lat="44.17451" lon="7.22734">
        <ele>2382.8</ele>
        <time>2019-08-10T10:19:14Z</time>
      </trkpt>
      <trkpt lat="44.17451" lon="7.22745">
        <ele>2385</ele>
        <time>2019-08-10T10:19:25Z</time>
      </trkpt>
      <trkpt lat="44.17443" lon="7.22751">
        <ele>2388.5</ele>
        <time>2019-08-10T10:19:46Z</time>
      </trkpt>
      <trkpt lat="44.17438" lon="7.22753">
        <ele>2391.1</ele>
        <time>2019-08-10T10:19:54Z</time>
      </trkpt>
      <trkpt lat="44.17435" lon="7.22756">
        <ele>2392</ele>
        <time>2019-08-10T10:19:59Z</time>
      </trkpt>
      <trkpt lat="44.17433" lon="7.22758">
        <ele>2392.9</ele>
        <time>2019-08-10T10:20:03Z</time>
      </trkpt>
      <trkpt lat="44.17431" lon="7.2276">
        <ele>2394.1</ele>
        <time>2019-08-10T10:20:07Z</time>
      </trkpt>
      <trkpt lat="44.1743" lon="7.2276">
        <ele>2394.3</ele>
        <time>2019-08-10T10:20:08Z</time>
      </trkpt>
      <trkpt lat="44.17425" lon="7.22761">
        <ele>2395.6</ele>
        <time>2019-08-10T10:20:31Z</time>
      </trkpt>
      <trkpt lat="44.1742" lon="7.22763">
        <ele>2397.2</ele>
        <time>2019-08-10T10:20:39Z</time>
      </trkpt>
      <trkpt lat="44.17414" lon="7.22766">
        <ele>2399.4</ele>
        <time>2019-08-10T10:20:46Z</time>
      </trkpt>
      <trkpt lat="44.17396" lon="7.22772">
        <ele>2404.9</ele>
        <time>2019-08-10T10:21:06Z</time>
      </trkpt>
      <trkpt lat="44.17394" lon="7.22772">
        <ele>2404.9</ele>
        <time>2019-08-10T10:21:12Z</time>
      </trkpt>
      <trkpt lat="44.17391" lon="7.22785">
        <ele>2401.8</ele>
        <time>2019-08-10T10:21:42Z</time>
      </trkpt>
      <trkpt lat="44.17393" lon="7.22789">
        <ele>2401.2</ele>
        <time>2019-08-10T10:21:46Z</time>
      </trkpt>
      <trkpt lat="44.17395" lon="7.22789">
        <ele>2400.9</ele>
        <time>2019-08-10T10:21:48Z</time>
      </trkpt>
      <trkpt lat="44.17408" lon="7.22806">
        <ele>2404.3</ele>
        <time>2019-08-10T10:22:06Z</time>
      </trkpt>
      <trkpt lat="44.17398" lon="7.22804">
        <ele>2407.5</ele>
        <time>2019-08-10T10:22:17Z</time>
      </trkpt>
      <trkpt lat="44.17382" lon="7.22812">
        <ele>2412.9</ele>
        <time>2019-08-10T10:22:37Z</time>
      </trkpt>
      <trkpt lat="44.17371" lon="7.22833">
        <ele>2418.5</ele>
        <time>2019-08-10T10:22:58Z</time>
      </trkpt>
      <trkpt lat="44.17362" lon="7.22854">
        <ele>2425.3</ele>
        <time>2019-08-10T10:23:17Z</time>
      </trkpt>
      <trkpt lat="44.17351" lon="7.22876">
        <ele>2431.9</ele>
        <time>2019-08-10T10:23:38Z</time>
      </trkpt>
      <trkpt lat="44.17347" lon="7.22887">
        <ele>2435.4</ele>
        <time>2019-08-10T10:23:50Z</time>
      </trkpt>
      <trkpt lat="44.17341" lon="7.22894">
        <ele>2437.8</ele>
        <time>2019-08-10T10:24:58Z</time>
      </trkpt>
      <trkpt lat="44.17343" lon="7.22917">
        <ele>2442.7</ele>
        <time>2019-08-10T10:25:18Z</time>
      </trkpt>
      <trkpt lat="44.17351" lon="7.22926">
        <ele>2445.3</ele>
        <time>2019-08-10T10:25:29Z</time>
      </trkpt>
      <trkpt lat="44.17349" lon="7.22949">
        <ele>2451.4</ele>
        <time>2019-08-10T10:25:49Z</time>
      </trkpt>
      <trkpt lat="44.1734" lon="7.22967">
        <ele>2454.7</ele>
        <time>2019-08-10T10:26:10Z</time>
      </trkpt>
      <trkpt lat="44.17339" lon="7.22967">
        <ele>2454.7</ele>
        <time>2019-08-10T10:26:14Z</time>
      </trkpt>
      <trkpt lat="44.17335" lon="7.22956">
        <ele>2453.7</ele>
        <time>2019-08-10T10:26:26Z</time>
      </trkpt>
      <trkpt lat="44.17321" lon="7.22951">
        <ele>2459</ele>
        <time>2019-08-10T10:27:09Z</time>
      </trkpt>
      <trkpt lat="44.17305" lon="7.22954">
        <ele>2464.7</ele>
        <time>2019-08-10T10:27:29Z</time>
      </trkpt>
      <trkpt lat="44.17302" lon="7.22954">
        <ele>2466.2</ele>
        <time>2019-08-10T10:27:32Z</time>
      </trkpt>
      <trkpt lat="44.17287" lon="7.22965">
        <ele>2473.4</ele>
        <time>2019-08-10T10:27:59Z</time>
      </trkpt>
      <trkpt lat="44.17285" lon="7.2299">
        <ele>2480.7</ele>
        <time>2019-08-10T10:28:24Z</time>
      </trkpt>
      <trkpt lat="44.17274" lon="7.22971">
        <ele>2482.7</ele>
        <time>2019-08-10T10:28:50Z</time>
      </trkpt>
      <trkpt lat="44.17267" lon="7.22994">
        <ele>2486.9</ele>
        <time>2019-08-10T10:29:19Z</time>
      </trkpt>
      <trkpt lat="44.17258" lon="7.23017">
        <ele>2489.7</ele>
        <time>2019-08-10T10:29:46Z</time>
      </trkpt>
      <trkpt lat="44.17246" lon="7.2303">
        <ele>2497.8</ele>
        <time>2019-08-10T10:30:15Z</time>
      </trkpt>
      <trkpt lat="44.17231" lon="7.23017">
        <ele>2504.6</ele>
        <time>2019-08-10T10:30:36Z</time>
      </trkpt>
      <trkpt lat="44.17232" lon="7.23042">
        <ele>2522.4</ele>
        <time>2019-08-10T10:31:01Z</time>
      </trkpt>
      <trkpt lat="44.17219" lon="7.23052">
        <ele>2532.7</ele>
        <time>2019-08-10T10:31:34Z</time>
      </trkpt>
      <trkpt lat="44.17204" lon="7.23056">
        <ele>2546.1</ele>
        <time>2019-08-10T10:32:07Z</time>
      </trkpt>
      <trkpt lat="44.17202" lon="7.23079">
        <ele>2555.7</ele>
        <time>2019-08-10T10:32:43Z</time>
      </trkpt>
      <trkpt lat="44.17199" lon="7.23093">
        <ele>2560.8</ele>
        <time>2019-08-10T10:33:56Z</time>
      </trkpt>
      <trkpt lat="44.17186" lon="7.23099">
        <ele>2566.8</ele>
        <time>2019-08-10T10:34:48Z</time>
      </trkpt>
      <trkpt lat="44.17182" lon="7.2311">
        <ele>2571.1</ele>
        <time>2019-08-10T10:35:52Z</time>
      </trkpt>
      <trkpt lat="44.17174" lon="7.2311">
        <ele>2573.4</ele>
        <time>2019-08-10T10:36:03Z</time>
      </trkpt>
      <trkpt lat="44.17174" lon="7.2311">
        <ele>2573.4</ele>
        <time>2019-08-10T10:36:05Z</time>
      </trkpt>
      <trkpt lat="44.1717" lon="7.23108">
        <ele>2573.4</ele>
        <time>2019-08-10T10:36:10Z</time>
      </trkpt>
      <trkpt lat="44.17171" lon="7.23113">
        <ele>2573.9</ele>
        <time>2019-08-10T10:37:06Z</time>
      </trkpt>
      <trkpt lat="44.1716" lon="7.23109">
        <ele>2577</ele>
        <time>2019-08-10T10:37:33Z</time>
      </trkpt>
      <trkpt lat="44.17164" lon="7.2313">
        <ele>2585.1</ele>
        <time>2019-08-10T10:38:09Z</time>
      </trkpt>
      <trkpt lat="44.1716" lon="7.2313">
        <ele>2586.4</ele>
        <time>2019-08-10T10:38:15Z</time>
      </trkpt>
      <trkpt lat="44.17157" lon="7.23128">
        <ele>2587</ele>
        <time>2019-08-10T10:38:18Z</time>
      </trkpt>
      <trkpt lat="44.17147" lon="7.23118">
        <ele>2589.2</ele>
        <time>2019-08-10T10:38:32Z</time>
      </trkpt>
      <trkpt lat="44.17146" lon="7.23117">
        <ele>2589.7</ele>
        <time>2019-08-10T10:38:36Z</time>
      </trkpt>
      <trkpt lat="44.17145" lon="7.23117">
        <ele>2589.9</ele>
        <time>2019-08-10T10:38:38Z</time>
      </trkpt>
      <trkpt lat="44.17138" lon="7.23119">
        <ele>2592.2</ele>
        <time>2019-08-10T10:39:13Z</time>
      </trkpt>
      <trkpt lat="44.17134" lon="7.23119">
        <ele>2594.1</ele>
        <time>2019-08-10T10:39:40Z</time>
      </trkpt>
      <trkpt lat="44.17126" lon="7.23134">
        <ele>2597.2</ele>
        <time>2019-08-10T10:40:19Z</time>
      </trkpt>
      <trkpt lat="44.17121" lon="7.23141">
        <ele>2599</ele>
        <time>2019-08-10T10:40:47Z</time>
      </trkpt>
      <trkpt lat="44.17119" lon="7.23134">
        <ele>2602.9</ele>
        <time>2019-08-10T10:40:51Z</time>
      </trkpt>
      <trkpt lat="44.17116" lon="7.23127">
        <ele>2605.7</ele>
        <time>2019-08-10T10:40:55Z</time>
      </trkpt>
      <trkpt lat="44.17112" lon="7.23115">
        <ele>2606.8</ele>
        <time>2019-08-10T10:41:05Z</time>
      </trkpt>
      <trkpt lat="44.17112" lon="7.23114">
        <ele>2606.8</ele>
        <time>2019-08-10T10:41:07Z</time>
      </trkpt>
      <trkpt lat="44.1711" lon="7.23114">
        <ele>2606.8</ele>
        <time>2019-08-10T10:41:11Z</time>
      </trkpt>
      <trkpt lat="44.17109" lon="7.23117">
        <ele>2606.7</ele>
        <time>2019-08-10T10:41:16Z</time>
      </trkpt>
      <trkpt lat="44.17112" lon="7.23143">
        <ele>2610.8</ele>
        <time>2019-08-10T10:41:40Z</time>
      </trkpt>
      <trkpt lat="44.17099" lon="7.23133">
        <ele>2613.8</ele>
        <time>2019-08-10T10:42:01Z</time>
      </trkpt>
      <trkpt lat="44.171" lon="7.23155">
        <ele>2617.8</ele>
        <time>2019-08-10T10:42:29Z</time>
      </trkpt>
      <trkpt lat="44.17091" lon="7.23163">
        <ele>2620.6</ele>
        <time>2019-08-10T10:43:14Z</time>
      </trkpt>
      <trkpt lat="44.17083" lon="7.23158">
        <ele>2621.4</ele>
        <time>2019-08-10T10:45:14Z</time>
      </trkpt>
      <trkpt lat="44.17083" lon="7.23163">
        <ele>2621.4</ele>
        <time>2019-08-10T10:46:58Z</time>
      </trkpt>
      <trkpt lat="44.1708" lon="7.23161">
        <ele>2621.5</ele>
        <time>2019-08-10T10:47:02Z</time>
      </trkpt>
      <trkpt lat="44.17067" lon="7.23158">
        <ele>2621.7</ele>
        <time>2019-08-10T10:47:13Z</time>
      </trkpt>
      <trkpt lat="44.17079" lon="7.2318">
        <ele>2621.6</ele>
        <time>2019-08-10T10:47:22Z</time>
      </trkpt>
      <trkpt lat="44.17089" lon="7.23203">
        <ele>2622.3</ele>
        <time>2019-08-10T10:47:31Z</time>
      </trkpt>
      <trkpt lat="44.17087" lon="7.23207">
        <ele>2622.2</ele>
        <time>2019-08-10T10:47:35Z</time>
      </trkpt>
      <trkpt lat="44.17071" lon="7.2319">
        <ele>2620.4</ele>
        <time>2019-08-10T10:47:44Z</time>
      </trkpt>
      <trkpt lat="44.17052" lon="7.23181">
        <ele>2618.7</ele>
        <time>2019-08-10T10:47:50Z</time>
      </trkpt>
      <trkpt lat="44.17035" lon="7.23175">
        <ele>2616.9</ele>
        <time>2019-08-10T10:47:56Z</time>
      </trkpt>
      <trkpt lat="44.17017" lon="7.23163">
        <ele>2615.8</ele>
        <time>2019-08-10T10:48:03Z</time>
      </trkpt>
      <trkpt lat="44.17" lon="7.23156">
        <ele>2614.2</ele>
        <time>2019-08-10T10:48:18Z</time>
      </trkpt>
      <trkpt lat="44.16998" lon="7.23156">
        <ele>2613.8</ele>
        <time>2019-08-10T10:48:21Z</time>
      </trkpt>
      <trkpt lat="44.16988" lon="7.23152">
        <ele>2611</ele>
        <time>2019-08-10T10:48:30Z</time>
      </trkpt>
      <trkpt lat="44.16981" lon="7.23144">
        <ele>2610.4</ele>
        <time>2019-08-10T10:48:42Z</time>
      </trkpt>
      <trkpt lat="44.16971" lon="7.23138">
        <ele>2607.2</ele>
        <time>2019-08-10T10:49:41Z</time>
      </trkpt>
      <trkpt lat="44.16953" lon="7.23137">
        <ele>2603</ele>
        <time>2019-08-10T10:49:53Z</time>
      </trkpt>
      <trkpt lat="44.16953" lon="7.23142">
        <ele>2601.8</ele>
        <time>2019-08-10T10:49:58Z</time>
      </trkpt>
      <trkpt lat="44.16968" lon="7.23154">
        <ele>2597.3</ele>
        <time>2019-08-10T10:50:07Z</time>
      </trkpt>
      <trkpt lat="44.16969" lon="7.23154">
        <ele>2597.3</ele>
        <time>2019-08-10T10:50:09Z</time>
      </trkpt>
      <trkpt lat="44.16984" lon="7.23173">
        <ele>2595.6</ele>
        <time>2019-08-10T10:50:18Z</time>
      </trkpt>
      <trkpt lat="44.16997" lon="7.23195">
        <ele>2595.8</ele>
        <time>2019-08-10T10:50:25Z</time>
      </trkpt>
      <trkpt lat="44.17007" lon="7.23217">
        <ele>2594.5</ele>
        <time>2019-08-10T10:50:33Z</time>
      </trkpt>
      <trkpt lat="44.1702" lon="7.23235">
        <ele>2594.4</ele>
        <time>2019-08-10T10:50:40Z</time>
      </trkpt>
      <trkpt lat="44.17028" lon="7.23245">
        <ele>2593.8</ele>
        <time>2019-08-10T10:50:45Z</time>
      </trkpt>
      <trkpt lat="44.17026" lon="7.23246">
        <ele>2593.5</ele>
        <time>2019-08-10T10:50:47Z</time>
      </trkpt>
      <trkpt lat="44.17009" lon="7.23237">
        <ele>2590.8</ele>
        <time>2019-08-10T10:50:54Z</time>
      </trkpt>
      <trkpt lat="44.16989" lon="7.23229">
        <ele>2583.9</ele>
        <time>2019-08-10T10:51:01Z</time>
      </trkpt>
      <trkpt lat="44.1697" lon="7.23226">
        <ele>2577.1</ele>
        <time>2019-08-10T10:51:08Z</time>
      </trkpt>
      <trkpt lat="44.16955" lon="7.23224">
        <ele>2569.9</ele>
        <time>2019-08-10T10:51:17Z</time>
      </trkpt>
      <trkpt lat="44.16957" lon="7.23225">
        <ele>2569</ele>
        <time>2019-08-10T10:51:19Z</time>
      </trkpt>
      <trkpt lat="44.16974" lon="7.23241">
        <ele>2565.4</ele>
        <time>2019-08-10T10:51:29Z</time>
      </trkpt>
      <trkpt lat="44.1699" lon="7.23257">
        <ele>2565.2</ele>
        <time>2019-08-10T10:51:37Z</time>
      </trkpt>
      <trkpt lat="44.17003" lon="7.23277">
        <ele>2565.9</ele>
        <time>2019-08-10T10:51:45Z</time>
      </trkpt>
      <trkpt lat="44.17005" lon="7.23291">
        <ele>2565.2</ele>
        <time>2019-08-10T10:51:55Z</time>
      </trkpt>
      <trkpt lat="44.1699" lon="7.2328">
        <ele>2560.7</ele>
        <time>2019-08-10T10:52:10Z</time>
      </trkpt>
      <trkpt lat="44.16989" lon="7.23278">
        <ele>2560</ele>
        <time>2019-08-10T10:52:13Z</time>
      </trkpt>
      <trkpt lat="44.16986" lon="7.23276">
        <ele>2558.9</ele>
        <time>2019-08-10T10:52:16Z</time>
      </trkpt>
      <trkpt lat="44.16966" lon="7.2327">
        <ele>2551.1</ele>
        <time>2019-08-10T10:52:30Z</time>
      </trkpt>
      <trkpt lat="44.16947" lon="7.23273">
        <ele>2545.7</ele>
        <time>2019-08-10T10:52:38Z</time>
      </trkpt>
      <trkpt lat="44.16928" lon="7.23272">
        <ele>2539.7</ele>
        <time>2019-08-10T10:52:46Z</time>
      </trkpt>
      <trkpt lat="44.16918" lon="7.23274">
        <ele>2538.3</ele>
        <time>2019-08-10T10:52:52Z</time>
      </trkpt>
      <trkpt lat="44.16902" lon="7.23276">
        <ele>2536.2</ele>
        <time>2019-08-10T10:53:06Z</time>
      </trkpt>
      <trkpt lat="44.16896" lon="7.23277">
        <ele>2535</ele>
        <time>2019-08-10T10:53:13Z</time>
      </trkpt>
      <trkpt lat="44.16894" lon="7.23278">
        <ele>2534.5</ele>
        <time>2019-08-10T10:53:15Z</time>
      </trkpt>
      <trkpt lat="44.16884" lon="7.23277">
        <ele>2533.6</ele>
        <time>2019-08-10T10:53:28Z</time>
      </trkpt>
      <trkpt lat="44.16886" lon="7.23282">
        <ele>2532.6</ele>
        <time>2019-08-10T10:53:35Z</time>
      </trkpt>
      <trkpt lat="44.16886" lon="7.23282">
        <ele>2532.6</ele>
        <time>2019-08-10T10:53:37Z</time>
      </trkpt>
      <trkpt lat="44.16885" lon="7.2328">
        <ele>2532.2</ele>
        <time>2019-08-10T10:56:14Z</time>
      </trkpt>
      <trkpt lat="44.16892" lon="7.23288">
        <ele>2531.1</ele>
        <time>2019-08-10T10:56:38Z</time>
      </trkpt>
      <trkpt lat="44.16893" lon="7.2329">
        <ele>2531</ele>
        <time>2019-08-10T10:56:40Z</time>
      </trkpt>
      <trkpt lat="44.16901" lon="7.23299">
        <ele>2530.5</ele>
        <time>2019-08-10T10:56:53Z</time>
      </trkpt>
      <trkpt lat="44.16899" lon="7.233">
        <ele>2530.2</ele>
        <time>2019-08-10T10:56:55Z</time>
      </trkpt>
      <trkpt lat="44.16884" lon="7.23309">
        <ele>2527.6</ele>
        <time>2019-08-10T10:57:05Z</time>
      </trkpt>
      <trkpt lat="44.16893" lon="7.2332">
        <ele>2526</ele>
        <time>2019-08-10T10:57:14Z</time>
      </trkpt>
      <trkpt lat="44.1688" lon="7.23323">
        <ele>2523.4</ele>
        <time>2019-08-10T10:57:21Z</time>
      </trkpt>
      <trkpt lat="44.16891" lon="7.23331">
        <ele>2520.2</ele>
        <time>2019-08-10T10:57:28Z</time>
      </trkpt>
      <trkpt lat="44.1689" lon="7.23332">
        <ele>2519.7</ele>
        <time>2019-08-10T10:57:30Z</time>
      </trkpt>
      <trkpt lat="44.16871" lon="7.23339">
        <ele>2516.3</ele>
        <time>2019-08-10T10:57:39Z</time>
      </trkpt>
      <trkpt lat="44.16856" lon="7.23344">
        <ele>2513.7</ele>
        <time>2019-08-10T10:57:45Z</time>
      </trkpt>
      <trkpt lat="44.16852" lon="7.23368">
        <ele>2510</ele>
        <time>2019-08-10T10:57:51Z</time>
      </trkpt>
      <trkpt lat="44.16844" lon="7.23391">
        <ele>2505.2</ele>
        <time>2019-08-10T10:57:58Z</time>
      </trkpt>
      <trkpt lat="44.16831" lon="7.2341">
        <ele>2495.3</ele>
        <time>2019-08-10T10:58:07Z</time>
      </trkpt>
      <trkpt lat="44.16827" lon="7.23418">
        <ele>2491.2</ele>
        <time>2019-08-10T10:58:14Z</time>
      </trkpt>
      <trkpt lat="44.16825" lon="7.23419">
        <ele>2490.2</ele>
        <time>2019-08-10T10:58:16Z</time>
      </trkpt>
      <trkpt lat="44.16823" lon="7.23422">
        <ele>2489.3</ele>
        <time>2019-08-10T10:58:18Z</time>
      </trkpt>
      <trkpt lat="44.16821" lon="7.23424">
        <ele>2488.5</ele>
        <time>2019-08-10T10:58:21Z</time>
      </trkpt>
      <trkpt lat="44.16817" lon="7.23429">
        <ele>2487.2</ele>
        <time>2019-08-10T10:58:26Z</time>
      </trkpt>
      <trkpt lat="44.16814" lon="7.23453">
        <ele>2484.2</ele>
        <time>2019-08-10T10:58:42Z</time>
      </trkpt>
      <trkpt lat="44.16813" lon="7.23462">
        <ele>2483.5</ele>
        <time>2019-08-10T10:58:47Z</time>
      </trkpt>
      <trkpt lat="44.16812" lon="7.23468">
        <ele>2482.9</ele>
        <time>2019-08-10T10:58:51Z</time>
      </trkpt>
      <trkpt lat="44.16808" lon="7.23472">
        <ele>2482.4</ele>
        <time>2019-08-10T10:58:55Z</time>
      </trkpt>
      <trkpt lat="44.16797" lon="7.23491">
        <ele>2481.6</ele>
        <time>2019-08-10T10:59:09Z</time>
      </trkpt>
      <trkpt lat="44.16791" lon="7.23493">
        <ele>2481.5</ele>
        <time>2019-08-10T10:59:15Z</time>
      </trkpt>
      <trkpt lat="44.16788" lon="7.23495">
        <ele>2481.7</ele>
        <time>2019-08-10T10:59:18Z</time>
      </trkpt>
      <trkpt lat="44.16786" lon="7.23496">
        <ele>2481.9</ele>
        <time>2019-08-10T10:59:20Z</time>
      </trkpt>
      <trkpt lat="44.1677" lon="7.2351">
        <ele>2484</ele>
        <time>2019-08-10T10:59:34Z</time>
      </trkpt>
      <trkpt lat="44.16754" lon="7.23524">
        <ele>2483.9</ele>
        <time>2019-08-10T10:59:48Z</time>
      </trkpt>
      <trkpt lat="44.16737" lon="7.2353">
        <ele>2484.1</ele>
        <time>2019-08-10T10:59:57Z</time>
      </trkpt>
      <trkpt lat="44.16717" lon="7.23528">
        <ele>2484.8</ele>
        <time>2019-08-10T11:00:05Z</time>
      </trkpt>
      <trkpt lat="44.16699" lon="7.23527">
        <ele>2484.8</ele>
        <time>2019-08-10T11:00:12Z</time>
      </trkpt>
      <trkpt lat="44.16683" lon="7.23513">
        <ele>2483.5</ele>
        <time>2019-08-10T11:00:21Z</time>
      </trkpt>
      <trkpt lat="44.16668" lon="7.23502">
        <ele>2481.4</ele>
        <time>2019-08-10T11:00:29Z</time>
      </trkpt>
      <trkpt lat="44.16652" lon="7.23514">
        <ele>2479.4</ele>
        <time>2019-08-10T11:00:39Z</time>
      </trkpt>
      <trkpt lat="44.16643" lon="7.23536">
        <ele>2476</ele>
        <time>2019-08-10T11:00:50Z</time>
      </trkpt>
      <trkpt lat="44.16626" lon="7.23544">
        <ele>2472.4</ele>
        <time>2019-08-10T11:00:58Z</time>
      </trkpt>
      <trkpt lat="44.16611" lon="7.23559">
        <ele>2470.8</ele>
        <time>2019-08-10T11:01:07Z</time>
      </trkpt>
      <trkpt lat="44.16603" lon="7.2358">
        <ele>2470.6</ele>
        <time>2019-08-10T11:01:16Z</time>
      </trkpt>
      <trkpt lat="44.166" lon="7.23583">
        <ele>2469.9</ele>
        <time>2019-08-10T11:01:18Z</time>
      </trkpt>
      <trkpt lat="44.16592" lon="7.23586">
        <ele>2467.9</ele>
        <time>2019-08-10T11:01:23Z</time>
      </trkpt>
      <trkpt lat="44.16591" lon="7.23591">
        <ele>2467.7</ele>
        <time>2019-08-10T11:01:26Z</time>
      </trkpt>
      <trkpt lat="44.16581" lon="7.23611">
        <ele>2466.6</ele>
        <time>2019-08-10T11:01:35Z</time>
      </trkpt>
      <trkpt lat="44.16569" lon="7.23616">
        <ele>2466.4</ele>
        <time>2019-08-10T11:01:43Z</time>
      </trkpt>
      <trkpt lat="44.16556" lon="7.23634">
        <ele>2467.3</ele>
        <time>2019-08-10T11:01:59Z</time>
      </trkpt>
      <trkpt lat="44.16555" lon="7.23639">
        <ele>2467.5</ele>
        <time>2019-08-10T11:02:02Z</time>
      </trkpt>
      <trkpt lat="44.1655" lon="7.23639">
        <ele>2467.7</ele>
        <time>2019-08-10T11:02:06Z</time>
      </trkpt>
      <trkpt lat="44.16538" lon="7.2362">
        <ele>2468.4</ele>
        <time>2019-08-10T11:02:17Z</time>
      </trkpt>
      <trkpt lat="44.16527" lon="7.23599">
        <ele>2467.9</ele>
        <time>2019-08-10T11:02:29Z</time>
      </trkpt>
      <trkpt lat="44.16517" lon="7.23587">
        <ele>2468</ele>
        <time>2019-08-10T11:02:39Z</time>
      </trkpt>
      <trkpt lat="44.16515" lon="7.23585">
        <ele>2467.6</ele>
        <time>2019-08-10T11:02:42Z</time>
      </trkpt>
      <trkpt lat="44.16514" lon="7.23583">
        <ele>2467.3</ele>
        <time>2019-08-10T11:02:45Z</time>
      </trkpt>
      <trkpt lat="44.16512" lon="7.23582">
        <ele>2466.8</ele>
        <time>2019-08-10T11:02:48Z</time>
      </trkpt>
      <trkpt lat="44.16496" lon="7.23571">
        <ele>2461.5</ele>
        <time>2019-08-10T11:03:37Z</time>
      </trkpt>
      <trkpt lat="44.16487" lon="7.23563">
        <ele>2457.6</ele>
        <time>2019-08-10T11:03:50Z</time>
      </trkpt>
      <trkpt lat="44.16502" lon="7.23564">
        <ele>2451.4</ele>
        <time>2019-08-10T11:04:29Z</time>
      </trkpt>
      <trkpt lat="44.1651" lon="7.23561">
        <ele>2448.7</ele>
        <time>2019-08-10T11:05:16Z</time>
      </trkpt>
      <trkpt lat="44.16524" lon="7.23545">
        <ele>2443.3</ele>
        <time>2019-08-10T11:05:26Z</time>
      </trkpt>
      <trkpt lat="44.1653" lon="7.23538">
        <ele>2441.9</ele>
        <time>2019-08-10T11:05:31Z</time>
      </trkpt>
      <trkpt lat="44.16529" lon="7.23536">
        <ele>2442</ele>
        <time>2019-08-10T11:05:33Z</time>
      </trkpt>
      <trkpt lat="44.16521" lon="7.23534">
        <ele>2443.4</ele>
        <time>2019-08-10T11:05:39Z</time>
      </trkpt>
      <trkpt lat="44.16531" lon="7.2352">
        <ele>2446.1</ele>
        <time>2019-08-10T11:05:50Z</time>
      </trkpt>
      <trkpt lat="44.16513" lon="7.23517">
        <ele>2446.1</ele>
        <time>2019-08-10T11:05:59Z</time>
      </trkpt>
      <trkpt lat="44.16496" lon="7.23508">
        <ele>2443.2</ele>
        <time>2019-08-10T11:06:05Z</time>
      </trkpt>
      <trkpt lat="44.1649" lon="7.23506">
        <ele>2443</ele>
        <time>2019-08-10T11:06:08Z</time>
      </trkpt>
      <trkpt lat="44.1647" lon="7.23508">
        <ele>2439.3</ele>
        <time>2019-08-10T11:06:23Z</time>
      </trkpt>
      <trkpt lat="44.16453" lon="7.23501">
        <ele>2434.3</ele>
        <time>2019-08-10T11:06:31Z</time>
      </trkpt>
      <trkpt lat="44.16435" lon="7.23489">
        <ele>2430.6</ele>
        <time>2019-08-10T11:06:37Z</time>
      </trkpt>
      <trkpt lat="44.16417" lon="7.23475">
        <ele>2427.1</ele>
        <time>2019-08-10T11:06:43Z</time>
      </trkpt>
      <trkpt lat="44.16399" lon="7.23473">
        <ele>2424.7</ele>
        <time>2019-08-10T11:06:49Z</time>
      </trkpt>
      <trkpt lat="44.16388" lon="7.23478">
        <ele>2423.2</ele>
        <time>2019-08-10T11:06:55Z</time>
      </trkpt>
      <trkpt lat="44.16384" lon="7.2348">
        <ele>2422.9</ele>
        <time>2019-08-10T11:07:01Z</time>
      </trkpt>
      <trkpt lat="44.16377" lon="7.23488">
        <ele>2422.2</ele>
        <time>2019-08-10T11:08:17Z</time>
      </trkpt>
      <trkpt lat="44.16361" lon="7.23502">
        <ele>2420.6</ele>
        <time>2019-08-10T11:08:26Z</time>
      </trkpt>
      <trkpt lat="44.16352" lon="7.23509">
        <ele>2419.9</ele>
        <time>2019-08-10T11:08:32Z</time>
      </trkpt>
      <trkpt lat="44.16351" lon="7.23507">
        <ele>2419.7</ele>
        <time>2019-08-10T11:08:35Z</time>
      </trkpt>
      <trkpt lat="44.16355" lon="7.23481">
        <ele>2417.2</ele>
        <time>2019-08-10T11:08:44Z</time>
      </trkpt>
      <trkpt lat="44.16351" lon="7.23468">
        <ele>2415.8</ele>
        <time>2019-08-10T11:08:49Z</time>
      </trkpt>
      <trkpt lat="44.16348" lon="7.23469">
        <ele>2415.2</ele>
        <time>2019-08-10T11:08:51Z</time>
      </trkpt>
      <trkpt lat="44.16338" lon="7.23489">
        <ele>2413.2</ele>
        <time>2019-08-10T11:08:59Z</time>
      </trkpt>
      <trkpt lat="44.16329" lon="7.23512">
        <ele>2411.5</ele>
        <time>2019-08-10T11:09:08Z</time>
      </trkpt>
      <trkpt lat="44.16317" lon="7.23534">
        <ele>2406.6</ele>
        <time>2019-08-10T11:09:17Z</time>
      </trkpt>
      <trkpt lat="44.16307" lon="7.23548">
        <ele>2404.1</ele>
        <time>2019-08-10T11:09:24Z</time>
      </trkpt>
      <trkpt lat="44.16306" lon="7.23543">
        <ele>2403.5</ele>
        <time>2019-08-10T11:09:27Z</time>
      </trkpt>
      <trkpt lat="44.16303" lon="7.23517">
        <ele>2399.8</ele>
        <time>2019-08-10T11:09:35Z</time>
      </trkpt>
      <trkpt lat="44.16298" lon="7.23491">
        <ele>2396</ele>
        <time>2019-08-10T11:09:42Z</time>
      </trkpt>
      <trkpt lat="44.16296" lon="7.23485">
        <ele>2395.9</ele>
        <time>2019-08-10T11:09:48Z</time>
      </trkpt>
      <trkpt lat="44.16295" lon="7.23489">
        <ele>2395.5</ele>
        <time>2019-08-10T11:09:51Z</time>
      </trkpt>
      <trkpt lat="44.16286" lon="7.23511">
        <ele>2392.7</ele>
        <time>2019-08-10T11:10:00Z</time>
      </trkpt>
      <trkpt lat="44.16279" lon="7.23537">
        <ele>2389</ele>
        <time>2019-08-10T11:10:09Z</time>
      </trkpt>
      <trkpt lat="44.16262" lon="7.23552">
        <ele>2386.1</ele>
        <time>2019-08-10T11:10:17Z</time>
      </trkpt>
      <trkpt lat="44.16243" lon="7.23565">
        <ele>2380.9</ele>
        <time>2019-08-10T11:10:25Z</time>
      </trkpt>
      <trkpt lat="44.16228" lon="7.23579">
        <ele>2375.6</ele>
        <time>2019-08-10T11:10:32Z</time>
      </trkpt>
      <trkpt lat="44.16217" lon="7.23585">
        <ele>2371.8</ele>
        <time>2019-08-10T11:10:43Z</time>
      </trkpt>
      <trkpt lat="44.16212" lon="7.23589">
        <ele>2370.6</ele>
        <time>2019-08-10T11:11:50Z</time>
      </trkpt>
      <trkpt lat="44.16198" lon="7.23605">
        <ele>2366.6</ele>
        <time>2019-08-10T11:12:07Z</time>
      </trkpt>
      <trkpt lat="44.1618" lon="7.23619">
        <ele>2363.9</ele>
        <time>2019-08-10T11:12:16Z</time>
      </trkpt>
      <trkpt lat="44.16163" lon="7.2363">
        <ele>2361.4</ele>
        <time>2019-08-10T11:12:24Z</time>
      </trkpt>
      <trkpt lat="44.16145" lon="7.23636">
        <ele>2358.9</ele>
        <time>2019-08-10T11:12:32Z</time>
      </trkpt>
      <trkpt lat="44.16128" lon="7.23632">
        <ele>2357.4</ele>
        <time>2019-08-10T11:12:43Z</time>
      </trkpt>
      <trkpt lat="44.16109" lon="7.23634">
        <ele>2355.5</ele>
        <time>2019-08-10T11:12:54Z</time>
      </trkpt>
      <trkpt lat="44.161" lon="7.23636">
        <ele>2355</ele>
        <time>2019-08-10T11:13:01Z</time>
      </trkpt>
      <trkpt lat="44.16089" lon="7.23637">
        <ele>2354.6</ele>
        <time>2019-08-10T11:13:08Z</time>
      </trkpt>
      <trkpt lat="44.16087" lon="7.23635">
        <ele>2354.5</ele>
        <time>2019-08-10T11:13:11Z</time>
      </trkpt>
      <trkpt lat="44.16075" lon="7.23622">
        <ele>2354.9</ele>
        <time>2019-08-10T11:13:21Z</time>
      </trkpt>
      <trkpt lat="44.16076" lon="7.23618">
        <ele>2355</ele>
        <time>2019-08-10T11:13:24Z</time>
      </trkpt>
      <trkpt lat="44.16076" lon="7.23617">
        <ele>2355</ele>
        <time>2019-08-10T11:13:26Z</time>
      </trkpt>
      <trkpt lat="44.16079" lon="7.23623">
        <ele>2355.2</ele>
        <time>2019-08-10T11:13:51Z</time>
      </trkpt>
      <trkpt lat="44.16078" lon="7.23634">
        <ele>2355.7</ele>
        <time>2019-08-10T11:14:14Z</time>
      </trkpt>
      <trkpt lat="44.16073" lon="7.23644">
        <ele>2355.9</ele>
        <time>2019-08-10T11:14:25Z</time>
      </trkpt>
      <trkpt lat="44.16066" lon="7.23667">
        <ele>2356.7</ele>
        <time>2019-08-10T11:14:41Z</time>
      </trkpt>
      <trkpt lat="44.16056" lon="7.23689">
        <ele>2358.8</ele>
        <time>2019-08-10T11:14:58Z</time>
      </trkpt>
      <trkpt lat="44.16042" lon="7.23706">
        <ele>2361.1</ele>
        <time>2019-08-10T11:15:13Z</time>
      </trkpt>
      <trkpt lat="44.16041" lon="7.23706">
        <ele>2361.1</ele>
        <time>2019-08-10T11:15:15Z</time>
      </trkpt>
      <trkpt lat="44.1604" lon="7.23705">
        <ele>2361</ele>
        <time>2019-08-10T11:15:17Z</time>
      </trkpt>
      <trkpt lat="44.16037" lon="7.23706">
        <ele>2360.9</ele>
        <time>2019-08-10T11:15:19Z</time>
      </trkpt>
      <trkpt lat="44.1602" lon="7.23714">
        <ele>2361.1</ele>
        <time>2019-08-10T11:15:38Z</time>
      </trkpt>
      <trkpt lat="44.16011" lon="7.23721">
        <ele>2361.5</ele>
        <time>2019-08-10T11:15:50Z</time>
      </trkpt>
      <trkpt lat="44.1601" lon="7.23721">
        <ele>2361.5</ele>
        <time>2019-08-10T11:15:52Z</time>
      </trkpt>
      <trkpt lat="44.15992" lon="7.23727">
        <ele>2362.9</ele>
        <time>2019-08-10T11:16:08Z</time>
      </trkpt>
      <trkpt lat="44.15974" lon="7.23733">
        <ele>2363.8</ele>
        <time>2019-08-10T11:16:22Z</time>
      </trkpt>
      <trkpt lat="44.15973" lon="7.23734">
        <ele>2363.9</ele>
        <time>2019-08-10T11:16:24Z</time>
      </trkpt>
      <trkpt lat="44.1597" lon="7.23736">
        <ele>2363.9</ele>
        <time>2019-08-10T11:16:27Z</time>
      </trkpt>
      <trkpt lat="44.15953" lon="7.23743">
        <ele>2364.1</ele>
        <time>2019-08-10T11:16:47Z</time>
      </trkpt>
      <trkpt lat="44.15935" lon="7.23747">
        <ele>2364.1</ele>
        <time>2019-08-10T11:17:06Z</time>
      </trkpt>
      <trkpt lat="44.15918" lon="7.23751">
        <ele>2363.3</ele>
        <time>2019-08-10T11:17:25Z</time>
      </trkpt>
      <trkpt lat="44.15902" lon="7.23738">
        <ele>2362.6</ele>
        <time>2019-08-10T11:17:42Z</time>
      </trkpt>
      <trkpt lat="44.15893" lon="7.23733">
        <ele>2362.1</ele>
        <time>2019-08-10T11:17:57Z</time>
      </trkpt>
      <trkpt lat="44.15879" lon="7.2375">
        <ele>2362</ele>
        <time>2019-08-10T11:18:10Z</time>
      </trkpt>
      <trkpt lat="44.15864" lon="7.23766">
        <ele>2361.7</ele>
        <time>2019-08-10T11:18:18Z</time>
      </trkpt>
      <trkpt lat="44.15846" lon="7.23778">
        <ele>2361.2</ele>
        <time>2019-08-10T11:18:29Z</time>
      </trkpt>
      <trkpt lat="44.15833" lon="7.23796">
        <ele>2361.3</ele>
        <time>2019-08-10T11:18:36Z</time>
      </trkpt>
      <trkpt lat="44.15818" lon="7.23806">
        <ele>2361.6</ele>
        <time>2019-08-10T11:18:54Z</time>
      </trkpt>
      <trkpt lat="44.15803" lon="7.23799">
        <ele>2362.1</ele>
        <time>2019-08-10T11:19:08Z</time>
      </trkpt>
      <trkpt lat="44.158" lon="7.23804">
        <ele>2362.2</ele>
        <time>2019-08-10T11:19:16Z</time>
      </trkpt>
      <trkpt lat="44.15795" lon="7.23798">
        <ele>2362.4</ele>
        <time>2019-08-10T11:19:23Z</time>
      </trkpt>
      <trkpt lat="44.15776" lon="7.2379">
        <ele>2362.4</ele>
        <time>2019-08-10T11:19:31Z</time>
      </trkpt>
      <trkpt lat="44.15758" lon="7.23791">
        <ele>2361.6</ele>
        <time>2019-08-10T11:19:43Z</time>
      </trkpt>
      <trkpt lat="44.15739" lon="7.23791">
        <ele>2360.8</ele>
        <time>2019-08-10T11:19:53Z</time>
      </trkpt>
      <trkpt lat="44.15721" lon="7.23784">
        <ele>2360.6</ele>
        <time>2019-08-10T11:20:02Z</time>
      </trkpt>
      <trkpt lat="44.15704" lon="7.23773">
        <ele>2360.7</ele>
        <time>2019-08-10T11:20:09Z</time>
      </trkpt>
      <trkpt lat="44.15689" lon="7.23758">
        <ele>2360.6</ele>
        <time>2019-08-10T11:20:17Z</time>
      </trkpt>
      <trkpt lat="44.15677" lon="7.23738">
        <ele>2361</ele>
        <time>2019-08-10T11:20:29Z</time>
      </trkpt>
      <trkpt lat="44.15675" lon="7.23738">
        <ele>2361</ele>
        <time>2019-08-10T11:20:31Z</time>
      </trkpt>
      <trkpt lat="44.15658" lon="7.23749">
        <ele>2360</ele>
        <time>2019-08-10T11:20:45Z</time>
      </trkpt>
      <trkpt lat="44.15641" lon="7.23755">
        <ele>2359.2</ele>
        <time>2019-08-10T11:20:54Z</time>
      </trkpt>
      <trkpt lat="44.15631" lon="7.23735">
        <ele>2360.3</ele>
        <time>2019-08-10T11:21:07Z</time>
      </trkpt>
      <trkpt lat="44.15616" lon="7.23724">
        <ele>2363</ele>
        <time>2019-08-10T11:21:21Z</time>
      </trkpt>
      <trkpt lat="44.15616" lon="7.23722">
        <ele>2363.2</ele>
        <time>2019-08-10T11:21:24Z</time>
      </trkpt>
      <trkpt lat="44.15599" lon="7.23717">
        <ele>2362.8</ele>
        <time>2019-08-10T11:21:48Z</time>
      </trkpt>
      <trkpt lat="44.1558" lon="7.23715">
        <ele>2361.4</ele>
        <time>2019-08-10T11:21:56Z</time>
      </trkpt>
      <trkpt lat="44.15562" lon="7.2371">
        <ele>2360.8</ele>
        <time>2019-08-10T11:22:04Z</time>
      </trkpt>
      <trkpt lat="44.15544" lon="7.23717">
        <ele>2359.2</ele>
        <time>2019-08-10T11:22:12Z</time>
      </trkpt>
      <trkpt lat="44.15526" lon="7.23726">
        <ele>2356.1</ele>
        <time>2019-08-10T11:22:22Z</time>
      </trkpt>
      <trkpt lat="44.15509" lon="7.23736">
        <ele>2353.6</ele>
        <time>2019-08-10T11:22:32Z</time>
      </trkpt>
      <trkpt lat="44.15491" lon="7.23739">
        <ele>2350.8</ele>
        <time>2019-08-10T11:22:41Z</time>
      </trkpt>
      <trkpt lat="44.15474" lon="7.23755">
        <ele>2347.1</ele>
        <time>2019-08-10T11:22:52Z</time>
      </trkpt>
      <trkpt lat="44.15456" lon="7.23758">
        <ele>2343.2</ele>
        <time>2019-08-10T11:23:05Z</time>
      </trkpt>
      <trkpt lat="44.15438" lon="7.23767">
        <ele>2339.3</ele>
        <time>2019-08-10T11:23:16Z</time>
      </trkpt>
      <trkpt lat="44.15421" lon="7.23777">
        <ele>2336.3</ele>
        <time>2019-08-10T11:23:28Z</time>
      </trkpt>
      <trkpt lat="44.15412" lon="7.238">
        <ele>2332.5</ele>
        <time>2019-08-10T11:23:37Z</time>
      </trkpt>
      <trkpt lat="44.15398" lon="7.23817">
        <ele>2329.4</ele>
        <time>2019-08-10T11:23:47Z</time>
      </trkpt>
      <trkpt lat="44.15379" lon="7.23823">
        <ele>2325.7</ele>
        <time>2019-08-10T11:23:55Z</time>
      </trkpt>
      <trkpt lat="44.15361" lon="7.23827">
        <ele>2322.1</ele>
        <time>2019-08-10T11:24:03Z</time>
      </trkpt>
      <trkpt lat="44.15342" lon="7.23837">
        <ele>2318.8</ele>
        <time>2019-08-10T11:24:10Z</time>
      </trkpt>
      <trkpt lat="44.15324" lon="7.23844">
        <ele>2315.7</ele>
        <time>2019-08-10T11:24:15Z</time>
      </trkpt>
      <trkpt lat="44.15306" lon="7.23856">
        <ele>2311.5</ele>
        <time>2019-08-10T11:24:23Z</time>
      </trkpt>
      <trkpt lat="44.15289" lon="7.23873">
        <ele>2308.1</ele>
        <time>2019-08-10T11:24:31Z</time>
      </trkpt>
      <trkpt lat="44.15284" lon="7.23873">
        <ele>2307.1</ele>
        <time>2019-08-10T11:26:01Z</time>
      </trkpt>
      <trkpt lat="44.15281" lon="7.23861">
        <ele>2305.6</ele>
        <time>2019-08-10T11:26:06Z</time>
      </trkpt>
      <trkpt lat="44.15285" lon="7.2384">
        <ele>2302.2</ele>
        <time>2019-08-10T11:26:14Z</time>
      </trkpt>
      <trkpt lat="44.15267" lon="7.23844">
        <ele>2298</ele>
        <time>2019-08-10T11:26:26Z</time>
      </trkpt>
      <trkpt lat="44.15265" lon="7.23847">
        <ele>2297.3</ele>
        <time>2019-08-10T11:26:28Z</time>
      </trkpt>
      <trkpt lat="44.1526" lon="7.23872">
        <ele>2293.7</ele>
        <time>2019-08-10T11:26:37Z</time>
      </trkpt>
      <trkpt lat="44.15254" lon="7.23897">
        <ele>2290.4</ele>
        <time>2019-08-10T11:26:45Z</time>
      </trkpt>
      <trkpt lat="44.15246" lon="7.23921">
        <ele>2287.4</ele>
        <time>2019-08-10T11:26:53Z</time>
      </trkpt>
      <trkpt lat="44.15233" lon="7.2394">
        <ele>2284.5</ele>
        <time>2019-08-10T11:27:02Z</time>
      </trkpt>
      <trkpt lat="44.15219" lon="7.23957">
        <ele>2282.2</ele>
        <time>2019-08-10T11:27:11Z</time>
      </trkpt>
      <trkpt lat="44.15208" lon="7.23978">
        <ele>2280.9</ele>
        <time>2019-08-10T11:27:18Z</time>
      </trkpt>
      <trkpt lat="44.15199" lon="7.24001">
        <ele>2279.8</ele>
        <time>2019-08-10T11:27:26Z</time>
      </trkpt>
      <trkpt lat="44.15186" lon="7.24017">
        <ele>2278</ele>
        <time>2019-08-10T11:27:42Z</time>
      </trkpt>
      <trkpt lat="44.15172" lon="7.24035">
        <ele>2275.5</ele>
        <time>2019-08-10T11:27:50Z</time>
      </trkpt>
      <trkpt lat="44.15169" lon="7.24039">
        <ele>2274.4</ele>
        <time>2019-08-10T11:27:52Z</time>
      </trkpt>
      <trkpt lat="44.15161" lon="7.24037">
        <ele>2272.9</ele>
        <time>2019-08-10T11:27:59Z</time>
      </trkpt>
      <trkpt lat="44.1516" lon="7.24015">
        <ele>2269.9</ele>
        <time>2019-08-10T11:28:29Z</time>
      </trkpt>
      <trkpt lat="44.15161" lon="7.24003">
        <ele>2268.4</ele>
        <time>2019-08-10T11:28:35Z</time>
      </trkpt>
      <trkpt lat="44.15154" lon="7.24011">
        <ele>2267</ele>
        <time>2019-08-10T11:28:41Z</time>
      </trkpt>
      <trkpt lat="44.15153" lon="7.24004">
        <ele>2266</ele>
        <time>2019-08-10T11:28:45Z</time>
      </trkpt>
      <trkpt lat="44.15156" lon="7.23985">
        <ele>2262.3</ele>
        <time>2019-08-10T11:28:54Z</time>
      </trkpt>
      <trkpt lat="44.15161" lon="7.2396">
        <ele>2257.7</ele>
        <time>2019-08-10T11:29:04Z</time>
      </trkpt>
      <trkpt lat="44.15163" lon="7.2395">
        <ele>2255.9</ele>
        <time>2019-08-10T11:29:08Z</time>
      </trkpt>
      <trkpt lat="44.15161" lon="7.23943">
        <ele>2254.5</ele>
        <time>2019-08-10T11:29:11Z</time>
      </trkpt>
      <trkpt lat="44.15165" lon="7.23918">
        <ele>2249.8</ele>
        <time>2019-08-10T11:29:22Z</time>
      </trkpt>
      <trkpt lat="44.15168" lon="7.23911">
        <ele>2248.2</ele>
        <time>2019-08-10T11:29:28Z</time>
      </trkpt>
      <trkpt lat="44.15161" lon="7.23921">
        <ele>2245.8</ele>
        <time>2019-08-10T11:29:42Z</time>
      </trkpt>
      <trkpt lat="44.15158" lon="7.23918">
        <ele>2245</ele>
        <time>2019-08-10T11:29:47Z</time>
      </trkpt>
      <trkpt lat="44.15162" lon="7.23892">
        <ele>2242.2</ele>
        <time>2019-08-10T11:29:55Z</time>
      </trkpt>
      <trkpt lat="44.15166" lon="7.23866">
        <ele>2240.2</ele>
        <time>2019-08-10T11:30:03Z</time>
      </trkpt>
      <trkpt lat="44.1517" lon="7.23839">
        <ele>2238</ele>
        <time>2019-08-10T11:30:10Z</time>
      </trkpt>
      <trkpt lat="44.15169" lon="7.23813">
        <ele>2235.9</ele>
        <time>2019-08-10T11:30:18Z</time>
      </trkpt>
      <trkpt lat="44.15169" lon="7.23809">
        <ele>2235.6</ele>
        <time>2019-08-10T11:30:20Z</time>
      </trkpt>
      <trkpt lat="44.15158" lon="7.2379">
        <ele>2233.2</ele>
        <time>2019-08-10T11:30:31Z</time>
      </trkpt>
      <trkpt lat="44.15162" lon="7.23765">
        <ele>2229.8</ele>
        <time>2019-08-10T11:30:42Z</time>
      </trkpt>
      <trkpt lat="44.15161" lon="7.23764">
        <ele>2229.6</ele>
        <time>2019-08-10T11:30:43Z</time>
      </trkpt>
      <trkpt lat="44.15147" lon="7.23781">
        <ele>2227.4</ele>
        <time>2019-08-10T11:30:56Z</time>
      </trkpt>
      <trkpt lat="44.15141" lon="7.23787">
        <ele>2226.5</ele>
        <time>2019-08-10T11:31:01Z</time>
      </trkpt>
      <trkpt lat="44.15134" lon="7.23763">
        <ele>2223.5</ele>
        <time>2019-08-10T11:31:10Z</time>
      </trkpt>
      <trkpt lat="44.1513" lon="7.23754">
        <ele>2222.6</ele>
        <time>2019-08-10T11:31:14Z</time>
      </trkpt>
      <trkpt lat="44.15127" lon="7.23757">
        <ele>2222.2</ele>
        <time>2019-08-10T11:31:16Z</time>
      </trkpt>
      <trkpt lat="44.15119" lon="7.2378">
        <ele>2220.8</ele>
        <time>2019-08-10T11:31:25Z</time>
      </trkpt>
      <trkpt lat="44.15116" lon="7.23803">
        <ele>2219.6</ele>
        <time>2019-08-10T11:31:37Z</time>
      </trkpt>
      <trkpt lat="44.15115" lon="7.23804">
        <ele>2219.4</ele>
        <time>2019-08-10T11:31:39Z</time>
      </trkpt>
      <trkpt lat="44.15101" lon="7.23784">
        <ele>2216.3</ele>
        <time>2019-08-10T11:31:49Z</time>
      </trkpt>
      <trkpt lat="44.15101" lon="7.23781">
        <ele>2215.9</ele>
        <time>2019-08-10T11:31:50Z</time>
      </trkpt>
      <trkpt lat="44.15103" lon="7.23755">
        <ele>2212.8</ele>
        <time>2019-08-10T11:32:01Z</time>
      </trkpt>
      <trkpt lat="44.15103" lon="7.23753">
        <ele>2212.6</ele>
        <time>2019-08-10T11:32:02Z</time>
      </trkpt>
      <trkpt lat="44.15102" lon="7.23736">
        <ele>2210.8</ele>
        <time>2019-08-10T11:32:08Z</time>
      </trkpt>
      <trkpt lat="44.15098" lon="7.23729">
        <ele>2209.6</ele>
        <time>2019-08-10T11:32:14Z</time>
      </trkpt>
      <trkpt lat="44.15088" lon="7.2375">
        <ele>2206.6</ele>
        <time>2019-08-10T11:32:23Z</time>
      </trkpt>
      <trkpt lat="44.15076" lon="7.23753">
        <ele>2205.4</ele>
        <time>2019-08-10T11:32:30Z</time>
      </trkpt>
      <trkpt lat="44.15069" lon="7.2373">
        <ele>2202.8</ele>
        <time>2019-08-10T11:32:40Z</time>
      </trkpt>
      <trkpt lat="44.15056" lon="7.23712">
        <ele>2200.2</ele>
        <time>2019-08-10T11:32:51Z</time>
      </trkpt>
      <trkpt lat="44.15055" lon="7.23709">
        <ele>2199.8</ele>
        <time>2019-08-10T11:32:53Z</time>
      </trkpt>
      <trkpt lat="44.15056" lon="7.23706">
        <ele>2199.4</ele>
        <time>2019-08-10T11:32:56Z</time>
      </trkpt>
      <trkpt lat="44.15057" lon="7.23703">
        <ele>2199</ele>
        <time>2019-08-10T11:32:58Z</time>
      </trkpt>
      <trkpt lat="44.15055" lon="7.23681">
        <ele>2196.5</ele>
        <time>2019-08-10T11:33:08Z</time>
      </trkpt>
      <trkpt lat="44.15057" lon="7.23668">
        <ele>2195.1</ele>
        <time>2019-08-10T11:33:13Z</time>
      </trkpt>
      <trkpt lat="44.15055" lon="7.23643">
        <ele>2193.2</ele>
        <time>2019-08-10T11:33:21Z</time>
      </trkpt>
      <trkpt lat="44.15055" lon="7.23641">
        <ele>2193</ele>
        <time>2019-08-10T11:33:22Z</time>
      </trkpt>
      <trkpt lat="44.15038" lon="7.23626">
        <ele>2191</ele>
        <time>2019-08-10T11:33:31Z</time>
      </trkpt>
      <trkpt lat="44.15021" lon="7.23615">
        <ele>2189.7</ele>
        <time>2019-08-10T11:33:41Z</time>
      </trkpt>
      <trkpt lat="44.15015" lon="7.23613">
        <ele>2189.4</ele>
        <time>2019-08-10T11:33:45Z</time>
      </trkpt>
      <trkpt lat="44.15014" lon="7.23612">
        <ele>2189.4</ele>
        <time>2019-08-10T11:33:47Z</time>
      </trkpt>
      <trkpt lat="44.15009" lon="7.23605">
        <ele>2189.1</ele>
        <time>2019-08-10T11:34:01Z</time>
      </trkpt>
      <trkpt lat="44.14993" lon="7.23592">
        <ele>2187.9</ele>
        <time>2019-08-10T11:34:12Z</time>
      </trkpt>
      <trkpt lat="44.14974" lon="7.23584">
        <ele>2186</ele>
        <time>2019-08-10T11:34:20Z</time>
      </trkpt>
      <trkpt lat="44.14957" lon="7.23574">
        <ele>2184</ele>
        <time>2019-08-10T11:34:31Z</time>
      </trkpt>
      <trkpt lat="44.14949" lon="7.23564">
        <ele>2182.9</ele>
        <time>2019-08-10T11:34:38Z</time>
      </trkpt>
      <trkpt lat="44.14944" lon="7.23562">
        <ele>2182.2</ele>
        <time>2019-08-10T11:34:43Z</time>
      </trkpt>
      <trkpt lat="44.14936" lon="7.23561">
        <ele>2181.2</ele>
        <time>2019-08-10T11:34:48Z</time>
      </trkpt>
      <trkpt lat="44.14933" lon="7.23568">
        <ele>2180.3</ele>
        <time>2019-08-10T11:34:52Z</time>
      </trkpt>
      <trkpt lat="44.14917" lon="7.23574">
        <ele>2177.7</ele>
        <time>2019-08-10T11:35:00Z</time>
      </trkpt>
      <trkpt lat="44.14899" lon="7.23581">
        <ele>2174.9</ele>
        <time>2019-08-10T11:35:10Z</time>
      </trkpt>
      <trkpt lat="44.14889" lon="7.23585">
        <ele>2172.6</ele>
        <time>2019-08-10T11:35:17Z</time>
      </trkpt>
      <trkpt lat="44.14873" lon="7.236">
        <ele>2169.7</ele>
        <time>2019-08-10T11:35:26Z</time>
      </trkpt>
      <trkpt lat="44.14857" lon="7.2361">
        <ele>2167.6</ele>
        <time>2019-08-10T11:35:36Z</time>
      </trkpt>
      <trkpt lat="44.14839" lon="7.23607">
        <ele>2165.3</ele>
        <time>2019-08-10T11:35:47Z</time>
      </trkpt>
      <trkpt lat="44.14836" lon="7.23608">
        <ele>2164.9</ele>
        <time>2019-08-10T11:35:49Z</time>
      </trkpt>
      <trkpt lat="44.14827" lon="7.23618">
        <ele>2163</ele>
        <time>2019-08-10T11:35:58Z</time>
      </trkpt>
      <trkpt lat="44.14807" lon="7.23616">
        <ele>2159.4</ele>
        <time>2019-08-10T11:36:08Z</time>
      </trkpt>
      <trkpt lat="44.1479" lon="7.23609">
        <ele>2156.1</ele>
        <time>2019-08-10T11:36:17Z</time>
      </trkpt>
      <trkpt lat="44.1477" lon="7.23604">
        <ele>2152.1</ele>
        <time>2019-08-10T11:36:27Z</time>
      </trkpt>
      <trkpt lat="44.14753" lon="7.23597">
        <ele>2147.9</ele>
        <time>2019-08-10T11:36:36Z</time>
      </trkpt>
      <trkpt lat="44.14738" lon="7.23601">
        <ele>2145.1</ele>
        <time>2019-08-10T11:36:45Z</time>
      </trkpt>
      <trkpt lat="44.14718" lon="7.23603">
        <ele>2141.5</ele>
        <time>2019-08-10T11:36:56Z</time>
      </trkpt>
      <trkpt lat="44.14714" lon="7.23604">
        <ele>2140.8</ele>
        <time>2019-08-10T11:36:58Z</time>
      </trkpt>
      <trkpt lat="44.14709" lon="7.23606">
        <ele>2140.1</ele>
        <time>2019-08-10T11:37:00Z</time>
      </trkpt>
      <trkpt lat="44.1469" lon="7.23611">
        <ele>2137.2</ele>
        <time>2019-08-10T11:37:08Z</time>
      </trkpt>
      <trkpt lat="44.14679" lon="7.23615">
        <ele>2135.5</ele>
        <time>2019-08-10T11:37:18Z</time>
      </trkpt>
      <trkpt lat="44.14692" lon="7.23627">
        <ele>2132.9</ele>
        <time>2019-08-10T11:37:56Z</time>
      </trkpt>
      <trkpt lat="44.14693" lon="7.23628">
        <ele>2132.7</ele>
        <time>2019-08-10T11:37:57Z</time>
      </trkpt>
      <trkpt lat="44.14695" lon="7.2363">
        <ele>2132.5</ele>
        <time>2019-08-10T11:38:00Z</time>
      </trkpt>
      <trkpt lat="44.14702" lon="7.23643">
        <ele>2131.4</ele>
        <time>2019-08-10T11:38:19Z</time>
      </trkpt>
      <trkpt lat="44.147" lon="7.23651">
        <ele>2130.9</ele>
        <time>2019-08-10T11:38:26Z</time>
      </trkpt>
      <trkpt lat="44.14695" lon="7.2365">
        <ele>2130.4</ele>
        <time>2019-08-10T11:38:30Z</time>
      </trkpt>
      <trkpt lat="44.14694" lon="7.23649">
        <ele>2130.2</ele>
        <time>2019-08-10T11:38:33Z</time>
      </trkpt>
      <trkpt lat="44.14685" lon="7.23645">
        <ele>2129.4</ele>
        <time>2019-08-10T11:39:26Z</time>
      </trkpt>
      <trkpt lat="44.14683" lon="7.23645">
        <ele>2129.3</ele>
        <time>2019-08-10T11:39:28Z</time>
      </trkpt>
      <trkpt lat="44.1468" lon="7.23645">
        <ele>2129.2</ele>
        <time>2019-08-10T11:39:30Z</time>
      </trkpt>
      <trkpt lat="44.14667" lon="7.2365">
        <ele>2128.3</ele>
        <time>2019-08-10T11:39:45Z</time>
      </trkpt>
      <trkpt lat="44.14649" lon="7.23646">
        <ele>2130.5</ele>
        <time>2019-08-10T11:40:00Z</time>
      </trkpt>
      <trkpt lat="44.1463" lon="7.23646">
        <ele>2129</ele>
        <time>2019-08-10T11:40:19Z</time>
      </trkpt>
      <trkpt lat="44.14613" lon="7.23636">
        <ele>2126.5</ele>
        <time>2019-08-10T11:40:38Z</time>
      </trkpt>
      <trkpt lat="44.14596" lon="7.23639">
        <ele>2125.1</ele>
        <time>2019-08-10T11:41:11Z</time>
      </trkpt>
      <trkpt lat="44.14593" lon="7.23639">
        <ele>2125</ele>
        <time>2019-08-10T11:41:15Z</time>
      </trkpt>
      <trkpt lat="44.14581" lon="7.23648">
        <ele>2124.8</ele>
        <time>2019-08-10T11:41:58Z</time>
      </trkpt>
      <trkpt lat="44.14579" lon="7.23651">
        <ele>2124.5</ele>
        <time>2019-08-10T11:42:01Z</time>
      </trkpt>
      <trkpt lat="44.14563" lon="7.23662">
        <ele>2124.1</ele>
        <time>2019-08-10T11:42:21Z</time>
      </trkpt>
      <trkpt lat="44.14544" lon="7.23667">
        <ele>2122.2</ele>
        <time>2019-08-10T11:42:40Z</time>
      </trkpt>
      <trkpt lat="44.14526" lon="7.23665">
        <ele>2118</ele>
        <time>2019-08-10T11:42:54Z</time>
      </trkpt>
      <trkpt lat="44.14508" lon="7.23659">
        <ele>2111.8</ele>
        <time>2019-08-10T11:43:13Z</time>
      </trkpt>
      <trkpt lat="44.14493" lon="7.23647">
        <ele>2105.3</ele>
        <time>2019-08-10T11:43:49Z</time>
      </trkpt>
      <trkpt lat="44.1448" lon="7.23631">
        <ele>2096.6</ele>
        <time>2019-08-10T11:44:13Z</time>
      </trkpt>
      <trkpt lat="44.14469" lon="7.23614">
        <ele>2089.6</ele>
        <time>2019-08-10T11:44:41Z</time>
      </trkpt>
      <trkpt lat="44.14463" lon="7.2361">
        <ele>2087.4</ele>
        <time>2019-08-10T11:44:46Z</time>
      </trkpt>
      <trkpt lat="44.14454" lon="7.23608">
        <ele>2084.7</ele>
        <time>2019-08-10T11:44:55Z</time>
      </trkpt>
      <trkpt lat="44.1444" lon="7.23597">
        <ele>2081</ele>
        <time>2019-08-10T11:45:07Z</time>
      </trkpt>
      <trkpt lat="44.14437" lon="7.23594">
        <ele>2079.9</ele>
        <time>2019-08-10T11:45:12Z</time>
      </trkpt>
      <trkpt lat="44.14438" lon="7.23587">
        <ele>2078.8</ele>
        <time>2019-08-10T11:45:16Z</time>
      </trkpt>
      <trkpt lat="44.14446" lon="7.23563">
        <ele>2073</ele>
        <time>2019-08-10T11:45:26Z</time>
      </trkpt>
      <trkpt lat="44.14448" lon="7.23556">
        <ele>2071.5</ele>
        <time>2019-08-10T11:45:31Z</time>
      </trkpt>
      <trkpt lat="44.14448" lon="7.23549">
        <ele>2070.3</ele>
        <time>2019-08-10T11:45:34Z</time>
      </trkpt>
      <trkpt lat="44.14457" lon="7.23527">
        <ele>2066</ele>
        <time>2019-08-10T11:45:47Z</time>
      </trkpt>
      <trkpt lat="44.1446" lon="7.23518">
        <ele>2064.6</ele>
        <time>2019-08-10T11:45:52Z</time>
      </trkpt>
      <trkpt lat="44.1446" lon="7.23507">
        <ele>2063.3</ele>
        <time>2019-08-10T11:46:00Z</time>
      </trkpt>
      <trkpt lat="44.14459" lon="7.23508">
        <ele>2063.2</ele>
        <time>2019-08-10T11:46:02Z</time>
      </trkpt>
      <trkpt lat="44.14457" lon="7.23484">
        <ele>2060.3</ele>
        <time>2019-08-10T11:46:31Z</time>
      </trkpt>
      <trkpt lat="44.14457" lon="7.23481">
        <ele>2059.7</ele>
        <time>2019-08-10T11:46:33Z</time>
      </trkpt>
      <trkpt lat="44.14443" lon="7.23467">
        <ele>2057.1</ele>
        <time>2019-08-10T11:46:46Z</time>
      </trkpt>
      <trkpt lat="44.14441" lon="7.23462">
        <ele>2056.5</ele>
        <time>2019-08-10T11:46:50Z</time>
      </trkpt>
      <trkpt lat="44.14443" lon="7.23458">
        <ele>2055.9</ele>
        <time>2019-08-10T11:46:53Z</time>
      </trkpt>
      <trkpt lat="44.14447" lon="7.2345">
        <ele>2054.4</ele>
        <time>2019-08-10T11:46:59Z</time>
      </trkpt>
      <trkpt lat="44.14448" lon="7.23447">
        <ele>2053.6</ele>
        <time>2019-08-10T11:47:03Z</time>
      </trkpt>
      <trkpt lat="44.14447" lon="7.23445">
        <ele>2053.3</ele>
        <time>2019-08-10T11:47:05Z</time>
      </trkpt>
      <trkpt lat="44.14444" lon="7.23442">
        <ele>2053.3</ele>
        <time>2019-08-10T11:47:08Z</time>
      </trkpt>
      <trkpt lat="44.14441" lon="7.23442">
        <ele>2053.3</ele>
        <time>2019-08-10T11:47:11Z</time>
      </trkpt>
      <trkpt lat="44.14423" lon="7.23449">
        <ele>2053.1</ele>
        <time>2019-08-10T11:47:24Z</time>
      </trkpt>
      <trkpt lat="44.14407" lon="7.23461">
        <ele>2052.3</ele>
        <time>2019-08-10T11:47:31Z</time>
      </trkpt>
      <trkpt lat="44.1439" lon="7.23473">
        <ele>2051.5</ele>
        <time>2019-08-10T11:47:42Z</time>
      </trkpt>
      <trkpt lat="44.14384" lon="7.23476">
        <ele>2051.2</ele>
        <time>2019-08-10T11:47:48Z</time>
      </trkpt>
      <trkpt lat="44.14366" lon="7.23487">
        <ele>2050.5</ele>
        <time>2019-08-10T11:47:59Z</time>
      </trkpt>
      <trkpt lat="44.14349" lon="7.23497">
        <ele>2050.3</ele>
        <time>2019-08-10T11:48:09Z</time>
      </trkpt>
      <trkpt lat="44.14332" lon="7.23506">
        <ele>2049.7</ele>
        <time>2019-08-10T11:48:19Z</time>
      </trkpt>
      <trkpt lat="44.14315" lon="7.23517">
        <ele>2048.4</ele>
        <time>2019-08-10T11:48:30Z</time>
      </trkpt>
      <trkpt lat="44.14297" lon="7.23524">
        <ele>2047.3</ele>
        <time>2019-08-10T11:48:41Z</time>
      </trkpt>
      <trkpt lat="44.14294" lon="7.23524">
        <ele>2047.1</ele>
        <time>2019-08-10T11:48:43Z</time>
      </trkpt>
      <trkpt lat="44.14275" lon="7.23527">
        <ele>2045.8</ele>
        <time>2019-08-10T11:48:55Z</time>
      </trkpt>
      <trkpt lat="44.14257" lon="7.23522">
        <ele>2043.8</ele>
        <time>2019-08-10T11:49:07Z</time>
      </trkpt>
      <trkpt lat="44.14238" lon="7.23518">
        <ele>2041.2</ele>
        <time>2019-08-10T11:49:22Z</time>
      </trkpt>
      <trkpt lat="44.1422" lon="7.23514">
        <ele>2039.1</ele>
        <time>2019-08-10T11:49:33Z</time>
      </trkpt>
      <trkpt lat="44.14202" lon="7.23505">
        <ele>2037.3</ele>
        <time>2019-08-10T11:49:39Z</time>
      </trkpt>
      <trkpt lat="44.14185" lon="7.23496">
        <ele>2036.7</ele>
        <time>2019-08-10T11:49:51Z</time>
      </trkpt>
      <trkpt lat="44.14167" lon="7.23491">
        <ele>2036.7</ele>
        <time>2019-08-10T11:50:05Z</time>
      </trkpt>
      <trkpt lat="44.14148" lon="7.2349">
        <ele>2036.5</ele>
        <time>2019-08-10T11:50:15Z</time>
      </trkpt>
      <trkpt lat="44.14129" lon="7.23491">
        <ele>2035.6</ele>
        <time>2019-08-10T11:50:24Z</time>
      </trkpt>
      <trkpt lat="44.14109" lon="7.23489">
        <ele>2034.1</ele>
        <time>2019-08-10T11:50:33Z</time>
      </trkpt>
      <trkpt lat="44.14096" lon="7.2347">
        <ele>2032.4</ele>
        <time>2019-08-10T11:50:43Z</time>
      </trkpt>
      <trkpt lat="44.14082" lon="7.23451">
        <ele>2030.5</ele>
        <time>2019-08-10T11:50:51Z</time>
      </trkpt>
      <trkpt lat="44.1407" lon="7.23429">
        <ele>2028.5</ele>
        <time>2019-08-10T11:50:59Z</time>
      </trkpt>
      <trkpt lat="44.1406" lon="7.23407">
        <ele>2026.6</ele>
        <time>2019-08-10T11:51:08Z</time>
      </trkpt>
      <trkpt lat="44.14048" lon="7.23387">
        <ele>2024.3</ele>
        <time>2019-08-10T11:51:23Z</time>
      </trkpt>
      <trkpt lat="44.14041" lon="7.23363">
        <ele>2022</ele>
        <time>2019-08-10T11:51:37Z</time>
      </trkpt>
      <trkpt lat="44.14034" lon="7.23339">
        <ele>2020.3</ele>
        <time>2019-08-10T11:51:54Z</time>
      </trkpt>
      <trkpt lat="44.14032" lon="7.23338">
        <ele>2020.1</ele>
        <time>2019-08-10T11:51:56Z</time>
      </trkpt>
      <trkpt lat="44.14029" lon="7.23336">
        <ele>2019.9</ele>
        <time>2019-08-10T11:51:59Z</time>
      </trkpt>
      <trkpt lat="44.14013" lon="7.2335">
        <ele>2018.9</ele>
        <time>2019-08-10T11:52:14Z</time>
      </trkpt>
      <trkpt lat="44.14003" lon="7.23371">
        <ele>2018.4</ele>
        <time>2019-08-10T11:52:30Z</time>
      </trkpt>
      <trkpt lat="44.13991" lon="7.23391">
        <ele>2018.3</ele>
        <time>2019-08-10T11:52:46Z</time>
      </trkpt>
      <trkpt lat="44.13977" lon="7.23409">
        <ele>2018.4</ele>
        <time>2019-08-10T11:52:59Z</time>
      </trkpt>
      <trkpt lat="44.13963" lon="7.23425">
        <ele>2018.4</ele>
        <time>2019-08-10T11:53:15Z</time>
      </trkpt>
      <trkpt lat="44.13962" lon="7.23425">
        <ele>2018.4</ele>
        <time>2019-08-10T11:53:17Z</time>
      </trkpt>
      <trkpt lat="44.13957" lon="7.23428">
        <ele>2018.4</ele>
        <time>2019-08-10T11:53:23Z</time>
      </trkpt>
      <trkpt lat="44.13945" lon="7.23437">
        <ele>2018.4</ele>
        <time>2019-08-10T11:53:34Z</time>
      </trkpt>
      <trkpt lat="44.13944" lon="7.23437">
        <ele>2018.4</ele>
        <time>2019-08-10T11:53:37Z</time>
      </trkpt>
      <trkpt lat="44.1394" lon="7.23446">
        <ele>2018.4</ele>
        <time>2019-08-10T11:53:46Z</time>
      </trkpt>
      <trkpt lat="44.13928" lon="7.23465">
        <ele>2017.4</ele>
        <time>2019-08-10T11:54:03Z</time>
      </trkpt>
      <trkpt lat="44.13911" lon="7.23478">
        <ele>2018</ele>
        <time>2019-08-10T11:54:16Z</time>
      </trkpt>
      <trkpt lat="44.13894" lon="7.23485">
        <ele>2019.4</ele>
        <time>2019-08-10T11:54:29Z</time>
      </trkpt>
      <trkpt lat="44.13875" lon="7.23484">
        <ele>2020.6</ele>
        <time>2019-08-10T11:54:43Z</time>
      </trkpt>
      <trkpt lat="44.13857" lon="7.23491">
        <ele>2021.8</ele>
        <time>2019-08-10T11:54:57Z</time>
      </trkpt>
      <trkpt lat="44.13851" lon="7.23499">
        <ele>2022.4</ele>
        <time>2019-08-10T11:55:05Z</time>
      </trkpt>
      <trkpt lat="44.13844" lon="7.23523">
        <ele>2023.6</ele>
        <time>2019-08-10T11:55:24Z</time>
      </trkpt>
      <trkpt lat="44.13834" lon="7.23545">
        <ele>2024.8</ele>
        <time>2019-08-10T11:55:41Z</time>
      </trkpt>
      <trkpt lat="44.1382" lon="7.23563">
        <ele>2026.1</ele>
        <time>2019-08-10T11:55:56Z</time>
      </trkpt>
      <trkpt lat="44.13814" lon="7.23567">
        <ele>2026.6</ele>
        <time>2019-08-10T11:56:02Z</time>
      </trkpt>
      <trkpt lat="44.13798" lon="7.2358">
        <ele>2027.9</ele>
        <time>2019-08-10T11:56:18Z</time>
      </trkpt>
      <trkpt lat="44.13779" lon="7.23576">
        <ele>2029.2</ele>
        <time>2019-08-10T11:56:31Z</time>
      </trkpt>
      <trkpt lat="44.13761" lon="7.23566">
        <ele>2030.1</ele>
        <time>2019-08-10T11:56:47Z</time>
      </trkpt>
      <trkpt lat="44.13752" lon="7.23546">
        <ele>2028.5</ele>
        <time>2019-08-10T11:57:02Z</time>
      </trkpt>
      <trkpt lat="44.13751" lon="7.23542">
        <ele>2027.8</ele>
        <time>2019-08-10T11:57:05Z</time>
      </trkpt>
      <trkpt lat="44.13751" lon="7.2354">
        <ele>2027.5</ele>
        <time>2019-08-10T11:57:07Z</time>
      </trkpt>
      <trkpt lat="44.13751" lon="7.23541">
        <ele>2027.5</ele>
        <time>2019-08-10T11:57:09Z</time>
      </trkpt>
      <trkpt lat="44.13752" lon="7.23542">
        <ele>2027.2</ele>
        <time>2019-08-10T11:58:56Z</time>
      </trkpt>
      <trkpt lat="44.13757" lon="7.23531">
        <ele>2025.8</ele>
        <time>2019-08-10T11:59:43Z</time>
      </trkpt>
      <trkpt lat="44.13758" lon="7.23519">
        <ele>2024.6</ele>
        <time>2019-08-10T11:59:52Z</time>
      </trkpt>
      <trkpt lat="44.13758" lon="7.23492">
        <ele>2023.6</ele>
        <time>2019-08-10T12:00:06Z</time>
      </trkpt>
      <trkpt lat="44.13758" lon="7.23466">
        <ele>2023.1</ele>
        <time>2019-08-10T12:00:15Z</time>
      </trkpt>
      <trkpt lat="44.13744" lon="7.23446">
        <ele>2020.3</ele>
        <time>2019-08-10T12:00:23Z</time>
      </trkpt>
      <trkpt lat="44.13733" lon="7.23425">
        <ele>2020</ele>
        <time>2019-08-10T12:00:31Z</time>
      </trkpt>
      <trkpt lat="44.13735" lon="7.234">
        <ele>2022.9</ele>
        <time>2019-08-10T12:00:38Z</time>
      </trkpt>
      <trkpt lat="44.13737" lon="7.23375">
        <ele>2025.4</ele>
        <time>2019-08-10T12:00:46Z</time>
      </trkpt>
      <trkpt lat="44.13721" lon="7.23358">
        <ele>2026.2</ele>
        <time>2019-08-10T12:00:54Z</time>
      </trkpt>
      <trkpt lat="44.13704" lon="7.23351">
        <ele>2027.4</ele>
        <time>2019-08-10T12:01:01Z</time>
      </trkpt>
      <trkpt lat="44.13685" lon="7.23344">
        <ele>2028.3</ele>
        <time>2019-08-10T12:01:09Z</time>
      </trkpt>
      <trkpt lat="44.13672" lon="7.23349">
        <ele>2024.5</ele>
        <time>2019-08-10T12:01:17Z</time>
      </trkpt>
      <trkpt lat="44.13689" lon="7.23361">
        <ele>2021.5</ele>
        <time>2019-08-10T12:01:27Z</time>
      </trkpt>
      <trkpt lat="44.13704" lon="7.23376">
        <ele>2019.1</ele>
        <time>2019-08-10T12:01:35Z</time>
      </trkpt>
      <trkpt lat="44.13712" lon="7.23398">
        <ele>2016.9</ele>
        <time>2019-08-10T12:01:42Z</time>
      </trkpt>
      <trkpt lat="44.13709" lon="7.23426">
        <ele>2014.6</ele>
        <time>2019-08-10T12:01:50Z</time>
      </trkpt>
      <trkpt lat="44.13715" lon="7.2345">
        <ele>2012.1</ele>
        <time>2019-08-10T12:01:58Z</time>
      </trkpt>
      <trkpt lat="44.13716" lon="7.23476">
        <ele>2009.4</ele>
        <time>2019-08-10T12:02:05Z</time>
      </trkpt>
      <trkpt lat="44.13708" lon="7.23501">
        <ele>2007.2</ele>
        <time>2019-08-10T12:02:11Z</time>
      </trkpt>
      <trkpt lat="44.13694" lon="7.23522">
        <ele>2004.6</ele>
        <time>2019-08-10T12:02:17Z</time>
      </trkpt>
      <trkpt lat="44.13681" lon="7.2354">
        <ele>2002.5</ele>
        <time>2019-08-10T12:02:23Z</time>
      </trkpt>
      <trkpt lat="44.13667" lon="7.23562">
        <ele>1999.5</ele>
        <time>2019-08-10T12:02:30Z</time>
      </trkpt>
      <trkpt lat="44.13653" lon="7.2358">
        <ele>1997.1</ele>
        <time>2019-08-10T12:02:36Z</time>
      </trkpt>
      <trkpt lat="44.13638" lon="7.23599">
        <ele>1994.6</ele>
        <time>2019-08-10T12:02:43Z</time>
      </trkpt>
      <trkpt lat="44.13625" lon="7.2362">
        <ele>1992.6</ele>
        <time>2019-08-10T12:02:49Z</time>
      </trkpt>
      <trkpt lat="44.13613" lon="7.23641">
        <ele>1990.8</ele>
        <time>2019-08-10T12:02:56Z</time>
      </trkpt>
      <trkpt lat="44.13607" lon="7.23667">
        <ele>1989.4</ele>
        <time>2019-08-10T12:03:04Z</time>
      </trkpt>
      <trkpt lat="44.13604" lon="7.23694">
        <ele>1989.7</ele>
        <time>2019-08-10T12:03:12Z</time>
      </trkpt>
      <trkpt lat="44.13595" lon="7.23718">
        <ele>1987.2</ele>
        <time>2019-08-10T12:03:20Z</time>
      </trkpt>
      <trkpt lat="44.13592" lon="7.23744">
        <ele>1983.8</ele>
        <time>2019-08-10T12:03:29Z</time>
      </trkpt>
      <trkpt lat="44.13588" lon="7.2377">
        <ele>1981.2</ele>
        <time>2019-08-10T12:03:37Z</time>
      </trkpt>
      <trkpt lat="44.13584" lon="7.23796">
        <ele>1978.2</ele>
        <time>2019-08-10T12:03:45Z</time>
      </trkpt>
      <trkpt lat="44.13573" lon="7.23819">
        <ele>1974.6</ele>
        <time>2019-08-10T12:03:53Z</time>
      </trkpt>
      <trkpt lat="44.13566" lon="7.23844">
        <ele>1970.4</ele>
        <time>2019-08-10T12:04:01Z</time>
      </trkpt>
      <trkpt lat="44.13565" lon="7.23869">
        <ele>1969.2</ele>
        <time>2019-08-10T12:04:08Z</time>
      </trkpt>
      <trkpt lat="44.13562" lon="7.23894">
        <ele>1967.9</ele>
        <time>2019-08-10T12:04:15Z</time>
      </trkpt>
      <trkpt lat="44.13559" lon="7.23919">
        <ele>1967.3</ele>
        <time>2019-08-10T12:04:22Z</time>
      </trkpt>
      <trkpt lat="44.13558" lon="7.23945">
        <ele>1965.5</ele>
        <time>2019-08-10T12:04:29Z</time>
      </trkpt>
      <trkpt lat="44.13556" lon="7.23971">
        <ele>1965.1</ele>
        <time>2019-08-10T12:04:36Z</time>
      </trkpt>
      <trkpt lat="44.13555" lon="7.23996">
        <ele>1964.2</ele>
        <time>2019-08-10T12:04:43Z</time>
      </trkpt>
      <trkpt lat="44.13543" lon="7.24011">
        <ele>1962.9</ele>
        <time>2019-08-10T12:04:50Z</time>
      </trkpt>
      <trkpt lat="44.13529" lon="7.23992">
        <ele>1959.4</ele>
        <time>2019-08-10T12:04:58Z</time>
      </trkpt>
      <trkpt lat="44.13519" lon="7.23971">
        <ele>1957.2</ele>
        <time>2019-08-10T12:05:05Z</time>
      </trkpt>
      <trkpt lat="44.13504" lon="7.23953">
        <ele>1955.2</ele>
        <time>2019-08-10T12:05:12Z</time>
      </trkpt>
      <trkpt lat="44.13488" lon="7.23942">
        <ele>1954.1</ele>
        <time>2019-08-10T12:05:19Z</time>
      </trkpt>
      <trkpt lat="44.13484" lon="7.23966">
        <ele>1951.9</ele>
        <time>2019-08-10T12:05:27Z</time>
      </trkpt>
      <trkpt lat="44.1349" lon="7.23992">
        <ele>1950.8</ele>
        <time>2019-08-10T12:05:35Z</time>
      </trkpt>
      <trkpt lat="44.13499" lon="7.24017">
        <ele>1949.8</ele>
        <time>2019-08-10T12:05:43Z</time>
      </trkpt>
      <trkpt lat="44.13502" lon="7.24044">
        <ele>1948.4</ele>
        <time>2019-08-10T12:05:51Z</time>
      </trkpt>
      <trkpt lat="44.13506" lon="7.24068">
        <ele>1946.8</ele>
        <time>2019-08-10T12:05:58Z</time>
      </trkpt>
      <trkpt lat="44.13512" lon="7.24096">
        <ele>1945.9</ele>
        <time>2019-08-10T12:06:06Z</time>
      </trkpt>
      <trkpt lat="44.1351" lon="7.24124">
        <ele>1944.9</ele>
        <time>2019-08-10T12:06:14Z</time>
      </trkpt>
      <trkpt lat="44.13506" lon="7.24151">
        <ele>1943.8</ele>
        <time>2019-08-10T12:06:21Z</time>
      </trkpt>
      <trkpt lat="44.13496" lon="7.24172">
        <ele>1941.7</ele>
        <time>2019-08-10T12:06:27Z</time>
      </trkpt>
      <trkpt lat="44.13484" lon="7.24192">
        <ele>1940.4</ele>
        <time>2019-08-10T12:06:33Z</time>
      </trkpt>
      <trkpt lat="44.13468" lon="7.24205">
        <ele>1937.7</ele>
        <time>2019-08-10T12:06:40Z</time>
      </trkpt>
      <trkpt lat="44.13451" lon="7.24215">
        <ele>1934.7</ele>
        <time>2019-08-10T12:06:47Z</time>
      </trkpt>
      <trkpt lat="44.13435" lon="7.24228">
        <ele>1931.5</ele>
        <time>2019-08-10T12:06:54Z</time>
      </trkpt>
      <trkpt lat="44.1342" lon="7.24245">
        <ele>1928.2</ele>
        <time>2019-08-10T12:07:02Z</time>
      </trkpt>
      <trkpt lat="44.13407" lon="7.24262">
        <ele>1925.1</ele>
        <time>2019-08-10T12:07:09Z</time>
      </trkpt>
      <trkpt lat="44.13391" lon="7.24277">
        <ele>1921.9</ele>
        <time>2019-08-10T12:07:16Z</time>
      </trkpt>
      <trkpt lat="44.13379" lon="7.24296">
        <ele>1919.2</ele>
        <time>2019-08-10T12:07:23Z</time>
      </trkpt>
      <trkpt lat="44.13373" lon="7.24322">
        <ele>1917.1</ele>
        <time>2019-08-10T12:07:31Z</time>
      </trkpt>
      <trkpt lat="44.13369" lon="7.24346">
        <ele>1916.3</ele>
        <time>2019-08-10T12:07:39Z</time>
      </trkpt>
      <trkpt lat="44.13365" lon="7.24371">
        <ele>1915.8</ele>
        <time>2019-08-10T12:07:47Z</time>
      </trkpt>
      <trkpt lat="44.13359" lon="7.24396">
        <ele>1915.3</ele>
        <time>2019-08-10T12:07:55Z</time>
      </trkpt>
      <trkpt lat="44.13346" lon="7.24416">
        <ele>1910.8</ele>
        <time>2019-08-10T12:08:03Z</time>
      </trkpt>
      <trkpt lat="44.13332" lon="7.24434">
        <ele>1906</ele>
        <time>2019-08-10T12:08:11Z</time>
      </trkpt>
      <trkpt lat="44.13323" lon="7.24456">
        <ele>1903.7</ele>
        <time>2019-08-10T12:08:18Z</time>
      </trkpt>
      <trkpt lat="44.13318" lon="7.24482">
        <ele>1901.1</ele>
        <time>2019-08-10T12:08:26Z</time>
      </trkpt>
      <trkpt lat="44.13313" lon="7.24509">
        <ele>1899</ele>
        <time>2019-08-10T12:08:34Z</time>
      </trkpt>
      <trkpt lat="44.13313" lon="7.24536">
        <ele>1897.3</ele>
        <time>2019-08-10T12:08:42Z</time>
      </trkpt>
      <trkpt lat="44.13315" lon="7.24563">
        <ele>1896.5</ele>
        <time>2019-08-10T12:08:50Z</time>
      </trkpt>
      <trkpt lat="44.13312" lon="7.24588">
        <ele>1895.5</ele>
        <time>2019-08-10T12:08:58Z</time>
      </trkpt>
      <trkpt lat="44.13307" lon="7.24615">
        <ele>1894.9</ele>
        <time>2019-08-10T12:09:06Z</time>
      </trkpt>
      <trkpt lat="44.13296" lon="7.24639">
        <ele>1894.3</ele>
        <time>2019-08-10T12:09:13Z</time>
      </trkpt>
      <trkpt lat="44.13287" lon="7.24661">
        <ele>1894.1</ele>
        <time>2019-08-10T12:09:20Z</time>
      </trkpt>
      <trkpt lat="44.13277" lon="7.24683">
        <ele>1895</ele>
        <time>2019-08-10T12:09:27Z</time>
      </trkpt>
      <trkpt lat="44.13269" lon="7.24706">
        <ele>1895.8</ele>
        <time>2019-08-10T12:09:33Z</time>
      </trkpt>
      <trkpt lat="44.13256" lon="7.24726">
        <ele>1896.7</ele>
        <time>2019-08-10T12:09:40Z</time>
      </trkpt>
      <trkpt lat="44.13245" lon="7.24747">
        <ele>1897.3</ele>
        <time>2019-08-10T12:09:48Z</time>
      </trkpt>
      <trkpt lat="44.13232" lon="7.24766">
        <ele>1896.4</ele>
        <time>2019-08-10T12:09:57Z</time>
      </trkpt>
      <trkpt lat="44.13221" lon="7.24778">
        <ele>1895.2</ele>
        <time>2019-08-10T12:10:07Z</time>
      </trkpt>
      <trkpt lat="44.13208" lon="7.24798">
        <ele>1889.9</ele>
        <time>2019-08-10T12:10:20Z</time>
      </trkpt>
      <trkpt lat="44.13196" lon="7.24818">
        <ele>1885.9</ele>
        <time>2019-08-10T12:10:34Z</time>
      </trkpt>
      <trkpt lat="44.13183" lon="7.24837">
        <ele>1882.1</ele>
        <time>2019-08-10T12:10:47Z</time>
      </trkpt>
      <trkpt lat="44.13175" lon="7.24859">
        <ele>1882.7</ele>
        <time>2019-08-10T12:11:00Z</time>
      </trkpt>
      <trkpt lat="44.13166" lon="7.24882">
        <ele>1884.3</ele>
        <time>2019-08-10T12:11:14Z</time>
      </trkpt>
      <trkpt lat="44.13158" lon="7.24907">
        <ele>1882.4</ele>
        <time>2019-08-10T12:11:28Z</time>
      </trkpt>
      <trkpt lat="44.1315" lon="7.2493">
        <ele>1879.3</ele>
        <time>2019-08-10T12:11:41Z</time>
      </trkpt>
      <trkpt lat="44.13141" lon="7.24952">
        <ele>1875.5</ele>
        <time>2019-08-10T12:11:54Z</time>
      </trkpt>
      <trkpt lat="44.13132" lon="7.24974">
        <ele>1873</ele>
        <time>2019-08-10T12:12:08Z</time>
      </trkpt>
      <trkpt lat="44.13123" lon="7.24997">
        <ele>1870</ele>
        <time>2019-08-10T12:12:21Z</time>
      </trkpt>
      <trkpt lat="44.13113" lon="7.25019">
        <ele>1867.8</ele>
        <time>2019-08-10T12:12:35Z</time>
      </trkpt>
      <trkpt lat="44.13101" lon="7.2504">
        <ele>1864.6</ele>
        <time>2019-08-10T12:12:49Z</time>
      </trkpt>
      <trkpt lat="44.13094" lon="7.25064">
        <ele>1863</ele>
        <time>2019-08-10T12:13:02Z</time>
      </trkpt>
      <trkpt lat="44.13085" lon="7.25086">
        <ele>1860.9</ele>
        <time>2019-08-10T12:13:17Z</time>
      </trkpt>
      <trkpt lat="44.13078" lon="7.2511">
        <ele>1859.4</ele>
        <time>2019-08-10T12:13:32Z</time>
      </trkpt>
      <trkpt lat="44.13074" lon="7.25134">
        <ele>1860.2</ele>
        <time>2019-08-10T12:13:44Z</time>
      </trkpt>
      <trkpt lat="44.13064" lon="7.25149">
        <ele>1858.8</ele>
        <time>2019-08-10T12:13:55Z</time>
      </trkpt>
      <trkpt lat="44.1306" lon="7.25126">
        <ele>1856.2</ele>
        <time>2019-08-10T12:14:10Z</time>
      </trkpt>
      <trkpt lat="44.1306" lon="7.25124">
        <ele>1856</ele>
        <time>2019-08-10T12:14:11Z</time>
      </trkpt>
      <trkpt lat="44.13061" lon="7.25099">
        <ele>1854.7</ele>
        <time>2019-08-10T12:14:23Z</time>
      </trkpt>
      <trkpt lat="44.1306" lon="7.25074">
        <ele>1853</ele>
        <time>2019-08-10T12:14:36Z</time>
      </trkpt>
      <trkpt lat="44.13056" lon="7.25055">
        <ele>1852.5</ele>
        <time>2019-08-10T12:14:47Z</time>
      </trkpt>
      <trkpt lat="44.1305" lon="7.25031">
        <ele>1852.3</ele>
        <time>2019-08-10T12:14:59Z</time>
      </trkpt>
      <trkpt lat="44.13045" lon="7.25005">
        <ele>1852</ele>
        <time>2019-08-10T12:15:12Z</time>
      </trkpt>
      <trkpt lat="44.13036" lon="7.24982">
        <ele>1849.1</ele>
        <time>2019-08-10T12:15:25Z</time>
      </trkpt>
      <trkpt lat="44.13038" lon="7.24955">
        <ele>1846.7</ele>
        <time>2019-08-10T12:15:39Z</time>
      </trkpt>
      <trkpt lat="44.13033" lon="7.2493">
        <ele>1846</ele>
        <time>2019-08-10T12:15:54Z</time>
      </trkpt>
      <trkpt lat="44.13032" lon="7.24928">
        <ele>1846</ele>
        <time>2019-08-10T12:15:55Z</time>
      </trkpt>
      <trkpt lat="44.1302" lon="7.24944">
        <ele>1844.2</ele>
        <time>2019-08-10T12:16:12Z</time>
      </trkpt>
      <trkpt lat="44.1302" lon="7.24945">
        <ele>1844.1</ele>
        <time>2019-08-10T12:16:13Z</time>
      </trkpt>
      <trkpt lat="44.13015" lon="7.2497">
        <ele>1842.2</ele>
        <time>2019-08-10T12:16:23Z</time>
      </trkpt>
      <trkpt lat="44.13007" lon="7.24993">
        <ele>1840.8</ele>
        <time>2019-08-10T12:16:30Z</time>
      </trkpt>
      <trkpt lat="44.13" lon="7.25017">
        <ele>1839.4</ele>
        <time>2019-08-10T12:16:37Z</time>
      </trkpt>
      <trkpt lat="44.12995" lon="7.25045">
        <ele>1837.7</ele>
        <time>2019-08-10T12:16:45Z</time>
      </trkpt>
      <trkpt lat="44.12988" lon="7.25071">
        <ele>1836</ele>
        <time>2019-08-10T12:16:53Z</time>
      </trkpt>
      <trkpt lat="44.12984" lon="7.25097">
        <ele>1834.6</ele>
        <time>2019-08-10T12:17:01Z</time>
      </trkpt>
      <trkpt lat="44.12983" lon="7.25124">
        <ele>1832.9</ele>
        <time>2019-08-10T12:17:09Z</time>
      </trkpt>
      <trkpt lat="44.12981" lon="7.25151">
        <ele>1831.5</ele>
        <time>2019-08-10T12:17:17Z</time>
      </trkpt>
      <trkpt lat="44.12976" lon="7.25177">
        <ele>1830.2</ele>
        <time>2019-08-10T12:17:25Z</time>
      </trkpt>
      <trkpt lat="44.12972" lon="7.25202">
        <ele>1829.1</ele>
        <time>2019-08-10T12:17:32Z</time>
      </trkpt>
      <trkpt lat="44.1297" lon="7.25229">
        <ele>1827.6</ele>
        <time>2019-08-10T12:17:40Z</time>
      </trkpt>
      <trkpt lat="44.12966" lon="7.25254">
        <ele>1825.6</ele>
        <time>2019-08-10T12:17:47Z</time>
      </trkpt>
      <trkpt lat="44.12959" lon="7.25277">
        <ele>1823.8</ele>
        <time>2019-08-10T12:17:54Z</time>
      </trkpt>
      <trkpt lat="44.12951" lon="7.25304">
        <ele>1822</ele>
        <time>2019-08-10T12:18:02Z</time>
      </trkpt>
      <trkpt lat="44.12943" lon="7.25326">
        <ele>1820.1</ele>
        <time>2019-08-10T12:18:09Z</time>
      </trkpt>
      <trkpt lat="44.12929" lon="7.25346">
        <ele>1818.3</ele>
        <time>2019-08-10T12:18:17Z</time>
      </trkpt>
      <trkpt lat="44.12914" lon="7.2536">
        <ele>1816.8</ele>
        <time>2019-08-10T12:18:26Z</time>
      </trkpt>
      <trkpt lat="44.12899" lon="7.25377">
        <ele>1815.2</ele>
        <time>2019-08-10T12:18:35Z</time>
      </trkpt>
      <trkpt lat="44.12885" lon="7.25396">
        <ele>1813.9</ele>
        <time>2019-08-10T12:18:43Z</time>
      </trkpt>
      <trkpt lat="44.12876" lon="7.2542">
        <ele>1812</ele>
        <time>2019-08-10T12:18:51Z</time>
      </trkpt>
      <trkpt lat="44.12868" lon="7.25424">
        <ele>1811.2</ele>
        <time>2019-08-10T12:18:55Z</time>
      </trkpt>
      <trkpt lat="44.1287" lon="7.254">
        <ele>1809.8</ele>
        <time>2019-08-10T12:19:03Z</time>
      </trkpt>
      <trkpt lat="44.12881" lon="7.25378">
        <ele>1808.1</ele>
        <time>2019-08-10T12:19:10Z</time>
      </trkpt>
      <trkpt lat="44.12894" lon="7.25361">
        <ele>1806.5</ele>
        <time>2019-08-10T12:19:17Z</time>
      </trkpt>
      <trkpt lat="44.12896" lon="7.25334">
        <ele>1804.7</ele>
        <time>2019-08-10T12:19:26Z</time>
      </trkpt>
      <trkpt lat="44.12883" lon="7.25311">
        <ele>1802.8</ele>
        <time>2019-08-10T12:19:34Z</time>
      </trkpt>
      <trkpt lat="44.12874" lon="7.25286">
        <ele>1801.2</ele>
        <time>2019-08-10T12:19:42Z</time>
      </trkpt>
      <trkpt lat="44.12866" lon="7.25261">
        <ele>1799.5</ele>
        <time>2019-08-10T12:19:49Z</time>
      </trkpt>
      <trkpt lat="44.12862" lon="7.25237">
        <ele>1797.8</ele>
        <time>2019-08-10T12:19:56Z</time>
      </trkpt>
      <trkpt lat="44.12853" lon="7.25231">
        <ele>1797.2</ele>
        <time>2019-08-10T12:20:02Z</time>
      </trkpt>
      <trkpt lat="44.12853" lon="7.25237">
        <ele>1796.9</ele>
        <time>2019-08-10T12:20:04Z</time>
      </trkpt>
      <trkpt lat="44.12853" lon="7.25264">
        <ele>1795</ele>
        <time>2019-08-10T12:20:12Z</time>
      </trkpt>
      <trkpt lat="44.12847" lon="7.2529">
        <ele>1793.1</ele>
        <time>2019-08-10T12:20:20Z</time>
      </trkpt>
      <trkpt lat="44.12833" lon="7.25309">
        <ele>1791.6</ele>
        <time>2019-08-10T12:20:28Z</time>
      </trkpt>
      <trkpt lat="44.12819" lon="7.25324">
        <ele>1790</ele>
        <time>2019-08-10T12:20:36Z</time>
      </trkpt>
      <trkpt lat="44.1281" lon="7.25348">
        <ele>1788.8</ele>
        <time>2019-08-10T12:20:44Z</time>
      </trkpt>
      <trkpt lat="44.12805" lon="7.25374">
        <ele>1787.1</ele>
        <time>2019-08-10T12:20:51Z</time>
      </trkpt>
      <trkpt lat="44.12797" lon="7.254">
        <ele>1785.6</ele>
        <time>2019-08-10T12:20:59Z</time>
      </trkpt>
      <trkpt lat="44.1279" lon="7.25424">
        <ele>1784</ele>
        <time>2019-08-10T12:21:07Z</time>
      </trkpt>
      <trkpt lat="44.12778" lon="7.25447">
        <ele>1782.2</ele>
        <time>2019-08-10T12:21:15Z</time>
      </trkpt>
      <trkpt lat="44.12765" lon="7.25465">
        <ele>1780.5</ele>
        <time>2019-08-10T12:21:24Z</time>
      </trkpt>
      <trkpt lat="44.12757" lon="7.25491">
        <ele>1778.8</ele>
        <time>2019-08-10T12:21:33Z</time>
      </trkpt>
      <trkpt lat="44.12762" lon="7.25517">
        <ele>1776.7</ele>
        <time>2019-08-10T12:21:40Z</time>
      </trkpt>
      <trkpt lat="44.12773" lon="7.25541">
        <ele>1774.1</ele>
        <time>2019-08-10T12:21:48Z</time>
      </trkpt>
      <trkpt lat="44.12784" lon="7.25564">
        <ele>1772.2</ele>
        <time>2019-08-10T12:21:56Z</time>
      </trkpt>
      <trkpt lat="44.12782" lon="7.25591">
        <ele>1770</ele>
        <time>2019-08-10T12:22:04Z</time>
      </trkpt>
      <trkpt lat="44.12781" lon="7.25616">
        <ele>1768</ele>
        <time>2019-08-10T12:22:12Z</time>
      </trkpt>
      <trkpt lat="44.1279" lon="7.25641">
        <ele>1766.2</ele>
        <time>2019-08-10T12:22:20Z</time>
      </trkpt>
      <trkpt lat="44.12802" lon="7.2566">
        <ele>1764.5</ele>
        <time>2019-08-10T12:22:28Z</time>
      </trkpt>
      <trkpt lat="44.128" lon="7.25686">
        <ele>1763</ele>
        <time>2019-08-10T12:22:36Z</time>
      </trkpt>
      <trkpt lat="44.12788" lon="7.25705">
        <ele>1761</ele>
        <time>2019-08-10T12:22:43Z</time>
      </trkpt>
      <trkpt lat="44.12777" lon="7.25726">
        <ele>1759.3</ele>
        <time>2019-08-10T12:22:51Z</time>
      </trkpt>
      <trkpt lat="44.12764" lon="7.25744">
        <ele>1757.7</ele>
        <time>2019-08-10T12:23:05Z</time>
      </trkpt>
      <trkpt lat="44.12748" lon="7.25754">
        <ele>1755.6</ele>
        <time>2019-08-10T12:23:18Z</time>
      </trkpt>
      <trkpt lat="44.12732" lon="7.25768">
        <ele>1753.9</ele>
        <time>2019-08-10T12:23:33Z</time>
      </trkpt>
      <trkpt lat="44.12716" lon="7.25782">
        <ele>1752.4</ele>
        <time>2019-08-10T12:23:46Z</time>
      </trkpt>
      <trkpt lat="44.12699" lon="7.25789">
        <ele>1750.6</ele>
        <time>2019-08-10T12:23:59Z</time>
      </trkpt>
      <trkpt lat="44.12686" lon="7.25806">
        <ele>1748.9</ele>
        <time>2019-08-10T12:24:10Z</time>
      </trkpt>
      <trkpt lat="44.12693" lon="7.2583">
        <ele>1747.7</ele>
        <time>2019-08-10T12:24:19Z</time>
      </trkpt>
      <trkpt lat="44.12707" lon="7.25845">
        <ele>1746</ele>
        <time>2019-08-10T12:24:26Z</time>
      </trkpt>
      <trkpt lat="44.12713" lon="7.25868">
        <ele>1743.8</ele>
        <time>2019-08-10T12:24:34Z</time>
      </trkpt>
      <trkpt lat="44.12701" lon="7.25891">
        <ele>1741.4</ele>
        <time>2019-08-10T12:24:41Z</time>
      </trkpt>
      <trkpt lat="44.12695" lon="7.25918">
        <ele>1739.5</ele>
        <time>2019-08-10T12:24:48Z</time>
      </trkpt>
      <trkpt lat="44.12699" lon="7.25945">
        <ele>1737.6</ele>
        <time>2019-08-10T12:24:56Z</time>
      </trkpt>
      <trkpt lat="44.12712" lon="7.25964">
        <ele>1736.2</ele>
        <time>2019-08-10T12:25:05Z</time>
      </trkpt>
      <trkpt lat="44.12731" lon="7.25973">
        <ele>1734.4</ele>
        <time>2019-08-10T12:25:14Z</time>
      </trkpt>
      <trkpt lat="44.12747" lon="7.25986">
        <ele>1732.3</ele>
        <time>2019-08-10T12:25:21Z</time>
      </trkpt>
      <trkpt lat="44.12757" lon="7.26009">
        <ele>1729.8</ele>
        <time>2019-08-10T12:25:29Z</time>
      </trkpt>
      <trkpt lat="44.12765" lon="7.26032">
        <ele>1727.8</ele>
        <time>2019-08-10T12:25:37Z</time>
      </trkpt>
      <trkpt lat="44.12772" lon="7.26057">
        <ele>1725.3</ele>
        <time>2019-08-10T12:25:46Z</time>
      </trkpt>
      <trkpt lat="44.12774" lon="7.26083">
        <ele>1723.4</ele>
        <time>2019-08-10T12:25:55Z</time>
      </trkpt>
      <trkpt lat="44.12771" lon="7.26109">
        <ele>1721.5</ele>
        <time>2019-08-10T12:26:03Z</time>
      </trkpt>
      <trkpt lat="44.1276" lon="7.26132">
        <ele>1719.8</ele>
        <time>2019-08-10T12:26:10Z</time>
      </trkpt>
      <trkpt lat="44.1275" lon="7.26155">
        <ele>1718.4</ele>
        <time>2019-08-10T12:26:17Z</time>
      </trkpt>
      <trkpt lat="44.12742" lon="7.26178">
        <ele>1716.7</ele>
        <time>2019-08-10T12:26:24Z</time>
      </trkpt>
      <trkpt lat="44.12736" lon="7.26204">
        <ele>1714.8</ele>
        <time>2019-08-10T12:26:32Z</time>
      </trkpt>
      <trkpt lat="44.12732" lon="7.26225">
        <ele>1713.1</ele>
        <time>2019-08-10T12:26:56Z</time>
      </trkpt>
      <trkpt lat="44.12729" lon="7.26251">
        <ele>1711</ele>
        <time>2019-08-10T12:27:09Z</time>
      </trkpt>
      <trkpt lat="44.12722" lon="7.26275">
        <ele>1708.7</ele>
        <time>2019-08-10T12:27:22Z</time>
      </trkpt>
      <trkpt lat="44.12719" lon="7.26299">
        <ele>1706.9</ele>
        <time>2019-08-10T12:27:34Z</time>
      </trkpt>
      <trkpt lat="44.12717" lon="7.26323">
        <ele>1705.2</ele>
        <time>2019-08-10T12:27:46Z</time>
      </trkpt>
      <trkpt lat="44.12704" lon="7.26339">
        <ele>1704.5</ele>
        <time>2019-08-10T12:27:58Z</time>
      </trkpt>
      <trkpt lat="44.12699" lon="7.26325">
        <ele>1703.9</ele>
        <time>2019-08-10T12:28:08Z</time>
      </trkpt>
      <trkpt lat="44.12697" lon="7.26299">
        <ele>1703</ele>
        <time>2019-08-10T12:28:21Z</time>
      </trkpt>
      <trkpt lat="44.12698" lon="7.26274">
        <ele>1702.4</ele>
        <time>2019-08-10T12:28:34Z</time>
      </trkpt>
      <trkpt lat="44.12701" lon="7.2625">
        <ele>1701.8</ele>
        <time>2019-08-10T12:28:47Z</time>
      </trkpt>
      <trkpt lat="44.12702" lon="7.26242">
        <ele>1701.5</ele>
        <time>2019-08-10T12:28:51Z</time>
      </trkpt>
      <trkpt lat="44.12702" lon="7.26237">
        <ele>1701.3</ele>
        <time>2019-08-10T12:28:54Z</time>
      </trkpt>
      <trkpt lat="44.12702" lon="7.26229">
        <ele>1701.1</ele>
        <time>2019-08-10T12:28:59Z</time>
      </trkpt>
      <trkpt lat="44.12702" lon="7.26226">
        <ele>1700.9</ele>
        <time>2019-08-10T12:29:01Z</time>
      </trkpt>
      <trkpt lat="44.12692" lon="7.26204">
        <ele>1700.1</ele>
        <time>2019-08-10T12:29:13Z</time>
      </trkpt>
      <trkpt lat="44.12686" lon="7.26183">
        <ele>1699.6</ele>
        <time>2019-08-10T12:29:26Z</time>
      </trkpt>
      <trkpt lat="44.12685" lon="7.26177">
        <ele>1699.4</ele>
        <time>2019-08-10T12:29:30Z</time>
      </trkpt>
      <trkpt lat="44.12674" lon="7.26157">
        <ele>1698.3</ele>
        <time>2019-08-10T12:29:46Z</time>
      </trkpt>
      <trkpt lat="44.1267" lon="7.26152">
        <ele>1698</ele>
        <time>2019-08-10T12:29:52Z</time>
      </trkpt>
      <trkpt lat="44.12667" lon="7.26149">
        <ele>1697.7</ele>
        <time>2019-08-10T12:29:54Z</time>
      </trkpt>
      <trkpt lat="44.12652" lon="7.26134">
        <ele>1696.6</ele>
        <time>2019-08-10T12:30:06Z</time>
      </trkpt>
      <trkpt lat="44.12638" lon="7.26116">
        <ele>1695.9</ele>
        <time>2019-08-10T12:30:19Z</time>
      </trkpt>
      <trkpt lat="44.12625" lon="7.26098">
        <ele>1695.6</ele>
        <time>2019-08-10T12:30:33Z</time>
      </trkpt>
      <trkpt lat="44.12616" lon="7.26074">
        <ele>1695</ele>
        <time>2019-08-10T12:30:46Z</time>
      </trkpt>
      <trkpt lat="44.12608" lon="7.26049">
        <ele>1694.6</ele>
        <time>2019-08-10T12:31:01Z</time>
      </trkpt>
      <trkpt lat="44.12607" lon="7.26048">
        <ele>1694.6</ele>
        <time>2019-08-10T12:31:03Z</time>
      </trkpt>
      <trkpt lat="44.12603" lon="7.26046">
        <ele>1694.6</ele>
        <time>2019-08-10T12:31:08Z</time>
      </trkpt>
      <trkpt lat="44.12599" lon="7.26048">
        <ele>1694.6</ele>
        <time>2019-08-10T12:31:12Z</time>
      </trkpt>
    </trkseg>
  </trk>
</gpx>